[[{"header":{"parameterUnit":"m.s-1","parameterCategory":1,"la1":30.6,"la2":29.2853,"lo1":-89.7004,"lo2":-87.6739,"dy":0.0162,"dx":0.0183,"nx":112,"ny":82,"refTime":"2026-05-19T12:00:00:Z","depth":0,"parameterNumber":2,"parameterNumberName":"U-component_of_WINDS"},"data":[0.0,0.0,0.0,0.0,0.0,0.0,0.0,0.0,0.0,0.0,0.0,0.0,0.0,0.0,0.0,0.0,0.0,0.0,0.0,0.0,0.0,0.0,0.0,0.0,0.0,0.0,0.0,0.0,0.0,0.0,0.0,0.0,0.0,0.0,0.0,0.0,0.0,0.0,0.0,0.0,0.0,0.0,0.0,0.0,0.0,0.0,0.0,0.0,0.0,0.0,0.0,0.0,0.0,0.0,0.0,0.0,0.0,0.0,0.0,0.0,0.0,0.0,0.0,0.0,0.0,0.0,0.0,0.0,0.0,0.0,0.0,0.0,0.0,0.0,0.0,0.0,0.0,0.0,0.0,0.0,0.0,0.0,0.0,0.0,0.0,0.0,0.0,0.0,0.0,0.0,-5.7088,-5.8357,-5.9877,-6.08,-6.08,-6.0685,-5.9254,-5.6063,0.0,0.0,0.0,0.0,0.0,0.0,0.0,0.0,0.0,0.0,0.0,0.0,0.0,0.0,0.0,0.0,0.0,0.0,0.0,0.0,0.0,0.0,0.0,0.0,0.0,0.0,0.0,0.0,0.0,0.0,0.0,0.0,0.0,0.0,0.0,0.0,0.0,0.0,0.0,0.0,0.0,0.0,0.0,0.0,0.0,0.0,0.0,0.0,0.0,0.0,0.0,0.0,0.0,0.0,0.0,0.0,0.0,0.0,0.0,0.0,0.0,0.0,0.0,0.0,0.0,0.0,0.0,0.0,0.0,0.0,0.0,0.0,0.0,0.0,0.0,0.0,0.0,0.0,0.0,0.0,0.0,0.0,0.0,0.0,0.0,0.0,0.0,0.0,0.0,0.0,0.0,0.0,0.0,0.0,0.0,0.0,0.0,0.0,0.0,0.0,0.0,0.0,0.0,0.0,-5.6011,-5.8992,-6.0204,-6.08,-6.08,-6.0127,-5.8561,-5.5901,0.0,0.0,0.0,0.0,0.0,0.0,0.0,0.0,0.0,0.0,0.0,0.0,0.0,0.0,0.0,0.0,0.0,0.0,0.0,0.0,0.0,0.0,0.0,0.0,0.0,0.0,0.0,0.0,0.0,0.0,0.0,0.0,0.0,0.0,0.0,0.0,0.0,0.0,0.0,0.0,0.0,0.0,0.0,0.0,0.0,0.0,0.0,0.0,0.0,0.0,0.0,0.0,0.0,0.0,0.0,0.0,0.0,0.0,0.0,0.0,0.0,0.0,0.0,0.0,0.0,0.0,0.0,0.0,0.0,0.0,0.0,0.0,0.0,0.0,0.0,0.0,0.0,0.0,0.0,0.0,0.0,0.0,0.0,0.0,0.0,0.0,0.0,0.0,0.0,0.0,0.0,0.0,0.0,0.0,0.0,0.0,0.0,0.0,0.0,0.0,0.0,0.0,0.0,-5.6145,-5.6973,-5.9896,-6.055,-6.08,-6.08,-6.0435,-5.8915,-5.5895,-5.5759,0.0,0.0,0.0,0.0,0.0,0.0,0.0,0.0,0.0,0.0,0.0,0.0,0.0,0.0,0.0,0.0,0.0,0.0,0.0,0.0,0.0,0.0,0.0,0.0,0.0,0.0,0.0,0.0,0.0,0.0,0.0,0.0,0.0,0.0,0.0,0.0,0.0,0.0,0.0,0.0,0.0,0.0,0.0,0.0,0.0,0.0,0.0,0.0,0.0,0.0,0.0,0.0,0.0,0.0,0.0,0.0,0.0,0.0,0.0,0.0,0.0,0.0,0.0,0.0,0.0,0.0,0.0,0.0,0.0,0.0,0.0,0.0,0.0,0.0,0.0,0.0,0.0,0.0,0.0,0.0,0.0,0.0,0.0,0.0,0.0,0.0,0.0,0.0,0.0,0.0,0.0,0.0,0.0,0.0,0.0,0.0,0.0,0.0,0.0,0.0,0.0,0.0,-5.7724,-5.8508,-6.0589,-6.08,-6.08,-6.08,-6.0435,-5.8915,-5.5895,-5.5318,0.0,0.0,0.0,0.0,0.0,0.0,0.0,0.0,0.0,0.0,0.0,0.0,0.0,0.0,0.0,0.0,0.0,0.0,0.0,0.0,0.0,0.0,0.0,0.0,0.0,0.0,0.0,0.0,0.0,0.0,0.0,0.0,0.0,0.0,0.0,0.0,0.0,0.0,0.0,0.0,0.0,0.0,0.0,0.0,0.0,0.0,0.0,0.0,0.0,0.0,0.0,0.0,0.0,0.0,0.0,0.0,0.0,0.0,0.0,0.0,0.0,0.0,0.0,0.0,0.0,0.0,0.0,0.0,0.0,0.0,0.0,0.0,0.0,0.0,0.0,0.0,0.0,0.0,0.0,0.0,0.0,0.0,0.0,0.0,0.0,0.0,0.0,0.0,0.0,0.0,0.0,0.0,0.0,0.0,0.0,0.0,0.0,0.0,0.0,0.0,0.0,0.0,-5.8228,-6.0133,-6.0738,-6.08,-6.08,-6.08,-5.9377,-5.7684,-5.5818,-5.4241,0.0,0.0,0.0,0.0,0.0,0.0,0.0,0.0,0.0,0.0,0.0,0.0,0.0,0.0,0.0,0.0,0.0,0.0,0.0,0.0,0.0,0.0,0.0,0.0,0.0,0.0,0.0,0.0,0.0,0.0,0.0,0.0,0.0,0.0,0.0,0.0,0.0,0.0,0.0,0.0,0.0,0.0,0.0,0.0,0.0,0.0,0.0,0.0,0.0,0.0,0.0,0.0,0.0,0.0,0.0,0.0,0.0,0.0,0.0,0.0,0.0,0.0,0.0,0.0,0.0,0.0,0.0,0.0,0.0,0.0,0.0,0.0,0.0,0.0,0.0,0.0,0.0,0.0,0.0,0.0,0.0,0.0,0.0,0.0,0.0,0.0,0.0,0.0,0.0,0.0,0.0,0.0,0.0,0.0,0.0,0.0,0.0,0.0,0.0,0.0,0.0,0.0,-5.6934,-5.8571,-5.9787,-6.0175,-6.0351,-6.0351,-5.9566,-5.8088,-5.5838,0.0,0.0,0.0,0.0,0.0,0.0,0.0,0.0,0.0,0.0,0.0,0.0,0.0,0.0,0.0,0.0,0.0,0.0,0.0,0.0,0.0,0.0,0.0,0.0,0.0,0.0,0.0,0.0,0.0,0.0,0.0,0.0,0.0,0.0,0.0,0.0,0.0,0.0,0.0,0.0,0.0,0.0,0.0,0.0,0.0,0.0,0.0,0.0,0.0,0.0,0.0,0.0,0.0,0.0,0.0,0.0,0.0,0.0,0.0,0.0,0.0,0.0,0.0,0.0,0.0,0.0,0.0,0.0,0.0,0.0,0.0,0.0,0.0,0.0,0.0,0.0,0.0,0.0,0.0,0.0,0.0,0.0,0.0,0.0,0.0,0.0,0.0,0.0,0.0,0.0,0.0,0.0,0.0,0.0,0.0,0.0,0.0,0.0,0.0,0.0,0.0,0.0,-5.461,-5.6161,-5.769,-5.9221,-5.9693,-5.9885,-5.9885,-5.8901,-5.7385,-5.524,0.0,0.0,0.0,0.0,0.0,0.0,0.0,0.0,0.0,0.0,0.0,0.0,0.0,0.0,0.0,0.0,0.0,0.0,0.0,0.0,0.0,0.0,0.0,0.0,0.0,0.0,0.0,0.0,0.0,0.0,0.0,0.0,0.0,0.0,0.0,0.0,0.0,0.0,0.0,0.0,0.0,0.0,0.0,0.0,0.0,0.0,0.0,0.0,0.0,0.0,0.0,0.0,0.0,0.0,0.0,0.0,0.0,0.0,0.0,0.0,0.0,0.0,0.0,0.0,0.0,0.0,0.0,0.0,0.0,0.0,0.0,0.0,0.0,0.0,0.0,0.0,0.0,0.0,0.0,0.0,0.0,0.0,0.0,0.0,0.0,0.0,0.0,0.0,0.0,0.0,0.0,0.0,0.0,0.0,0.0,0.0,0.0,0.0,0.0,0.0,0.0,0.0,-5.4326,-5.6256,-5.7977,-5.9261,-5.9389,-5.9389,-5.9389,-5.7127,-5.5154,0.0,0.0,0.0,0.0,0.0,0.0,0.0,0.0,0.0,0.0,0.0,0.0,0.0,0.0,0.0,0.0,0.0,0.0,0.0,0.0,0.0,0.0,0.0,0.0,0.0,0.0,0.0,0.0,0.0,0.0,0.0,0.0,0.0,0.0,0.0,0.0,0.0,0.0,0.0,0.0,0.0,0.0,0.0,0.0,0.0,0.0,0.0,0.0,0.0,0.0,0.0,0.0,0.0,0.0,0.0,0.0,0.0,0.0,0.0,0.0,0.0,0.0,0.0,0.0,0.0,0.0,0.0,0.0,0.0,0.0,0.0,0.0,0.0,0.0,0.0,0.0,0.0,0.0,0.0,0.0,0.0,0.0,0.0,0.0,0.0,0.0,0.0,0.0,0.0,0.0,0.0,0.0,0.0,0.0,0.0,0.0,0.0,0.0,0.0,0.0,0.0,0.0,0.0,-5.3775,-5.5775,-5.7374,-5.8304,-5.8715,-5.8913,-5.8913,-5.7446,-5.563,-5.352,0.0,0.0,0.0,0.0,0.0,0.0,0.0,0.0,0.0,0.0,0.0,0.0,0.0,0.0,0.0,0.0,0.0,0.0,0.0,0.0,0.0,0.0,0.0,0.0,0.0,0.0,0.0,0.0,0.0,0.0,0.0,0.0,0.0,0.0,0.0,0.0,0.0,0.0,0.0,0.0,0.0,0.0,0.0,0.0,0.0,0.0,0.0,0.0,0.0,0.0,0.0,0.0,0.0,0.0,0.0,0.0,0.0,0.0,0.0,0.0,0.0,0.0,0.0,0.0,0.0,0.0,0.0,0.0,0.0,0.0,0.0,0.0,0.0,0.0,0.0,0.0,0.0,0.0,0.0,0.0,0.0,0.0,0.0,0.0,0.0,0.0,0.0,0.0,0.0,0.0,0.0,0.0,0.0,0.0,0.0,0.0,0.0,0.0,0.0,0.0,0.0,0.0,-5.3283,-5.518,-5.6748,-5.7886,-5.826,-5.8418,-5.8418,-5.7165,-5.5397,-5.3063,0.0,0.0,0.0,0.0,0.0,0.0,0.0,0.0,0.0,0.0,0.0,0.0,0.0,0.0,0.0,0.0,0.0,0.0,0.0,0.0,0.0,0.0,0.0,0.0,0.0,0.0,0.0,0.0,0.0,0.0,0.0,0.0,0.0,0.0,0.0,0.0,0.0,0.0,0.0,0.0,0.0,0.0,0.0,0.0,0.0,0.0,0.0,0.0,0.0,0.0,0.0,0.0,0.0,0.0,0.0,0.0,0.0,0.0,0.0,0.0,0.0,0.0,0.0,0.0,0.0,0.0,0.0,0.0,0.0,0.0,0.0,0.0,0.0,0.0,0.0,0.0,0.0,0.0,0.0,0.0,0.0,0.0,0.0,0.0,0.0,0.0,0.0,0.0,0.0,0.0,0.0,0.0,0.0,0.0,0.0,0.0,0.0,0.0,0.0,0.0,0.0,0.0,-5.2894,-5.4601,-5.6216,-5.7831,-5.7997,-5.7997,-5.7997,-5.6528,-5.4702,-5.2605,0.0,0.0,0.0,0.0,0.0,0.0,0.0,0.0,0.0,0.0,0.0,0.0,0.0,0.0,0.0,0.0,0.0,0.0,0.0,0.0,0.0,0.0,0.0,0.0,0.0,0.0,0.0,0.0,0.0,0.0,0.0,0.0,0.0,0.0,0.0,0.0,0.0,0.0,0.0,0.0,0.0,0.0,0.0,0.0,0.0,0.0,0.0,0.0,0.0,0.0,0.0,0.0,0.0,0.0,0.0,0.0,0.0,0.0,0.0,0.0,-5.2613,-5.1621,0.0,0.0,0.0,0.0,0.0,0.0,0.0,0.0,0.0,0.0,0.0,0.0,0.0,0.0,0.0,0.0,0.0,0.0,0.0,0.0,0.0,0.0,0.0,0.0,0.0,0.0,0.0,0.0,0.0,0.0,0.0,0.0,0.0,0.0,0.0,0.0,0.0,0.0,0.0,0.0,-5.2894,-5.4601,-5.6216,-5.7831,-5.7997,-5.7997,-5.7997,-5.6528,-5.4589,-5.2248,-5.0249,0.0,0.0,0.0,0.0,0.0,0.0,0.0,0.0,0.0,0.0,0.0,0.0,0.0,0.0,0.0,0.0,0.0,0.0,0.0,0.0,0.0,0.0,0.0,0.0,0.0,0.0,0.0,0.0,0.0,0.0,0.0,0.0,0.0,0.0,0.0,0.0,0.0,0.0,0.0,0.0,0.0,0.0,0.0,0.0,0.0,0.0,0.0,0.0,0.0,0.0,0.0,0.0,0.0,0.0,0.0,0.0,0.0,0.0,0.0,-5.4601,-5.3594,0.0,0.0,0.0,0.0,0.0,0.0,0.0,0.0,0.0,0.0,0.0,0.0,0.0,0.0,0.0,0.0,0.0,0.0,0.0,0.0,0.0,0.0,0.0,0.0,0.0,0.0,0.0,0.0,0.0,0.0,0.0,0.0,0.0,0.0,0.0,0.0,0.0,0.0,0.0,0.0,-5.2307,-5.4032,-5.5482,-5.6712,-5.684,-5.684,-5.684,-5.5721,-5.4308,-5.2674,-5.045,0.0,0.0,0.0,0.0,0.0,0.0,0.0,0.0,0.0,0.0,0.0,0.0,0.0,0.0,0.0,0.0,0.0,0.0,0.0,0.0,0.0,0.0,0.0,0.0,0.0,0.0,0.0,0.0,0.0,0.0,0.0,0.0,0.0,0.0,0.0,0.0,0.0,0.0,0.0,0.0,0.0,0.0,0.0,0.0,0.0,0.0,0.0,0.0,0.0,0.0,0.0,0.0,0.0,-5.8033,-5.8419,-5.8419,-5.8419,-5.8419,-5.8345,-5.7152,-5.64,-5.5985,-5.5653,0.0,0.0,0.0,0.0,0.0,0.0,0.0,0.0,0.0,0.0,0.0,0.0,0.0,0.0,0.0,0.0,0.0,0.0,0.0,0.0,0.0,0.0,-5.2032,-5.1389,-5.1224,-5.0904,-4.9692,0.0,0.0,0.0,0.0,0.0,0.0,0.0,0.0,0.0,0.0,0.0,-5.172,-5.339,-5.4711,-5.55,-5.5614,-5.5614,-5.5614,-5.4858,-5.4069,-5.324,-5.1004,-4.9297,0.0,0.0,0.0,0.0,0.0,0.0,0.0,0.0,0.0,0.0,0.0,0.0,0.0,0.0,0.0,0.0,0.0,0.0,0.0,0.0,0.0,0.0,0.0,0.0,0.0,0.0,0.0,0.0,0.0,0.0,0.0,0.0,-5.3849,-5.4051,0.0,0.0,0.0,0.0,0.0,0.0,0.0,0.0,0.0,0.0,0.0,0.0,0.0,-5.6877,-5.7685,-5.8492,-5.8872,-5.8872,-5.9703,-6.0089,-6.0089,-6.0089,-6.0089,-6.0107,-6.0603,0.0,-5.7666,-5.7624,0.0,0.0,0.0,0.0,0.0,0.0,0.0,0.0,0.0,0.0,0.0,0.0,0.0,0.0,0.0,0.0,0.0,0.0,0.0,0.0,0.0,0.0,-5.3023,-5.2913,-5.2873,-5.2658,-5.1765,-4.9962,-4.8379,-4.8049,-4.759,-4.7186,0.0,0.0,0.0,0.0,0.0,0.0,-5.1867,-5.339,-5.4711,-5.55,-5.5614,-5.5614,-5.5614,-5.4858,-5.4069,-5.324,-5.1591,-4.9939,-4.8361,-4.7314,0.0,0.0,0.0,0.0,0.0,0.0,0.0,0.0,0.0,0.0,0.0,0.0,0.0,0.0,0.0,0.0,0.0,0.0,0.0,0.0,0.0,0.0,0.0,0.0,0.0,0.0,0.0,0.0,0.0,-5.3225,-5.4399,-5.4399,-5.5097,-5.5097,0.0,0.0,0.0,0.0,0.0,0.0,0.0,0.0,0.0,-5.6877,-5.774,-5.8547,-5.9336,-6.0603,-6.1202,-6.1221,-6.1594,-6.2016,-6.2456,-6.1979,-6.1759,-6.1777,-6.2126,-6.1667,-6.0639,-5.9722,-5.8676,-5.7538,0.0,0.0,0.0,0.0,-5.5904,-5.5387,-5.6675,-5.6657,-5.5959,-5.5409,0.0,0.0,0.0,0.0,0.0,0.0,0.0,-5.1995,-5.1995,-5.2601,-5.3185,-5.3185,-5.3185,-5.3093,-5.2747,-5.183,-5.0802,-4.9884,-4.9426,-4.904,-4.8581,-4.7718,0.0,0.0,0.0,-5.0563,-5.183,-5.3004,-5.3701,-5.3645,-5.3636,-5.3479,-5.3111,-5.2756,-5.2414,-5.203,-5.0926,-4.9968,-4.9225,-4.7589,-4.6363,0.0,0.0,0.0,0.0,0.0,0.0,0.0,0.0,0.0,0.0,0.0,0.0,0.0,0.0,0.0,0.0,0.0,0.0,0.0,0.0,0.0,0.0,0.0,0.0,0.0,0.0,0.0,0.0,-5.4546,-5.5244,-5.5042,-5.6088,-5.6033,0.0,0.0,0.0,0.0,0.0,0.0,-5.6767,-5.6253,-5.7042,-5.9483,-6.0144,-6.0841,-6.1649,-6.286,-6.3356,-6.3135,-6.3135,-6.3356,-6.3741,-6.3099,-6.278,-6.278,-6.278,-6.278,-6.267,-6.13,-6.0236,-5.9423,-5.8621,-5.7813,-5.7207,-5.8015,-5.7941,-5.7611,-5.9001,-5.9368,-5.9001,-5.779,-5.6873,-5.5747,-5.3372,0.0,0.0,0.0,0.0,-5.2601,-5.2601,-5.2913,-5.3185,-5.3185,-5.3185,-5.3185,-5.3185,-5.3185,-5.2784,-5.1389,-5.1114,-5.0839,-5.0051,-4.8721,0.0,-4.9681,-4.977,-5.0174,-5.1545,-5.2277,-5.2463,-5.1904,-5.1856,-5.1643,-5.1138,-5.1086,-5.1086,-5.1086,-5.0529,-5.0097,-4.9902,-4.8215,-4.7007,-4.6424,0.0,0.0,0.0,0.0,0.0,0.0,0.0,0.0,0.0,0.0,0.0,0.0,0.0,0.0,0.0,0.0,0.0,0.0,0.0,0.0,0.0,0.0,0.0,0.0,0.0,0.0,0.0,0.0,0.0,-5.6785,-5.8749,0.0,0.0,0.0,0.0,-5.6748,-5.7391,-5.8492,-6.007,-6.0126,-6.1227,-6.3704,-6.3815,-6.4237,-6.5063,-6.5136,-6.4787,-6.4016,-6.4016,-6.3613,-6.2853,-6.2817,-6.278,-6.278,-6.278,-6.278,-6.275,-6.1887,-6.1062,-6.0272,-5.9441,-5.8657,-5.8033,-5.8859,-5.9111,-5.9184,-6.0052,-5.985,-5.9184,-5.9093,-5.7043,-5.4585,-5.4422,-5.3773,0.0,0.0,-5.4252,-5.4271,-5.4271,-5.3739,-5.3185,-5.3185,-5.3185,-5.3185,-5.3185,-5.3185,-5.2968,-5.2087,-5.194,-5.1665,-5.0875,0.0,-4.984,-5.0629,-5.0248,-5.0147,-5.0857,-5.1111,-5.1189,-5.1164,-5.1138,-5.1138,-5.1112,-5.1086,-5.1086,-5.1086,-5.1051,-5.0714,-4.992,-4.9796,-4.8675,-4.6442,-4.6283,0.0,0.0,0.0,0.0,0.0,0.0,0.0,0.0,0.0,0.0,0.0,0.0,0.0,0.0,0.0,0.0,0.0,0.0,0.0,0.0,0.0,0.0,0.0,0.0,0.0,0.0,0.0,0.0,-5.9098,-5.9887,0.0,-5.8088,-5.8455,-5.8877,-5.9098,-5.9869,-6.1043,-6.2677,-6.2768,-6.3411,-6.4842,-6.5375,-6.5521,-6.5319,-6.5815,-6.5668,-6.4879,-6.4347,-6.3925,-6.3613,-6.3062,-6.278,-6.278,-6.278,-6.278,-6.2762,-6.2493,-6.2218,-6.1924,-6.1624,-6.1043,-6.0401,-6.1227,-6.119,-6.086,-6.1686,-6.1753,-6.1282,-5.9768,-5.7442,-5.5188,-5.4651,-5.3922,-5.3325,-5.3601,-5.3695,-5.357,-5.3111,-5.3105,-5.3085,-5.2618,-5.2853,-5.3082,-5.2599,-5.249,-5.2286,-5.1563,-5.1347,-5.1201,-5.0911,-4.9867,-4.9311,-5.0086,-5.0026,-5.0163,-5.0938,-5.1063,-5.0929,-5.0445,-5.039,-5.0213,-4.9797,-4.9739,-4.9739,-4.9739,-4.9739,-4.9619,-4.9332,-4.885,-4.8008,-4.6674,-4.5721,-4.4518,0.0,0.0,0.0,0.0,0.0,0.0,0.0,0.0,0.0,0.0,0.0,0.0,0.0,0.0,0.0,0.0,0.0,0.0,0.0,0.0,0.0,0.0,0.0,0.0,0.0,-5.8425,-5.9813,-6.0346,-6.1392,-6.152,-6.0144,-6.0762,-6.1374,-6.163,-6.2383,-6.3447,-6.4842,-6.4897,-6.5283,-6.609,-6.6623,-6.6641,-6.6109,-6.6366,-6.6109,-6.5301,-6.4475,-6.3943,-6.3631,-6.3062,-6.278,-6.278,-6.278,-6.278,-6.278,-6.278,-6.278,-6.278,-6.278,-6.2475,-6.2071,-6.2603,-6.2475,-6.2089,-6.2622,-6.2432,-6.1672,-5.9885,-5.7859,-5.5998,-5.5473,-5.4756,-5.4184,-5.4447,-5.4125,-5.357,-5.3103,-5.2917,-5.2731,-5.2254,-5.2305,-5.2353,-5.1856,-5.1741,-5.1618,-5.1189,-5.1016,-5.097,-5.097,-4.9958,-4.9389,-5.0177,-4.9898,-4.9876,-5.0619,-5.0544,-5.0202,-4.9722,-4.9664,-4.9492,-4.9032,-4.8781,-4.8646,-4.8646,-4.8409,-4.8257,-4.8257,-4.78,-4.7192,-4.6447,-4.4959,-4.3892,-4.328,0.0,0.0,0.0,0.0,0.0,0.0,0.0,0.0,0.0,0.0,0.0,0.0,0.0,0.0,0.0,0.0,0.0,0.0,0.0,0.0,0.0,0.0,0.0,-5.6811,-5.8937,-6.0426,-6.0505,-6.3312,-6.4347,-6.1979,-6.3906,-6.4989,-6.4218,-6.4897,-6.5705,-6.6494,-6.6531,-6.688,-6.7696,-6.7687,-6.7687,-6.7687,-6.6916,-6.6127,-6.5338,-6.4549,-6.3704,-6.286,-6.286,-6.2817,-6.278,-6.278,-6.278,-6.278,-6.278,-6.278,-6.278,-6.278,-6.278,-6.278,-6.278,-6.278,-6.278,-6.278,-6.1777,-6.0323,-5.9514,-5.8193,-5.6879,-5.6835,-5.6286,-5.5836,-5.6616,-5.5705,-5.4472,-5.4426,-5.3331,-5.2218,-5.2165,-5.1635,-5.1121,-5.1078,-5.106,-5.106,-5.1034,-5.1034,-5.1034,-5.106,-5.0462,-5.0213,-5.0929,-4.9867,0.0,-4.9907,-4.9389,-4.9001,-4.9001,-4.9001,-4.9001,-4.9001,-4.8342,-4.7889,-4.7889,-4.7208,-4.6786,-4.6786,-4.6786,-4.6447,-4.572,-4.4198,-4.3392,-4.3392,0.0,0.0,0.0,0.0,0.0,0.0,0.0,0.0,0.0,0.0,0.0,0.0,0.0,0.0,0.0,0.0,0.0,0.0,0.0,0.0,0.0,-5.5238,-5.6757,-5.7572,-5.9267,-6.1045,-6.2794,-6.386,-6.4622,-6.5099,-6.5246,-6.5448,-6.5797,-6.6054,-6.6512,-6.732,-6.7357,-6.7467,-6.7687,-6.7687,-6.7687,-6.7687,-6.7467,-6.6971,-6.6164,-6.5944,-6.5099,-6.3741,-6.3741,-6.3392,-6.278,-6.278,-6.278,-6.278,-6.278,-6.278,-6.278,-6.278,-6.278,-6.278,-6.278,-6.278,-6.278,-6.278,-6.2126,-6.0963,-5.9093,-5.7779,-5.6677,-5.5572,-5.5089,-5.4969,-5.5161,-5.4914,-5.4305,-5.3201,-5.3,-5.2799,-5.1743,-5.1681,-5.159,-5.0512,-5.0297,-5.0174,-4.9681,-4.958,-4.9722,-5.0213,-4.9722,-4.9329,-4.9551,-4.9243,-4.9077,-4.9256,-4.9107,-4.9001,-4.9001,-4.9001,-4.9001,-4.9001,-4.8342,-4.7889,-4.7889,-4.7208,-4.6786,-4.6786,-4.6786,-4.6447,-4.572,-4.4198,-4.3392,0.0,0.0,0.0,0.0,0.0,0.0,0.0,0.0,0.0,0.0,0.0,0.0,0.0,0.0,0.0,0.0,0.0,0.0,0.0,0.0,0.0,0.0,-5.6114,-5.7181,-5.8257,-5.9544,-6.1174,-6.3209,-6.4106,-6.5059,-6.6326,-6.6362,-6.6494,-6.6971,-6.699,-6.721,-6.7696,-6.7687,-6.7687,-6.7687,-6.7687,-6.7687,-6.7687,-6.7357,-6.6953,-6.6494,-6.6164,-6.5503,-6.4604,-6.4604,-6.4145,-6.3337,-6.3337,-6.3154,-6.278,-6.2446,-6.2298,-6.2324,0.0,0.0,0.0,0.0,-6.2094,-6.1788,-6.1788,-6.1263,-6.0314,-5.8695,-5.7576,-5.6675,-5.5448,-5.4848,-5.4589,-5.4589,-5.4589,-5.4316,-5.3123,-5.312,-5.3134,-5.1936,-5.1484,-5.1084,-5.0231,-4.9816,-4.9462,-4.9077,-4.9001,0.0,-4.9521,-4.9256,-4.9001,-4.9001,-4.9001,-4.9001,-4.9001,-4.9001,-4.9001,-4.9001,-4.9001,-4.9001,-4.9001,-4.8342,0.0,0.0,0.0,-4.6194,-4.5901,-4.5872,0.0,0.0,0.0,0.0,0.0,-4.4384,0.0,0.0,-4.4062,-4.4012,0.0,0.0,0.0,0.0,0.0,0.0,0.0,0.0,0.0,0.0,0.0,0.0,0.0,0.0,0.0,0.0,-5.7326,-5.7509,-5.8829,-5.9786,-6.0956,-6.2521,-6.4111,-6.5445,-6.6433,-6.723,-6.7687,-6.7687,-6.7687,-6.7687,-6.7687,-6.7687,0.0,0.0,0.0,-6.7687,-6.7687,-6.699,-6.6641,-6.6623,-6.5907,-6.5521,-6.5448,-6.5448,-6.5007,-6.4218,-6.4127,-6.3649,-6.2883,-6.196,-6.153,-6.153,-6.235,-6.273,-6.2686,-6.1897,-6.116,-6.0519,-6.0445,0.0,0.0,-5.8224,-5.7417,-5.664,-5.5811,-5.5131,-5.4589,-5.4589,-5.4589,-5.4437,-5.3701,-5.3515,-5.3277,-5.2394,-5.1183,-5.0168,-4.9999,-4.9458,-4.9001,-4.9001,-4.9001,-4.9001,-4.9001,-4.9001,-4.9001,-4.9001,-4.9001,-4.9001,-4.9001,-4.9001,-4.9001,-4.9001,-4.9001,0.0,-4.9001,-4.8342,-4.7631,-4.6972,-4.616,-4.5399,-4.4767,-4.4649,-4.4942,-4.5703,-4.5703,-4.6058,-4.6786,-4.6786,-4.6836,-4.687,-4.4773,-4.4536,0.0,0.0,0.0,0.0,0.0,0.0,0.0,0.0,0.0,0.0,0.0,0.0,0.0,0.0,0.0,-5.6691,-5.7889,-5.8693,-5.8981,-5.965,-6.0823,-6.2549,-6.3645,-6.5087,-6.7241,-6.7588,-6.7687,-6.7687,-6.7687,-6.7687,-6.7687,-6.7687,-6.7687,-6.7687,-6.7687,-6.7687,-6.7687,-6.754,-6.7467,-6.7467,-6.7302,0.0,-6.6274,-6.6274,-6.5833,-6.5044,-6.4383,-6.3998,-6.3727,-6.2214,-6.1218,-6.07,-6.152,-6.2245,-6.2686,-6.1897,-6.1502,-6.1275,-6.0628,-5.9901,-5.9044,-5.7594,-5.6624,-5.5858,-5.5061,-5.4695,0.0,-5.4589,-5.4589,-5.4437,-5.3701,-5.3516,-5.3141,-5.1757,-5.12,-5.0676,-4.9475,-4.9103,-4.9001,-4.9001,-4.9001,-4.9001,-4.9001,-4.9001,-4.9001,-4.9001,-4.9001,-4.9001,-4.9001,-4.9001,-4.9001,-4.9001,-4.9001,-4.9001,-4.9001,-4.8342,-4.7821,-4.7716,-4.6447,-4.5652,-4.55,-4.4936,-4.4942,-4.5703,-4.5703,-4.6058,-4.6786,-4.6786,-4.7107,-4.7682,-4.6616,-4.6295,0.0,0.0,0.0,0.0,0.0,0.0,0.0,0.0,0.0,0.0,0.0,-5.1234,-5.3129,0.0,-5.6292,-5.8152,-5.9082,-5.9691,-6.0097,-6.0131,-6.0421,-6.1328,-6.2545,-6.3935,-6.5542,-6.6535,-6.7043,-6.7043,-6.746,-6.7687,-6.7687,-6.7687,-6.7687,-6.7687,-6.7687,-6.7687,-6.7687,-6.7687,-6.7687,-6.7687,-6.7687,-6.7485,-6.71,-6.71,-6.6659,-6.587,-6.5044,-6.4475,-6.3921,-6.1862,-6.0519,-5.98,-6.0176,-6.0861,-6.1604,-6.1604,-6.1066,-6.03,-5.9879,-5.8988,-5.7865,-5.6676,-5.5805,-5.5068,-5.4264,-5.4042,-5.4042,-5.4042,-5.4328,-5.4333,-5.3208,-5.3205,-5.3124,-5.1568,-5.093,-5.0456,-4.9712,-4.9255,-4.9001,-4.9001,-4.9001,-4.9001,-4.9001,-4.9001,-4.9001,-4.9001,-4.9001,-4.9001,-4.9001,-4.9001,-4.8866,-4.8494,-4.8781,-4.8697,-4.7953,-4.7564,-4.7513,-4.7872,-4.687,-4.6244,-4.6244,-4.5889,-4.6041,-4.6802,-4.6819,-4.7175,-4.7902,-4.7902,-4.8088,-4.8443,-4.8071,-4.7902,0.0,0.0,0.0,0.0,0.0,0.0,0.0,-4.7225,-4.8291,-5.0507,-5.1572,-5.2909,-5.5649,-5.6613,-5.7746,-5.9979,-6.0334,-6.0554,-6.1214,-6.0875,-6.0486,-6.0351,-6.1654,-6.303,-6.4113,-6.5526,-6.6464,-6.6659,-6.7304,-6.7687,-6.7687,-6.7687,-6.7687,-6.7687,-6.7687,-6.7687,-6.7687,-6.7687,-6.7687,-6.7687,-6.7687,-6.7687,-6.7687,-6.7687,-6.7338,-6.6678,-6.5555,-6.4417,-6.321,-6.1027,-5.9639,-5.8857,-5.9061,-5.9541,-6.0242,-6.1055,-6.0514,-5.9344,-5.9144,-5.7981,-5.6494,-5.5867,-5.5108,-5.4279,-5.3687,-5.3501,-5.3501,-5.3501,-5.3827,-5.3886,-5.2632,-5.2665,-5.2685,-5.131,-5.0541,-5.005,-4.9915,-4.9424,-4.9001,-4.9001,-4.9001,-4.9001,-4.9001,-4.9001,-4.9001,-4.9001,-4.9001,-4.8951,-4.8798,-4.8798,-4.8511,-4.7784,-4.8223,-4.8088,-4.6887,-4.6786,-4.7107,-4.7838,-4.7208,-4.6853,-4.7005,-4.687,-4.7141,-4.7872,-4.7889,-4.8244,-4.9001,-4.9001,-4.9001,-4.9001,-4.9001,-4.9001,-4.4632,-4.4666,-4.5038,-4.6244,-4.6126,-4.6566,0.0,-5.0627,-5.1352,-5.3619,-5.4685,-5.5716,-5.734,-5.7712,-5.8507,-6.0791,-6.118,-6.1197,-6.1298,-6.1789,-6.189,-6.1247,-6.1998,-6.3534,-6.5881,-6.6295,-6.6718,-6.7488,-6.7642,-6.7687,-6.7687,-6.7687,-6.7687,-6.7687,-6.7687,-6.7687,-6.7687,-6.7687,-6.7687,-6.7687,-6.7687,-6.7687,-6.7687,-6.7687,-6.7659,-6.744,-6.5147,-6.2889,-6.0722,-5.9674,-5.8755,-5.8118,-5.8806,-5.9144,-5.9344,-6.0211,-6.0414,-6.0149,-5.9377,-5.7655,-5.5818,-5.575,-5.4769,-5.3619,-5.3534,-5.3501,-5.3501,-5.3501,-5.3043,-5.2533,-5.235,-5.1874,-5.1229,-5.042,-5.0152,-4.9915,-4.9255,-4.9069,-4.9001,-4.9001,-4.9001,-4.9001,-4.9001,-4.9001,-4.9001,-4.9001,-4.9001,-4.8765,-4.8122,-4.8007,-4.775,-4.7005,-4.6989,-4.6972,-4.6802,-4.6786,-4.7107,-4.7838,-4.7208,-4.709,-4.7767,-4.7141,-4.7141,-4.7872,-4.7889,-4.8244,-4.9001,-4.9001,-4.9001,-4.9001,-4.9001,-4.9001,-4.5229,-4.5534,-4.5923,-4.6109,-4.6904,-4.802,-4.9576,-5.0559,-5.186,-5.4126,-5.5192,-5.6292,-5.8203,-5.8896,-5.9641,-6.1078,-6.1653,-6.1941,-6.1941,-6.2195,-6.2279,-6.1975,-6.2259,-6.2913,-6.3971,-6.453,-6.5166,-6.6071,-6.6623,-6.7156,-6.7687,-6.7687,-6.7687,-6.7687,-6.7687,-6.7687,-6.7687,-6.7687,-6.7687,-6.7687,-6.7687,-6.7448,-6.699,-6.699,-6.6476,-6.5558,-6.4518,-6.2668,-6.0384,-5.9991,-5.9078,-5.7918,-5.8263,-5.8686,-5.926,-6.0592,-6.0471,-5.9601,-5.9306,-5.7662,-5.5649,-5.5209,-5.4346,-5.3501,-5.3501,-5.3501,-5.3501,-5.3501,-5.2926,-5.2198,-5.1775,-5.1116,-5.0371,-4.9644,-4.9458,-4.9373,-4.9069,-4.9001,-4.9001,-4.9001,-4.9001,-4.9001,-4.9001,-4.9001,-4.9001,-4.9001,-4.8646,-4.8257,-4.7922,-4.753,-4.7141,-4.6819,-4.6024,-4.5855,-4.6718,-4.6413,-4.6464,-4.7208,-4.6972,-4.6938,-4.7242,-4.7394,-4.7597,-4.7889,-4.8342,-4.8697,-4.9001,-4.9001,-4.9001,-4.9001,-4.9001,-4.9001,-4.5652,-4.6092,-4.6464,-4.6346,-4.7513,-4.8866,-4.9475,-5.0591,-5.2164,-5.4431,-5.5497,-5.6697,-5.8913,-5.9742,-6.0436,-6.1434,-6.2042,-6.2381,-6.2381,-6.2381,-6.2381,-6.2381,-6.2381,-6.2381,-6.2381,-6.3182,-6.4165,-6.52,-6.5999,-6.6779,-6.7615,-6.7671,-6.7687,-6.7687,-6.7687,-6.7687,-6.7687,-6.7687,-6.7459,-6.6994,-6.7239,-6.6836,-6.5824,-6.6066,-6.5411,-6.409,-6.3855,-6.2464,-6.0384,-6.0149,-5.9212,-5.7881,-5.7881,-5.8263,-5.8925,-6.0392,-6.0127,-5.9091,-5.9215,-5.7708,-5.5632,-5.5074,-5.4262,-5.3501,-5.3501,-5.3501,-5.3501,-5.3501,-5.2773,-5.1877,-5.132,-5.0507,-4.9661,-4.9137,-4.9001,-4.9001,-4.9001,-4.9001,-4.9001,-4.9001,-4.9001,-4.9001,-4.9001,-4.9001,-4.9001,-4.9001,-4.8206,-4.7614,-4.7614,-4.6769,-4.6177,-4.6177,-4.5258,-4.5038,-4.6092,-4.5686,-4.5703,-4.6447,-4.6498,-4.6583,-4.6786,-4.731,-4.7614,-4.7614,-4.8122,-4.8392,-4.8392,-4.8612,-4.8714,-4.8714,-4.8917,-4.9001,-4.5517,-4.572,-4.6075,-4.7466,-4.7872,-4.848,-5.0627,-5.1725,-5.2909,-5.5209,-5.6258,-5.7442,-5.9658,-6.008,-6.0605,-6.211,-6.2381,-6.2381,-6.2381,-6.2381,-6.2381,-6.2381,-6.2381,-6.2381,-6.2381,-6.3182,-6.4338,-6.5944,-6.6272,-6.6728,-6.7486,-6.7622,-6.7687,-6.7687,-6.7687,-6.7687,-6.7687,-6.7687,-6.6866,-6.5294,-6.6117,-6.567,-6.409,-6.4948,-6.4879,-6.4046,-6.3212,-6.1924,-6.0353,-5.9509,-5.8651,-5.7881,-5.7881,-5.7918,-5.8046,-5.8875,-5.9144,-5.9111,-5.911,-5.7604,-5.5681,-5.5683,-5.4685,-5.3501,-5.3501,-5.3501,-5.3501,-5.3501,-5.2418,-5.1219,-5.1217,-5.0135,-4.9035,-4.9018,-4.9001,-4.9001,-4.9001,-4.9001,-4.9001,-4.9001,-4.9001,-4.9001,-4.9001,-4.9001,-4.9001,-4.9001,-4.775,-4.6819,-4.6819,-4.5579,-4.4682,-4.4682,-4.4632,-4.4632,-4.4666,-4.4649,-4.4942,-4.5703,-4.5737,-4.6058,-4.6752,-4.6802,-4.6819,-4.6819,-4.6853,-4.6853,-4.6853,-4.7597,-4.7922,-4.7939,-4.868,-4.9001,-4.5635,-4.6413,-4.7293,-4.777,-4.8646,-4.9678,-5.093,-5.1775,-5.2807,-5.46,-5.5158,-5.6021,-5.822,-5.9049,-5.9877,-6.1417,-6.2076,-6.2381,-6.2381,-6.2381,-6.2381,-6.2381,-6.2381,-6.2381,-6.2381,-6.2659,-6.3285,-6.4426,-6.511,-6.5837,-6.6734,-6.7376,-6.7687,-6.7687,-6.7687,-6.7687,-6.7687,-6.7687,-6.6866,-6.5163,-6.3871,-6.3242,-6.3174,-6.2393,-6.2187,-6.2386,-6.1554,-6.0565,-5.9491,-5.9211,-5.8633,-5.7881,-5.7881,-5.7881,-5.7918,-5.8192,-5.8281,-5.8302,-5.8373,-5.7518,-5.6275,-5.5294,-5.4634,-5.4143,-5.3653,-5.3501,-5.3399,-5.2858,-5.1995,-5.1099,-5.0608,-4.9746,-4.9001,-4.9001,-4.9001,-4.9001,-4.9001,-4.9001,-4.9001,-4.9001,-4.9001,-4.9001,-4.9001,-4.9001,-4.8832,-4.8359,-4.7428,-4.6616,-4.6126,-4.5196,-4.4801,-4.528,-4.4874,-4.4615,-4.4615,-4.4615,-4.4716,-4.4942,-4.4959,-4.506,-4.5343,-4.5805,-4.6075,-4.6075,-4.6549,-4.6786,-4.6786,-4.7056,-4.7428,-4.7889,-4.8142,-4.8545,-4.6346,-4.7192,-4.7939,-4.824,-4.9018,-4.9965,-5.098,-5.1589,-5.2418,-5.4228,-5.4583,-5.5192,-5.7137,-5.8118,-5.9116,-6.0622,-6.1501,-6.2093,-6.2347,-6.2381,-6.2381,-6.2381,-6.2381,-6.2381,-6.2381,-6.2381,-6.2739,-6.3577,-6.4182,-6.5041,-6.6254,-6.6892,-6.7359,-6.7687,-6.7687,-6.7687,-6.7687,-6.7387,-6.6243,-6.4267,-6.1848,-6.1123,-6.1895,-6.0889,-6.067,-6.1142,-6.061,-5.9896,-5.9111,-5.9111,-5.8633,-5.7881,-5.7881,-5.7881,-5.7881,-5.7881,-5.7881,-5.7923,-5.7963,-5.7276,-5.6258,-5.5294,-5.4634,-5.411,-5.3653,-5.3501,-5.3331,-5.2536,-5.1775,-5.1048,-5.0287,-4.9543,-4.9001,-4.9001,-4.9001,-4.9001,-4.9001,-4.9001,-4.9001,-4.9001,-4.8798,-4.8697,-4.8951,-4.8781,-4.8376,-4.7631,-4.6887,-4.6329,-4.6126,-4.5213,-4.4874,-4.5618,-4.5026,-4.4615,-4.4615,-4.4615,-4.4615,-4.4615,-4.4615,-4.4615,-4.4615,-4.5043,-4.5314,-4.5314,-4.5754,-4.6007,-4.6007,-4.6278,-4.6786,-4.7513,-4.78,-4.8308,-4.7517,-4.7922,-4.8108,-4.8832,-4.9035,-4.9441,-5.0847,-5.1219,-5.1877,-5.4025,-5.4515,-5.4955,-5.6376,-5.7323,-5.8355,-5.981,-6.0791,-6.1603,-6.2296,-6.2381,-6.2381,-6.2381,-6.2381,-6.2381,-6.2381,-6.2381,-6.2685,-6.3396,-6.3594,-6.4356,-6.591,-6.6254,-6.6776,-6.7615,-6.7687,-6.7687,-6.7687,-6.6704,-6.5013,-6.2599,-6.019,-5.9509,-6.0322,-6.0291,-6.0291,-6.0322,-6.0291,-5.98,-5.9061,-5.9061,-5.8599,-5.7881,-5.7881,-5.7881,-5.7881,-5.7881,-5.7881,-5.7881,-5.7848,-5.6934,-5.575,-5.5683,-5.4702,-5.3551,-5.3518,-5.3501,-5.3331,-5.2536,-5.1775,-5.1048,-5.0287,-4.9543,-4.9001,-4.9001,-4.9001,-4.9001,-4.9001,-4.9001,-4.9001,-4.9001,-4.8379,-4.8122,-4.8781,-4.8325,-4.7614,-4.6904,-4.6177,-4.5957,-4.665,-4.5512,-4.4874,-4.5618,-4.5026,-4.4615,-4.4615,-4.4615,-4.4615,-4.4615,-4.4615,-4.4615,-4.4615,-4.4615,-4.4615,-4.4615,-4.4615,-4.4615,-4.4615,-4.5331,-4.6075,-4.6802,-4.7564,-4.8308,-4.7787,-4.8308,-4.8765,-4.8951,-4.9407,-5.0067,-5.0997,-5.164,-5.2181,-5.2773,-5.3365,-5.3907,-5.4279,-5.6292,-5.8203,-5.9133,-6.0875,-6.2178,-6.2364,-6.2381,-6.2381,-6.2381,-6.2381,-6.2381,-6.2381,-6.2381,-6.2465,-6.2668,-6.3285,-6.3861,-6.4285,-6.5633,-6.6493,-6.6718,-6.7359,-6.7687,-6.7687,-6.504,-6.3073,-6.1777,-5.9372,-5.8633,-5.941,-5.8789,-5.8858,-5.941,-5.8806,-5.8423,-5.8192,-5.8192,-5.8082,-5.7881,-5.7881,-5.7881,-5.7881,-5.7881,-5.7881,-5.7814,-5.7273,-5.6833,-5.6342,-5.5243,-5.4617,-5.4211,-5.367,-5.3501,-5.3331,-5.2536,-5.1775,-5.1048,-5.0287,-4.9543,-4.9001,-4.9001,-4.9001,-4.9001,-4.9001,-4.9001,-4.9001,-4.9001,-4.8379,-4.78,-4.7411,-4.7192,-4.7022,-4.6819,-4.6177,-4.5771,-4.5957,-4.5162,-4.4874,-4.5618,-4.5026,-4.4615,-4.4615,-4.4615,-4.4615,-4.4615,-4.4615,-4.4615,-4.4615,-4.4615,-4.4615,-4.4615,-4.4615,-4.4615,-4.4615,-4.5331,-4.6075,-4.6802,-4.7564,-4.8308,-4.9216,-4.9596,-4.9925,-4.9925,-5.0248,-5.068,-5.1107,-5.1524,-5.1907,-5.2209,-5.2408,-5.2585,-5.2923,-5.5145,-5.7188,-5.7915,-6.0216,-6.2026,-6.2347,-6.2381,-6.2381,-6.2381,-6.2381,-6.2381,-6.2381,-6.2381,-6.2381,-6.2381,-6.2855,-6.3294,-6.3683,-6.465,-6.559,-6.6356,-6.6881,-6.6757,-6.6039,-6.3885,-6.1987,-6.0383,-5.8715,-5.8137,-5.8564,-5.8101,-5.8137,-5.8529,-5.8118,-5.7881,-5.7881,-5.7881,-5.7881,-5.7881,-5.7881,-5.7881,-5.7881,-5.7881,-5.7881,-5.778,-5.7053,-5.6596,-5.6139,-5.4972,-5.438,-5.4042,-5.3636,-5.3501,-5.3331,-5.2536,-5.1775,-5.1048,-5.0287,-4.9543,-4.9001,-4.9001,-4.9001,-4.9001,-4.9001,-4.9001,-4.8815,-4.8156,-4.7699,-4.7192,-4.6447,-4.6312,-4.6312,-4.6312,-4.5686,-4.5213,-4.5213,-4.4869,-4.4874,-4.5618,-4.5026,-4.4615,-4.4615,-4.4615,-4.4615,-4.4615,-4.4615,-4.4615,-4.4615,-4.4615,-4.4615,-4.4615,-4.4615,-4.4767,-4.5077,-4.55,-4.6261,-4.7293,-4.7733,-4.8308,-5.1112,-5.1245,-5.1245,-5.1245,-5.1292,-5.1344,-5.1477,-5.1399,-5.1503,-5.2151,-5.1764,-5.1506,-5.217,-5.4146,-5.5957,-5.6799,-5.9319,-6.1467,-6.2398,-6.2448,-6.2431,-6.2533,-6.2448,-6.2381,-6.2381,-6.2381,-6.2381,-6.2381,-6.2381,-6.2719,-6.3481,-6.3647,-6.4443,-6.6012,-6.6271,-6.5546,-6.3736,-6.3119,-6.1546,-5.915,-5.8287,-5.7881,-5.7881,-5.7881,-5.7881,-5.7881,-5.7881,-5.7881,-5.7881,-5.7881,-5.7881,-5.7881,-5.7881,-5.7881,-5.7881,-5.7881,-5.7881,-5.778,-5.7053,-5.6325,-5.5598,-5.4837,-5.4093,-5.3501,-5.3501,-5.3501,-5.3365,-5.2655,-5.186,-5.1065,-5.0405,-4.9627,-4.9001,-4.9001,-4.9001,-4.9001,-4.9001,-4.8934,-4.8426,-4.6938,-4.665,-4.6413,-4.5686,-4.5551,-4.5551,-4.5551,-4.4993,-4.4615,-4.4615,-4.4615,-4.4869,-4.5483,-4.4976,-4.4615,-4.4615,-4.4615,-4.4615,-4.4615,-4.4615,-4.4615,-4.4615,-4.4615,-4.4615,-4.4615,-4.4615,-4.4891,-4.5551,-4.5652,-4.6413,-4.7753,-4.7838,-4.8308,-5.2254,-5.2086,-5.2086,-5.2086,-5.2059,-5.2189,-5.2878,-5.2466,0.0,-5.2197,-5.2087,-5.2018,-5.2275,-5.4112,-5.6061,-5.7465,-5.9167,-6.1011,-6.304,-6.277,-6.2618,0.0,-6.277,-6.2381,-6.2381,-6.2381,-6.2381,-6.2381,-6.2381,-6.2459,-6.262,-6.3314,-6.3886,-6.4323,-6.5674,-6.5246,-6.2875,-6.2796,-6.1825,-5.9894,-5.8524,-5.7881,-5.7881,-5.7881,-5.7881,-5.7881,-5.7881,-5.7881,-5.7881,-5.7881,-5.7881,-5.7881,-5.7881,-5.7881,-5.7881,-5.7881,-5.7881,-5.778,-5.7053,-5.6325,-5.5598,-5.4837,-5.4093,-5.3501,-5.3501,-5.3501,-5.3467,-5.3331,-5.2283,-5.1183,-5.1048,-5.0016,-4.9001,-4.9001,-4.9001,-4.9001,-4.9001,-4.8528,-4.7635,-4.6177,-4.5889,-4.5652,-4.4936,-4.4801,-4.4801,-4.4801,-4.4682,-4.4615,-4.4615,-4.4615,-4.4649,-4.4784,-4.4682,-4.4615,-4.4615,-4.4615,-4.4615,-4.4615,-4.4615,-4.4615,-4.4615,-4.4615,-4.4615,-4.4615,-4.4615,-4.4666,-4.4801,-4.5399,-4.6143,-4.7005,-4.7631,-4.8308,-5.4116,-5.3719,-5.3478,-5.3917,-5.3372,-5.2837,-5.3264,0.0,0.0,-5.2154,-5.1843,-5.1706,-5.213,-5.3737,-5.527,-5.5994,-5.8052,-6.0047,-6.1535,-6.1789,-6.2093,-6.2837,-6.2618,-6.2381,-6.2381,-6.2381,-6.2381,-6.2381,-6.2381,-6.2381,-6.2381,-6.2879,-6.3153,-6.3219,-6.4074,-6.3524,-6.1467,-6.1527,-6.0687,-5.8947,-5.8237,-5.7881,-5.7881,-5.7881,-5.7881,-5.7881,-5.7881,-5.7881,-5.7881,-5.7881,-5.7881,-5.7881,-5.7881,-5.7881,-5.7881,-5.7881,-5.7881,-5.7831,-5.7492,-5.6647,-5.5649,-5.5294,-5.4414,-5.3501,-5.3501,-5.3501,-5.3416,-5.2993,-5.208,-5.1116,-5.0727,-4.983,-4.9001,-4.9001,-4.9001,-4.9001,-4.9001,-4.8426,-4.7597,-4.6481,-4.5957,-4.5466,-4.4733,-4.4615,-4.4615,-4.4615,-4.4615,-4.4615,-4.4615,-4.4615,-4.4615,-4.4615,-4.4615,-4.4615,-4.4615,-4.4615,-4.4615,-4.4615,-4.4615,-4.4615,-4.4615,-4.4615,-4.4615,-4.4615,-4.4976,-4.5348,-4.5766,-4.6498,-4.7225,-4.7953,-4.8325,-4.8663,-5.5886,-5.539,-5.506,-5.5684,-5.4665,-5.3507,-5.3735,-5.2947,-5.219,-5.2315,-5.1778,-5.1518,-5.2222,-5.337,-5.4398,-5.4896,-5.6969,-5.9001,-6.0415,-6.099,-6.1637,-6.2533,-6.2482,0.0,-6.2381,-6.2381,-6.2381,-6.2381,-6.2381,-6.2381,-6.2381,-6.2484,-6.2479,-6.2324,-6.259,-6.1973,-6.0358,-6.0393,-5.965,-5.8118,-5.7966,-5.7881,-5.7881,-5.7881,-5.7881,-5.7881,-5.7881,-5.7881,-5.7881,-5.7881,-5.7881,-5.7881,-5.7881,-5.7881,-5.7881,-5.7881,-5.7881,-5.7865,-5.7712,-5.6799,-5.5683,-5.553,-5.4583,-5.3501,-5.3501,-5.3501,-5.3365,-5.2739,-5.1911,-5.1082,-5.049,-4.9678,-4.9001,-4.9001,-4.9001,-4.8968,-4.8798,-4.8325,-4.7618,-4.6735,-4.6109,-4.5466,-4.4733,-4.4615,-4.4615,-4.4615,-4.4615,-4.4615,-4.4615,-4.4615,-4.4615,-4.4615,-4.4615,-4.4615,-4.4615,-4.4615,-4.4615,-4.4615,-4.4615,-4.4615,-4.4615,-4.4767,-4.4852,-4.4852,-4.5551,-4.621,-4.6786,-4.7394,-4.8054,-4.8765,-4.8765,-4.8849,-5.6895,-5.6657,-5.6602,-5.6675,-5.5475,-5.4477,-5.5214,0.0,-5.2215,-5.2935,-5.2456,-5.2174,-5.2954,-5.3205,-5.4033,-5.6228,-5.6763,-5.815,-6.1685,-6.1695,-6.1823,-6.3243,0.0,0.0,-6.2381,-6.2381,-6.2381,-6.2381,-6.2381,-6.2381,-6.2381,-6.243,-6.2113,-6.1452,-6.2182,-6.1823,-6.0129,-6.0322,-5.9873,-5.8896,-5.822,-5.7881,-5.7881,-5.7881,-5.7881,-5.7881,-5.7881,-5.7881,-5.7881,-5.7881,-5.7881,-5.7881,-5.7881,-5.7881,-5.7881,-5.7881,-5.7881,-5.7797,-5.712,-5.6376,-5.5598,-5.4921,-5.416,-5.3501,-5.3501,-5.3501,-5.3484,-5.3416,-5.2334,-5.1168,-5.1133,-5.0067,-4.9001,-4.9001,-4.9001,-4.8832,-4.8156,-4.7939,-4.7466,-4.6075,-4.5754,-4.5466,-4.4733,-4.4615,-4.4615,-4.4615,-4.4615,-4.4615,-4.4615,-4.4615,-4.4615,-4.4615,-4.4615,-4.4615,-4.4615,-4.4615,-4.4615,-4.4615,-4.4615,-4.4615,-4.4615,-4.5229,-4.5602,-4.5602,-4.6312,-4.6718,-4.6786,-4.6853,-4.7276,-4.799,-4.799,-4.8376,-5.7483,-5.7171,-5.6932,-5.7409,-5.5959,-5.4473,-5.4803,-5.3757,-5.2674,-5.2509,-5.2619,-5.281,-5.3138,-5.321,-5.3698,-5.515,-5.5385,-5.6403,-5.9339,-5.9475,-5.9963,-6.1933,-6.1894,-6.1907,-6.2347,-6.2381,-6.2381,-6.2381,-6.2381,-6.2381,-6.2381,-6.1975,-6.1383,-6.0605,-6.0492,-6.0101,-5.9438,-5.9062,-5.8723,-5.8338,-5.8034,-5.7881,-5.7881,-5.7881,-5.7881,-5.7881,-5.7881,-5.7881,-5.7881,-5.7881,-5.7881,-5.7881,-5.7881,-5.7881,-5.7881,-5.7881,-5.7881,-5.778,-5.7053,-5.6325,-5.5598,-5.4837,-5.4093,-5.3501,-5.3501,-5.3501,-5.3399,-5.2909,-5.2029,-5.1116,-5.0659,-4.9779,-4.9001,-4.9001,-4.9001,-4.8934,-4.8646,-4.8578,-4.8139,-4.665,-4.6363,-4.5991,-4.4801,-4.4615,-4.4615,-4.4615,-4.4615,-4.4615,-4.4615,-4.4615,-4.4615,-4.4615,-4.4615,-4.4784,-4.5213,-4.4869,-4.4801,-4.5229,-4.4869,-4.4818,-4.5229,-4.5551,-4.5906,-4.6346,-4.709,-4.7462,-4.7462,-4.7902,-4.8274,-4.8578,-4.8578,-4.8731,-5.7483,-5.7409,-5.7299,-5.785,-5.6363,-5.4748,-5.4748,-5.3959,-5.3041,-5.2472,-5.2821,-5.3185,-5.3185,-5.3203,-5.3487,-5.432,-5.4461,-5.5382,-5.7976,-5.8093,-5.877,-6.1066,-6.1118,-6.1247,-6.1992,-6.2262,-6.2381,-6.2381,-6.2381,-6.2296,-6.2076,-6.1586,-6.1044,-6.0469,-5.9522,-5.9015,-5.9015,-5.8271,-5.7881,-5.7881,-5.7881,-5.7881,-5.7881,-5.7881,-5.7881,-5.7881,-5.7881,-5.7881,-5.7881,-5.7881,-5.7881,-5.7881,-5.7881,-5.7881,-5.7881,-5.7881,-5.7746,-5.7459,-5.6731,-5.6004,-5.526,-5.4515,-5.3923,-5.3501,-5.3501,-5.3501,-5.3382,-5.2807,-5.1961,-5.0997,-5.0016,-4.939,-4.9001,-4.9001,-4.9001,-4.9001,-4.9001,-4.9001,-4.8562,-4.709,-4.6786,-4.6312,-4.4852,-4.4615,-4.4615,-4.4615,-4.4615,-4.4615,-4.4615,-4.4615,-4.4615,-4.4615,-4.4801,-4.5128,-4.5669,-4.5213,-4.5229,-4.5974,-4.5111,-4.5038,-4.5991,-4.6024,-4.638,-4.7107,-4.7868,-4.824,-4.824,-4.8748,-4.9001,-4.9001,-4.9001,-4.9001,-5.6822,-5.7391,-5.7997,-5.7997,-5.6767,-5.5574,-5.5574,-5.4344,-5.3185,-5.3185,-5.3185,-5.3185,-5.3185,-5.3203,-5.346,-5.4268,-5.4389,-5.5499,-5.8664,-5.8403,-5.877,-6.1101,-6.066,-6.0436,-6.1231,-6.1958,-6.2381,-6.2381,-6.2381,-6.2076,-6.1349,-6.1298,-6.1298,-6.1298,-5.981,-5.9015,-5.9015,-5.8271,-5.7881,-5.7881,-5.7881,-5.7881,-5.7881,-5.7881,-5.7881,-5.7881,-5.7881,-5.7881,-5.7881,-5.7881,-5.7881,-5.7881,-5.7881,-5.7881,-5.7881,-5.7881,-5.7442,-5.6714,-5.5987,-5.5243,-5.4482,-5.3754,-5.3518,-5.3501,-5.3501,-5.3501,-5.3501,-5.3501,-5.2384,-5.0879,-4.939,-4.9018,-4.9001,-4.9001,-4.9001,-4.9001,-4.9001,-4.9001,-4.8562,-4.709,-4.6786,-4.6312,-4.4852,-4.4615,-4.4615,-4.4615,-4.4615,-4.4615,-4.4615,-4.4615,-4.4615,-4.4615,-4.5246,-4.5703,-4.5703,-4.5703,-4.6007,-4.6735,-4.5427,-4.5275,-4.6718,-4.6786,-4.7141,-4.7855,-4.8612,-4.8984,-4.8984,-4.9001,-4.9001,-4.9001,-4.9001,-4.9001,-5.5831,-5.6161,-5.6345,-5.6345,-5.5556,-5.4638,-5.4087,-5.3573,-5.3041,-5.2491,-5.2821,-5.3185,-5.3185,-5.3185,-5.3647,-5.4987,-5.4804,-5.5371,-5.798,-5.8092,-5.8565,-6.0359,-6.1237,-6.1772,-6.2026,-6.2245,-6.2381,-6.2381,-6.2381,-6.2076,-6.1349,-6.0791,-6.0486,-6.0486,-5.9539,-5.9015,-5.9015,-5.8271,-5.7881,-5.7881,-5.7881,-5.7881,-5.7881,-5.7881,-5.7881,-5.7881,-5.7881,-5.7881,-5.7881,-5.7881,-5.7881,-5.7831,-5.734,-5.7459,-5.7831,-5.7323,-5.7002,-5.6697,-5.597,-5.5226,-5.4465,-5.3737,-5.3501,-5.3399,-5.2858,-5.3061,-5.3281,-5.2232,-5.1217,-5.0219,-4.9255,-4.9001,-4.9001,-4.9001,-4.9001,-4.9001,-4.9001,-4.9001,-4.8562,-4.709,-4.6786,-4.6312,-4.4852,-4.4615,-4.4615,-4.4615,-4.4615,-4.4615,-4.4615,-4.4615,-4.4615,-4.4615,-4.5703,-4.6447,-4.6447,-4.6447,-4.6549,-4.6786,-4.5889,-4.5788,-4.6752,-4.6786,-4.7378,-4.8646,-4.8883,-4.9001,-4.9001,-4.9001,-4.9001,-4.9001,-4.9001,-4.9001,-5.4978,-5.5354,-5.5614,-5.5614,-5.4987,-5.4271,-5.3775,-5.3427,-5.3078,-5.2564,-5.2858,-5.3185,-5.3185,-5.3185,-5.3537,-5.4528,-5.4571,-5.522,-5.7249,-5.7497,-5.8062,-5.9577,-6.0792,-6.1637,-6.1958,-6.2229,-6.2279,-6.2009,-6.1975,-6.1653,-6.0892,-6.0114,-5.9691,-5.9691,-5.8981,-5.8592,-5.8592,-5.8118,-5.7881,-5.7881,-5.7881,-5.7881,-5.7881,-5.7881,-5.7881,-5.7881,-5.7881,-5.7881,0.0,-5.7881,-5.7881,-5.7814,-5.7087,-5.707,-5.7391,-5.6664,-5.6207,-5.5902,-5.5446,-5.4803,-5.411,-5.3653,-5.3298,-5.2959,-5.2452,-5.2469,-5.2384,-5.1133,-5.0456,-4.9915,-4.9187,-4.9001,-4.9001,-4.9001,-4.9001,-4.8934,-4.8663,-4.8595,-4.8156,-4.6667,-4.638,-4.5991,-4.4818,-4.4615,-4.4615,-4.4615,-4.4615,-4.4615,-4.4615,-4.4615,-4.4615,-4.4615,-4.5906,-4.6786,-4.6786,-4.7056,-4.7225,-4.7225,-4.6515,-4.6447,-4.7192,-4.7225,-4.7784,-4.8984,-4.9001,-4.9001,-4.9001,-4.9001,-4.9001,-4.9001,-4.9001,-4.9001,0.0,-5.4846,-5.5449,-5.5449,-5.4858,-5.4308,-5.4308,-5.3739,0.0,-5.3185,-5.3185,-5.3185,-5.3185,-5.3185,-5.3203,-5.3277,-5.4018,-5.509,-5.6601,-5.6881,-5.7515,-5.8996,-5.978,-6.0486,-6.1231,-6.1958,-6.2076,-6.1366,-6.1298,-6.0926,-6.0063,-5.9387,-5.8998,-5.893,-5.8254,-5.7881,-5.7881,-5.7881,-5.7881,-5.7881,-5.7881,-5.7881,-5.7881,-5.7881,-5.7881,-5.7881,-5.7881,-5.7881,-5.7881,-5.7881,-5.7865,-5.7746,-5.7002,-5.6731,-5.663,-5.5902,-5.5192,-5.4583,-5.4583,-5.411,-5.3501,-5.3501,-5.2926,-5.2232,-5.2232,-5.1725,-5.0997,-5.0287,-5.005,-4.9847,-4.9187,-4.9001,-4.9001,-4.9001,-4.9001,-4.8798,-4.8041,-4.7889,-4.7449,-4.5991,-4.5703,-4.5466,-4.4733,-4.4649,-4.4682,-4.4682,-4.4733,-4.475,-4.4699,-4.4682,-4.4682,-4.4682,-4.594,-4.6802,-4.687,-4.7564,-4.7939,-4.7889,-4.7259,-4.7192,-4.7855,-4.7889,-4.8257,-4.8984,-4.9001,-4.9001,-4.9001,-4.9001,-4.9001,-4.9001,-4.9001,-4.9001,-5.2828,0.0,-5.3775,-5.3775,-5.3628,-5.3482,0.0,-5.3332,-5.3185,-5.3185,-5.3185,-5.3185,-5.3185,-5.3185,-5.3387,-5.4014,-5.4822,-5.5676,-5.6652,-5.7802,-5.9115,-6.0649,-6.0955,-6.1095,-6.1281,-6.1958,-6.2076,-6.1366,-6.1298,-6.0706,-5.9336,-5.9099,-5.8744,-5.8169,-5.7983,-5.7881,-5.7881,-5.7881,-5.7881,-5.7881,-5.7881,-5.7881,-5.7881,-5.7881,-5.7881,-5.7881,-5.7881,-5.7881,-5.7881,-5.7881,-5.756,-5.6985,-5.6258,-5.597,-5.5886,-5.5124,-5.4735,-5.4583,-5.4583,-5.411,-5.3501,-5.3501,-5.257,-5.1471,-5.1471,-5.0947,-5.0321,-5.0135,-4.9678,-4.9221,-4.9035,-4.9001,-4.9001,-4.9001,-4.9001,-4.8798,-4.8041,-4.7889,-4.7449,-4.5991,-4.5703,-4.5466,-4.4733,-4.506,-4.5449,-4.5449,-4.5923,-4.6075,-4.5517,-4.5449,-4.5449,-4.5449,-4.6244,-4.7022,-4.7597,-4.8325,-4.8511,-4.7922,-4.772,-4.7733,-4.7889,-4.7889,-4.8257,-4.8984,-4.9001,-4.9001,-4.9001,-4.9001,-4.9001,-4.9001,-4.9001,-4.9001,-5.2205,-5.2494,-5.2656,-5.2656,-5.2931,-5.3185,-5.3185,-5.2913,-5.2656,-5.2656,0.0,-5.2215,-5.2582,-5.2656,-5.2913,-5.372,-5.4821,-5.6002,-5.7181,-5.7747,-5.8597,-6.0122,-6.0262,-6.0385,-6.0723,-6.1112,-6.1044,-6.03,-6.025,-5.9742,-5.8558,-5.8507,-5.8304,-5.7898,-5.7881,-5.7881,-5.7881,-5.7881,-5.7881,-5.7881,-5.7881,-5.7881,-5.7881,-5.7881,-5.7881,-5.7881,-5.7881,-5.7881,-5.7881,-5.7881,-5.7459,-5.6731,-5.6004,-5.5497,-5.5108,-5.4363,-5.4093,-5.4093,-5.4093,-5.3822,-5.3501,-5.3501,-5.2469,-5.1185,-5.1185,-5.0456,-4.9593,-4.9593,-4.9306,-4.9001,-4.9001,-4.9001,-4.9001,-4.9001,-4.9001,-4.8798,-4.8041,-4.7889,-4.7449,-4.5991,-4.5703,-4.5568,-4.5162,-4.5432,-4.5821,-4.616,-4.6532,-4.665,-4.6261,-4.621,-4.621,-4.621,-4.687,-4.7479,-4.7855,-4.8595,-4.8697,-4.7939,-4.824,-4.8257,-4.7906,-4.821,-4.8595,-4.9001,-4.9001,-4.9001,-4.9001,-4.9001,-4.9001,-4.9001,-4.9001,-4.9001,-5.1949,-5.2041,-5.2061,-5.1997,-5.2601,-5.3185,-5.3185,0.0,0.0,0.0,0.0,-5.1041,-5.1848,-5.2087,-5.2454,-5.3261,-5.484,-5.6472,-5.7978,-5.7617,-5.7613,-5.888,-5.9004,-5.9252,-5.9877,-6.003,-5.9793,-5.9066,-5.9015,-5.8693,-5.7932,-5.7881,-5.7881,-5.7881,-5.7881,-5.7881,-5.7881,-5.7881,-5.7881,-5.7881,-5.7881,-5.7881,-5.7881,-5.7881,-5.7881,-5.7881,-5.7881,-5.7881,-5.7881,-5.7881,-5.7391,-5.6579,-5.5953,-5.5192,-5.4346,-5.3737,-5.3501,-5.3501,-5.3501,-5.3501,-5.3484,-5.3365,-5.2367,-5.1168,-5.1082,-5.0084,-4.9001,-4.9001,-4.9001,-4.9001,-4.9001,-4.9001,-4.9001,-4.9001,-4.9001,-4.8798,-4.8041,-4.7889,-4.7483,-4.6143,-4.5872,-4.5872,-4.5872,-4.5974,-4.6261,-4.687,-4.7056,-4.709,-4.6972,-4.6972,-4.6972,-4.6972,-4.753,-4.7939,-4.8041,-4.8646,-4.8731,-4.8122,-4.8663,-4.8731,-4.8075,-4.868,-4.9001,-4.9001,-4.9001,-4.9001,-4.9001,-4.9001,-4.9001,-4.9001,-4.9001,-4.9001,-5.1706,-5.2211,-5.2363,-5.2081,-5.2601,-5.3185,-5.3185,-5.2582,0.0,0.0,0.0,0.0,0.0,-5.2564,-5.328,-5.4087,-5.6143,-5.7977,-5.8889,-5.8911,-5.8916,-5.9132,-5.9049,-5.9049,-5.9167,-5.9742,-5.9793,-5.9066,-5.9015,-5.8693,-5.7932,-5.7881,-5.7881,-5.7881,-5.7881,-5.7881,-5.7881,-5.7881,-5.7881,-5.7881,-5.7881,-5.7881,-5.7881,-5.7881,-5.7881,-5.7881,-5.7881,-5.7881,-5.7881,-5.7881,-5.7103,-5.5869,-5.575,-5.4888,-5.3653,-5.3551,-5.3501,-5.3501,-5.3501,-5.3501,-5.3399,-5.2706,-5.1911,-5.1067,-5.0456,-4.9678,-4.9001,-4.9001,-4.9001,-4.9001,-4.9001,-4.9001,-4.9001,-4.9001,-4.9001,-4.8798,-4.8041,-4.7889,-4.7665,-4.6802,-4.6616,-4.6616,-4.6616,-4.7158,-4.7584,-4.7733,-4.8274,-4.8443,-4.7804,-4.775,-4.775,-4.775,-4.7821,-4.8142,-4.8781,-4.8934,-4.8951,-4.8849,-4.8951,-4.8951,-4.8849,-4.8951,-4.9001,-4.9001,-4.9001,-4.9001,-4.9001,-4.9001,-4.9001,-4.9001,-4.9001,-4.9001,-5.1063,-5.1567,-5.1992,-5.2504,-5.3573,-5.4491,-5.4491,-5.3537,0.0,0.0,0.0,0.0,0.0,-5.2968,-5.3904,-5.5996,-5.6948,-5.7822,-5.9041,-5.8817,-5.8542,-5.8512,-5.846,-5.8406,-5.8406,-5.871,-5.8761,-5.844,-5.8406,-5.8254,-5.7898,-5.7881,-5.7881,-5.7881,-5.7881,-5.7881,-5.7881,-5.7881,-5.7881,-5.7881,-5.7881,-5.7881,-5.7881,-5.7881,-5.7881,-5.7881,-5.7881,-5.7881,-5.7865,-5.7459,-5.6681,-5.5683,-5.526,-5.4448,-5.3501,-5.3501,-5.3501,-5.3501,-5.3501,-5.3501,-5.3365,-5.2553,-5.1809,-5.1065,-5.0321,-4.9576,-4.9001,-4.9001,-4.9001,-4.9001,-4.9001,-4.9001,-4.9001,-4.9001,-4.9001,-4.8917,-4.8578,-4.8494,-4.8291,-4.7547,-4.7394,-4.7394,-4.7394,-4.7699,-4.8054,-4.8443,-4.8781,-4.8883,-4.8545,-4.8494,-4.8494,-4.8494,-4.8494,-4.8646,-4.8968,-4.9001,-4.9001,-4.9001,-4.9001,-4.9001,-4.9001,-4.9001,-4.9001,-4.9001,-4.9001,-4.9001,-4.9001,-4.9001,-4.9001,-4.9001,-4.9001,-4.9001,-5.0624,-5.1185,-5.1915,-5.2708,-5.3995,-5.5133,-5.55,-5.4363,-5.3185,-5.3185,0.0,0.0,-5.2692,-5.3537,-5.4913,-5.7574,-5.7996,-5.8276,-5.907,-5.8833,-5.8404,-5.7942,-5.7881,-5.7881,-5.7881,-5.7881,-5.7881,-5.7881,-5.7881,-5.7881,-5.7881,-5.7881,-5.7881,-5.7881,-5.7881,-5.7881,-5.7881,-5.7881,-5.7881,-5.7881,-5.7881,-5.7881,-5.7881,-5.7712,-5.7628,-5.7628,-5.7628,-5.7628,-5.7594,-5.7036,-5.6376,-5.5649,-5.4888,-5.4143,-5.3501,-5.3501,-5.3501,-5.3501,-5.3501,-5.3501,-5.3348,-5.2367,-5.1674,-5.1048,-5.0118,-4.9441,-4.9001,-4.9001,-4.9001,-4.9001,-4.9001,-4.9001,-4.9001,-4.9001,-4.9001,-4.9001,-4.9001,-4.9001,-4.8832,-4.8291,-4.8173,-4.8173,-4.8173,-4.8173,-4.8359,-4.8917,-4.9001,-4.9001,-4.9001,-4.9001,-4.9001,-4.9001,-4.9001,-4.9001,-4.9001,-4.9001,-4.9001,-4.9001,-4.9001,-4.9001,-4.9001,-4.9001,-4.9001,-4.9001,-4.9001,-4.9001,-4.9001,-4.9001,-4.9001,-4.9001,-4.9001,-4.9001,-5.0676,-5.1823,-5.2821,-5.222,-5.2729,-5.3775,-5.5244,-5.4363,-5.3185,-5.3185,-5.2509,-5.194,-5.2068,-5.4528,-5.6859,-5.7831,-5.9845,-6.0773,-5.939,-5.9805,-5.9651,-5.8082,-5.7881,-5.7881,-5.7881,-5.7881,-5.7881,-5.7881,-5.7881,-5.7881,-5.7881,-5.7881,-5.7881,-5.7881,-5.7881,-5.7881,-5.7881,-5.7881,-5.7881,-5.7881,-5.7881,-5.7881,-5.7865,-5.7188,-5.6884,-5.6884,-5.6884,-5.6884,-5.6884,-5.6816,-5.6376,-5.5649,-5.4888,-5.4143,-5.3501,-5.3501,-5.3501,-5.3501,-5.3501,-5.3501,-5.3264,-5.1775,-5.1251,-5.0947,-4.9509,-4.9035,-4.9001,-4.9001,-4.9001,-4.9001,-4.9001,-4.9001,-4.9001,-4.9001,-4.9001,-4.9001,-4.9001,-4.9001,-4.8984,-4.8934,-4.8934,-4.8934,-4.8934,-4.8934,-4.8951,-4.9001,-4.9001,-4.9001,-4.9001,-4.9001,-4.9001,-4.9001,-4.9001,-4.9001,-4.9001,-4.9001,-4.9001,-4.9001,-4.9001,-4.9001,-4.9001,-4.9001,-4.9001,-4.9001,-4.9001,-4.9001,-4.9001,-4.9001,-4.9001,-4.9001,-4.9001,-4.9001,-5.0709,-5.1876,-5.3042,-5.281,-5.3353,-5.4234,-5.5335,-5.5115,-5.484,-5.5354,-5.4803,-5.4234,-5.4234,-5.5647,-5.706,-5.7868,-5.92,-5.9907,-5.9295,-5.9436,-5.9162,-5.8046,-5.7881,-5.7881,-5.7881,-5.7881,-5.7881,-5.7881,-5.7881,-5.7695,-5.7239,-5.7645,-5.7476,-5.6562,-5.6985,-5.7002,-5.6545,-5.6528,-5.6528,-5.6545,-5.7459,-5.7645,-5.7205,-5.6934,-5.6562,-5.6139,-5.6139,-5.6139,-5.6089,-5.5615,-5.526,-5.4938,-5.4194,-5.3754,-5.3501,-5.3501,-5.3501,-5.3501,-5.3501,-5.3501,-5.3264,-5.1708,-5.1185,-5.0898,-4.9458,-4.9001,-4.9001,-4.9001,-4.9001,-4.9001,-4.9001,-4.9001,-4.9001,-4.9001,-4.9001,-4.9001,-4.9001,-4.9001,-4.9001,-4.9001,-4.9001,-4.9001,-4.9001,-4.9001,-4.9001,-4.9001,-4.9001,-4.9001,-4.9001,-4.9001,-4.9001,-4.9001,-4.9001,-4.9001,-4.9001,-4.9001,-4.9001,-4.9001,-4.9001,-4.9001,-4.9001,-4.9001,-4.9001,-4.9001,-4.9001,-4.9001,-4.9001,-4.9001,-4.9001,-4.9001,-4.9001,-4.9001,-5.0724,-5.1782,-5.2891,-5.2843,-5.3628,-5.4601,-5.5409,-5.5614,-5.5831,-5.6638,-5.5959,-5.5299,-5.5559,-5.6253,-5.706,-5.7868,-5.9096,-5.9709,-5.8958,-5.9036,-5.8695,-5.7348,-5.7205,-5.7205,-5.7205,-5.7205,-5.7205,-5.7205,-5.7205,-5.6985,-5.6494,-5.6934,-5.6748,-5.5715,-5.6207,-5.6224,-5.5681,-5.5681,-5.5681,-5.5698,-5.6731,-5.6934,-5.6444,-5.6207,-5.5835,-5.5361,-5.5361,-5.5361,-5.531,-5.4803,-5.4448,-5.4194,-5.3704,-5.3501,-5.3501,-5.3501,-5.3501,-5.3501,-5.3501,-5.3501,-5.3264,-5.1708,-5.1185,-5.0898,-4.9458,-4.9001,-4.9001,-4.9001,-4.9001,-4.9001,-4.9001,-4.9001,-4.9001,-4.9001,-4.9001,-4.9001,-4.9001,-4.9001,-4.9001,-4.9001,-4.9001,-4.9001,-4.9001,-4.9001,-4.9001,-4.9001,-4.9001,-4.9001,-4.9001,-4.9001,-4.9001,-4.9001,-4.9001,-4.9001,-4.9001,-4.9001,-4.9001,-4.9001,-4.9001,-4.9001,-4.9001,-4.9001,-4.9001,-4.9001,-4.9001,-4.912,-4.9357,-4.912,-4.912,-4.934,-4.912,-4.9001,-5.0784,-5.1588,-5.2419,-5.2083,-5.3225,-5.462,-5.5449,-5.5614,-5.5831,-5.6657,-5.5537,-5.4675,-5.5445,-5.6253,-5.706,-5.785,-5.9997,-6.0759,-5.8436,-5.878,-5.838,-5.5994,-5.5681,-5.5681,-5.5681,-5.5681,-5.5681,-5.5681,-5.5681,-5.5681,-5.57,-5.5681,-5.5681,-5.5664,-5.57,-5.57,-5.5664,-5.5664,-5.5664,-5.5664,-5.5664,-5.5664,-5.5647,-5.4921,-5.4583,-5.4583,-5.4583,-5.4583,-5.4583,-5.4583,-5.416,-5.3501,-5.3501,-5.3501,-5.3501,-5.3501,-5.3501,-5.3501,-5.3501,-5.3501,-5.3247,-5.1708,-5.1185,-5.093,-4.9458,-4.9001,-4.9001,-4.9001,-4.9001,-4.9001,-4.9001,-4.9001,-4.9001,-4.9001,-4.9001,-4.9001,-4.9001,-4.9001,-4.9001,-4.9001,-4.9001,-4.9001,-4.9001,-4.9001,-4.9001,-4.9001,-4.9001,-4.9001,-4.9001,-4.9001,-4.9001,-4.9001,-4.9001,-4.9001,-4.9001,-4.9001,-4.9001,-4.9001,-4.9001,-4.9001,-4.9001,-4.9001,-4.9001,-4.9001,-4.9001,-4.9357,-5.0084,-4.9357,-4.9373,-5.005,-4.934,-4.9001,-5.0203,-5.1365,-5.2758,-5.2145,-5.3628,-5.5445,-5.6253,-5.6436,0.0,-5.7483,-5.6822,-5.6161,-5.64,-5.6638,-5.6895,-5.7134,-5.8233,-5.8654,-5.7415,-5.7425,-5.7103,-5.5856,-5.5681,-5.5681,-5.5681,-5.5681,-5.5681,-5.5681,-5.5681,-5.548,-5.4955,-5.5429,-5.5243,-5.4194,-5.4668,-5.4685,-5.4177,-5.416,-5.416,-5.416,-5.416,-5.4431,-5.4921,-5.4685,-5.4313,-5.3822,-5.3822,-5.3822,-5.3822,-5.3822,-5.3704,-5.3501,-5.3501,-5.3501,-5.3501,-5.3501,-5.3501,-5.3501,-5.3501,-5.3129,-5.2503,-5.1539,-5.0862,-5.0253,-4.9289,-4.9001,-4.9001,-4.9001,-4.9001,-4.9001,-4.9001,-4.9001,-4.9001,-4.9001,-4.9001,-4.9001,-4.9001,-4.9001,-4.9001,-4.9001,-4.9001,-4.9001,-4.9001,-4.9001,-4.9001,-4.9001,-4.9001,-4.9001,-4.9001,-4.9001,-4.9001,-4.9001,-4.9001,-4.9001,-4.9001,-4.9001,-4.9001,-4.9001,-4.9001,-4.9001,-4.9001,-4.9001,-4.9001,-4.9001,-4.9001,-4.912,-4.9323,-4.912,-4.912,-4.9323,-4.9103,-4.9001,-5.1565,-5.2536,-5.3591,-5.3465,-5.4748,-5.629,-5.7097,-5.7281,-5.7409,-5.7905,-5.7373,-5.6914,-5.7226,-5.7024,-5.7024,-5.7643,-5.8428,-5.8463,-5.7089,-5.7148,-5.6732,-5.5025,-5.4837,-5.4837,-5.4837,-5.4837,-5.4837,-5.4837,-5.4837,-5.4634,-5.4194,-5.4583,-5.4431,-5.3534,-5.3923,-5.3957,-5.3501,-5.3501,-5.3501,-5.3501,-5.3501,-5.3737,-5.416,-5.416,-5.3923,-5.3501,-5.3501,-5.3501,-5.3501,-5.3501,-5.3501,-5.3501,-5.3501,-5.3501,-5.3501,-5.3501,-5.3298,-5.3027,-5.3027,-5.252,-5.1742,-5.1014,-5.0456,-4.9949,-4.9221,-4.9001,-4.9001,-4.9001,-4.9001,-4.9001,-4.9001,-4.9001,-4.9001,-4.9001,-4.9001,-4.9001,-4.9001,-4.9001,-4.9001,-4.9001,-4.9001,-4.9001,-4.9001,-4.9001,-4.9001,-4.9001,-4.9001,-4.9001,-4.9001,-4.9001,-4.9001,-4.9001,-4.9001,-4.9001,-4.9001,-4.9272,-4.9306,-4.9018,-4.9272,-4.9306,-4.9018,-4.9001,-4.9001,-4.9001,-4.9001,-4.9137,-4.9441,-4.9137,-4.9154,-4.9424,-4.9137,-4.9001,-5.3953,-5.4391,-5.462,-5.5508,-5.6363,-5.7189,-5.785,-5.7997,-5.7997,-5.7997,-5.7428,-5.7134,-5.7868,-5.7409,-5.7428,-5.8946,-5.9758,-5.9454,-5.7288,-5.7575,-5.6894,-5.3954,-5.3534,-5.3501,-5.3501,-5.3501,-5.3501,-5.3501,-5.3501,-5.3501,-5.3501,-5.3501,-5.3501,-5.3501,-5.3501,-5.3501,-5.3501,-5.3501,-5.3501,-5.3501,-5.3501,-5.3501,-5.3501,-5.3501,-5.3501,-5.3501,-5.3501,-5.3501,-5.3501,-5.3501,-5.3501,-5.3501,-5.3501,-5.3467,-5.3399,-5.3399,-5.2892,-5.2198,-5.2198,-5.1725,-5.0997,-5.0321,-5.005,-4.9864,-4.9204,-4.9001,-4.9001,-4.9001,-4.9001,-4.9001,-4.9001,-4.9001,-4.9001,-4.9001,-4.9001,-4.9001,-4.9001,-4.9001,-4.9001,-4.9001,-4.9001,-4.9001,-4.9001,-4.9001,-4.9001,-4.9001,-4.9001,-4.9001,-4.9001,-4.9001,-4.9035,-4.9086,-4.9103,-4.9103,-4.9103,-4.9779,-4.9881,-4.9154,-4.9729,-4.9796,-4.9137,-4.9035,-4.9001,-4.9001,-4.9069,-4.9424,-5.0084,-4.9424,-4.9441,-5.0067,-4.934,-4.9035,-5.3391,-5.3929,-5.4744,-5.6175,-5.7629,-5.8565,-5.8107,-5.7997,-5.7997,-5.7997,-5.785,-5.7795,-5.796,-5.785,-5.807,-5.9038,-5.8822,-5.836,-5.7916,-5.6916,-5.5766,-5.4502,-5.3865,-5.3501,-5.3501,-5.3501,-5.3501,-5.3501,-5.3501,-5.3501,-5.3501,-5.3501,-5.3501,-5.3501,-5.3501,-5.3501,-5.3501,-5.3501,-5.3501,-5.3501,-5.3501,-5.3501,-5.3501,-5.3501,-5.3501,-5.3501,-5.3501,-5.3501,-5.3501,-5.3501,-5.3501,-5.3501,-5.3501,-5.3112,-5.2553,-5.2553,-5.2097,-5.1454,-5.1454,-5.0963,-5.0304,-5.0135,-4.9712,-4.9204,-4.9052,-4.9001,-4.9001,-4.9001,-4.9001,-4.9001,-4.9001,-4.9001,-4.9001,-4.9001,-4.9001,-4.9001,-4.9001,-4.9001,-4.9001,-4.9001,-4.9001,-4.9001,-4.9001,-4.9001,-4.9001,-4.9001,-4.9001,-4.9001,-4.9001,-4.9001,-4.9221,-4.9796,-4.9847,-4.9847,-4.9847,-5.0541,-5.0659,-4.9898,-4.9999,-5.0016,-4.9864,-4.9306,-4.9001,-4.9001,-4.956,-4.9932,-5.0084,-4.9932,-4.9932,-5.0067,-4.934,-4.9306,-5.4133,-5.4815,-5.5679,-5.7501,-5.8309,-5.8621,-5.8584,-5.829,-5.7997,-5.7997,-5.7997,-5.7997,-5.7997,-5.7997,-5.8253,-5.9056,-5.8859,-5.8324,-5.764,-5.6804,-5.5742,-5.4269,-5.3717,-5.3501,-5.3501,-5.3501,-5.3348,-5.2959,-5.3281,-5.3331,-5.2959,-5.3298,-5.3501,-5.3501,-5.3501,-5.3501,-5.3501,-5.3501,-5.3501,-5.3501,-5.3501,-5.3501,-5.3501,-5.3501,-5.3501,-5.3501,-5.3501,-5.3501,-5.3501,-5.3501,-5.3501,-5.3467,-5.3078,-5.2672,-5.2266,-5.1911,-5.1319,-5.0676,-5.0676,-5.0185,-4.956,-4.956,-4.9306,-4.9001,-4.9001,-4.9001,-4.9001,-4.9001,-4.9001,-4.9001,-4.9001,-4.9001,-4.9001,-4.9001,-4.9001,-4.9001,-4.9001,-4.9001,-4.9001,-4.9001,-4.9001,-4.9001,-4.9001,-4.9001,-4.9001,-4.9001,-4.9001,-4.9001,-4.9001,-4.9001,-4.9272,-5.0016,-5.0084,-5.0084,-5.0084,-5.1099,-5.1268,-5.0152,-5.0422,-5.0642,-5.0642,-4.9576,-4.9001,-4.9001,-4.9712,-4.9915,-4.956,-4.9915,-4.9915,-4.956,-4.9187,-4.9407,-5.5049,-5.6083,-5.7024,-5.8754,-5.8712,-5.8382,-5.9038,-5.8584,-5.7997,-5.7997,-5.7997,-5.7997,-5.7997,-5.7997,-5.8253,-5.9056,-5.9074,-5.8586,-5.7449,-5.6951,-5.5994,-5.4095,-5.3634,-5.3501,-5.3501,-5.3382,-5.3027,-5.235,-5.2926,-5.301,-5.2334,-5.3061,-5.3501,-5.3501,-5.3501,-5.3501,-5.3501,-5.3501,-5.3501,-5.3501,-5.3501,-5.3501,-5.3501,-5.3501,-5.3501,-5.3501,-5.3501,-5.3501,-5.3501,-5.3501,-5.3416,-5.323,-5.2553,-5.2147,-5.186,-5.1251,-5.0541,-4.9898,-4.9898,-4.9509,-4.9001,-4.9001,-4.9001,-4.9001,-4.9001,-4.9001,-4.9001,-4.9001,-4.9001,-4.9001,-4.9001,-4.9001,-4.9001,-4.9001,-4.9001,-4.9001,-4.9001,-4.9001,-4.9001,-4.9001,-4.9001,-4.9001,-4.9001,-4.9001,-4.9001,-4.9001,-4.9001,-4.9001,-4.9001,-4.9001,-4.9272,-5.0016,-5.0084,-5.0135,-5.027,-5.1403,-5.164,-5.0541,-5.0811,-5.1133,-5.1403,-4.9982,-4.9187,-4.9187,-4.9915,-4.9932,-4.9187,-4.9932,-4.9915,-4.9187,-4.9069,-4.9458,-5.4732,0.0,-5.8436,0.0,-5.9111,-5.9056,-5.9166,-5.8584,-5.7997,-5.7997,-5.7997,-5.7997,-5.7997,-5.7997,-5.8253,-5.9056,-5.8621,-5.8312,-5.8823,-5.7128,-5.5744,-5.5454,-5.4281,-5.3501,-5.3501,-5.2875,-5.2418,-5.2317,-5.2401,-5.2418,-5.2317,-5.3061,-5.3501,-5.3501,-5.3501,-5.3501,-5.3501,-5.3501,-5.3501,-5.3501,-5.3501,-5.3501,-5.3501,-5.3501,-5.3501,-5.3501,-5.3501,-5.3501,-5.3501,-5.3501,-5.3095,-5.2452,-5.2334,-5.1522,-5.0371,-5.027,-4.9779,-4.9154,-4.9154,-4.9086,-4.9001,-4.9001,-4.9001,-4.9001,-4.9001,-4.9001,-4.9001,-4.9001,-4.9001,-4.9001,-4.9001,-4.9001,-4.9001,-4.9001,-4.9001,-4.9001,-4.9001,-4.9001,-4.9001,-4.9001,-4.9001,-4.9001,-4.9001,-4.9001,-4.9001,-4.9001,-4.9001,-4.9001,-4.9001,-4.9001,-4.9272,-5.0016,-5.0084,-5.0355,-5.1014,-5.1251,-5.1555,-5.1978,-5.0896,-5.0811,-5.2097,-5.0727,-4.9949,-4.9949,-5.0676,-5.0693,-4.9949,-5.0693,-5.0676,-4.9932,-4.9306,-4.9746,-5.4824,-5.6604,-5.825,0.0,-5.9189,-5.8767,-5.9685,-5.8896,-5.7997,-5.7997,-5.7997,-5.7997,-5.7997,-5.7997,-5.8125,-5.8474,-5.8235,-5.799,-5.7916,-5.6618,-5.5535,-5.5114,-5.4139,-5.3331,-5.2875,-5.252,-5.1961,-5.1133,-5.1454,-5.1505,-5.1082,-5.2181,-5.2841,-5.2841,-5.3264,-5.3501,-5.3501,-5.3501,-5.3501,-5.3501,-5.3501,-5.3501,-5.3501,-5.3501,-5.3501,-5.3501,-5.3501,-5.3247,-5.2841,-5.2841,-5.2384,-5.1657,-5.1234,-5.0659,-5.0033,-4.9644,-4.9272,-4.9001,-4.9001,-4.9001,-4.9001,-4.9001,-4.9001,-4.9001,-4.9001,-4.9001,-4.9001,-4.9001,-4.9001,-4.9001,-4.9001,-4.9001,-4.9001,-4.9001,-4.9001,-4.9001,-4.9001,-4.9001,-4.9001,-4.9001,-4.9001,-4.9001,-4.9001,-4.9001,-4.9001,-4.9001,-4.9001,-4.9001,-4.9001,-4.9357,-4.9898,-5.0642,-5.0727,-5.0862,-5.1183,-5.1185,-5.1166,-5.1065,-5.0845,-5.12,-5.2266,-5.0879,-5.0287,-5.071,-5.1048,-5.0642,-4.9492,-5.0219,-5.0202,-4.9475,-4.9154,-4.9796,-5.4798,-5.6107,-5.7303,-5.9409,-5.8882,-5.8252,-5.9745,-5.9006,-5.7997,-5.7997,-5.7997,-5.7997,-5.7997,-5.7997,-5.807,-5.8272,-5.8125,-5.7889,-5.7531,-5.6644,-5.5724,-5.4952,-5.4249,-5.3479,-5.2688,-5.2249,-5.1572,-5.0456,-5.0727,-5.0676,-5.0118,-5.1319,-5.2114,-5.23,-5.2892,-5.3298,-5.3501,-5.3501,-5.3501,-5.3501,-5.3501,-5.3399,-5.3196,-5.3196,-5.3095,-5.2942,-5.3112,-5.2858,-5.2283,-5.2097,-5.1589,-5.0879,-5.0304,-4.9982,-4.9746,-4.9204,-4.9001,-4.9001,-4.9001,-4.9001,-4.9001,-4.9001,-4.9001,-4.9001,-4.9001,-4.9001,-4.9001,-4.9001,-4.9001,-4.9001,-4.9001,-4.9001,-4.9001,-4.9001,-4.9001,-4.9001,-4.9001,-4.9001,-4.9001,-4.9001,-4.9001,-4.9001,-4.9001,-4.9001,-4.9001,-4.9001,-4.9001,-4.9001,-4.9001,-4.9644,-5.0304,-5.0862,-5.093,-5.1014,-5.1168,-5.1048,-5.0862,-5.0659,-5.1014,-5.164,-5.257,-5.1166,-5.0642,-5.12,-5.1185,-5.0574,-4.9272,-5.0016,-4.9999,-4.9272,-4.9086,-4.9796,-5.4466,-5.5083,-5.5704,-5.8106,-5.8053,-5.7763,-5.897,-5.8621,-5.7997,-5.7997,-5.7997,-5.7997,-5.7997,-5.7997,-5.8253,-5.9001,-5.851,-5.823,-5.8972,-5.7799,-5.6545,-5.5752,-5.4982,-5.4247,-5.35,-5.2131,-5.1251,-5.1134,-5.0524,-5.0135,-5.0084,-5.0845,-5.1589,-5.2283,-5.2334,-5.2739,-5.3501,-5.3501,-5.3501,-5.3501,-5.3501,-5.3112,-5.2367,-5.2367,-5.1995,-5.1369,-5.2063,-5.2334,-5.2249,-5.1555,-5.0828,-5.0135,-5.0101,-4.9661,-4.9052,-4.9018,-4.9001,-4.9001,-4.9001,-4.9001,-4.9001,-4.9001,-4.9001,-4.9001,-4.9001,-4.9001,-4.9001,-4.9001,-4.9001,-4.9001,-4.9001,-4.9001,-4.9001,-4.9001,-4.9001,-4.9001,-4.9001,-4.9001,-4.9001,-4.9001,-4.9001,-4.9001,-4.9001,-4.9001,-4.9001,-4.9001,-4.9001,-4.9001,-4.9001,-4.9644,-5.0101,-5.0135,-5.0152,-5.0439,-5.115,-5.0557,-5.0727,-5.2097,-5.1589,-5.1877,-5.3382,-5.1978,-5.1151,-5.1185,-5.1185,-5.0828,-5.0033,-5.0794,-5.076,-5.0016,-4.9323,-4.9796,-5.3124,-5.4177,-5.5385,-5.705,-5.7416,-5.7663,-5.8588,-5.8375,-5.7997,-5.7997,-5.7997,-5.7997,-5.7997,-5.7997,-5.8253,-5.9056,-5.8946,-5.8877,-5.9148,-5.8321,-5.7173,-5.5862,-5.5042,-5.4121,-5.2873,-5.1809,-5.1014,-5.0524,-4.9813,-4.939,-4.939,-5.0084,-5.0828,-5.1589,-5.1606,-5.1961,-5.2723,-5.3247,-5.3501,-5.3501,-5.2976,-5.2587,-5.2283,-5.1809,-5.1471,-5.12,-5.098,-5.0879,-5.0862,-5.0591,-5.0067,-4.939,-4.939,-4.9238,-4.9001,-4.9001,-4.9001,-4.9001,-4.9001,-4.9001,-4.9001,-4.9001,-4.9001,-4.9001,-4.9001,-4.9001,-4.9001,-4.9001,-4.9001,-4.912,-4.9576,-4.9712,-4.9712,-4.9712,-4.934,-4.9137,-4.9593,-4.9323,-4.9001,-4.9001,-4.9001,-4.9001,-4.9001,-4.9001,-4.9001,-4.9001,-4.9001,-4.9001,-4.9001,-5.0067,-5.0811,-5.0811,-5.1234,-5.1437,-5.1202,-5.098,-5.0828,-5.0879,-5.1539,-5.1944,-5.2029,-5.1472,-5.0997,-5.0507,-5.098,-5.0845,-5.0084,-5.0371,-5.0608,-5.0794,-5.005,-5.049,-5.215,-5.3116,0.0,0.0,-5.6608,-5.6948,-5.8325,-5.8217,-5.7836,-5.7969,-5.7997,-5.7997,-5.7997,-5.8217,-5.8676,-5.9483,-5.9588,-5.9588,-5.9588,-5.8957,-5.7882,-5.6276,-5.5437,-5.4474,-5.3195,-5.2158,-5.1268,-5.0524,-4.9779,-4.9255,-4.9018,-4.9458,-5.0067,-5.0811,-5.1319,-5.1809,-5.23,-5.2841,-5.323,-5.3501,-5.2689,-5.2181,-5.1911,-5.1183,-5.071,-5.0439,-4.9932,-4.9864,-5.0067,-4.9813,-4.9441,-4.9001,-4.9001,-4.9001,-4.9001,-4.9001,-4.9001,-4.9001,-4.9001,-4.9001,-4.9001,-4.9001,-4.9001,-4.9001,-4.9001,-4.9001,-4.9052,-4.9306,-4.9373,-4.9543,-5.027,-5.0287,-5.0152,-5.0405,-4.9915,-4.9576,-5.0304,-4.9881,-4.9373,-4.9373,-4.9373,-4.9289,-4.9035,-4.9204,-4.9373,-4.9373,-4.9373,-4.9373,-4.9373,-5.0456,-5.1185,-5.1185,-5.186,-5.2097,-5.1623,-5.1589,-5.1369,-5.0862,-5.2012,-5.2486,-5.2012,-5.1472,-5.1099,-5.0828,-5.1082,-5.1082,-5.0828,-5.0828,-5.1099,-5.1555,-5.0811,-5.1133,0.0,0.0,0.0,-5.544,-5.5557,-5.5597,-5.8015,-5.7929,-5.745,-5.7872,-5.796,-5.796,-5.7997,-5.8694,-5.9478,-6.0272,-6.0419,-6.0438,-6.0438,-5.9753,-5.8695,-5.7116,-5.6222,-5.5425,-5.4665,-5.3212,-5.1995,-5.1268,-5.0524,-4.9779,-4.9035,-4.9018,-4.9357,-5.0033,-5.1505,-5.2266,-5.2232,-5.2266,-5.2655,-5.3433,-5.2621,-5.186,-5.115,-5.0405,-4.9678,-4.9001,-4.9001,-4.9407,-4.9999,-4.9306,-4.9001,-4.9001,-4.9001,-4.9001,-4.9001,-4.9001,-4.9001,-4.9001,-4.9001,-4.9001,-4.9001,-4.9001,-4.9001,-4.9001,-4.9001,-4.9001,-4.9154,-4.9881,-5.0084,-5.027,-5.1048,-5.071,-5.0338,-5.1065,-5.0676,-5.0321,-5.1082,-5.0676,-5.0152,-5.0135,-5.0118,-4.9898,-4.9187,-4.9661,-5.0118,-5.0118,-5.0118,-5.0118,-5.0118,-5.0777,-5.1219,-5.1219,-5.1894,-5.2317,-5.2266,-5.2283,-5.2283,-5.2266,-5.3027,-5.3467,-5.3467,-5.2046,-5.1572,-5.2249,-5.1606,-5.1589,-5.23,-5.23,-5.2317,-5.2317,-5.1606,-5.1657,-5.0971,0.0,0.0,0.0,0.0,0.0,-5.5369,-5.5622,-5.5945,-5.6934,-5.7134,-5.7317,-5.7886,-5.9134,-6.0144,-6.0364,-6.0896,-6.1263,-6.1263,-6.108,-6.0164,-5.8027,-5.7053,-5.6036,-5.4734,-5.3212,-5.1995,-5.1268,-5.0524,-4.9779,-4.9035,-4.9509,-4.9644,-4.9306,-5.0744,-5.1251,-5.071,-5.1251,-5.164,-5.1843,-5.1065,-5.0591,-5.0371,-4.9644,-4.9187,-4.9001,-4.9001,-4.912,-4.9289,-4.9086,-4.9001,-4.9001,-4.9001,-4.9001,-4.9001,-4.9001,-4.9001,-4.9001,-4.9001,-4.9001,-4.9001,-4.9001,-4.9001,-4.9001,-4.9001,-4.9001,-4.9154,-4.9881,-5.0084,-5.0388,-5.1674,-5.1843,-5.1742,-5.1944,-5.1437,-5.1116,-5.1843,-5.1843,-5.1522,-5.1014,-5.0913,-5.0845,-5.0642,-5.0777,-5.0913,-5.0913,-5.0913,-5.0913,-5.0913,-5.1539,-5.1995,-5.1995,-5.2706,-5.2723,-5.1606,-5.1995,-5.208,-5.1555,-5.2215,-5.2638,-5.2638,-5.2232,-5.1843,-5.1522,-5.1843,-5.2097,-5.23,-5.23,-5.2604,-5.3162,-5.2959,-5.2976,-5.0712,-5.1029,-5.1568,-5.2269,0.0,0.0,-5.5073,-5.5348,-5.564,-5.7033,-5.7299,-5.7446,-5.7905,-5.9043,-6.0015,-6.0346,-6.108,-6.1594,-6.1594,-6.1594,-6.0976,-5.9245,-5.8086,-5.6923,-5.5674,-5.4156,-5.2807,-5.1758,-5.098,-5.0101,-4.9069,-4.9695,-4.9763,-4.9018,-5.0135,-5.0541,-5.0084,-5.0524,-5.0913,-5.12,-5.0439,-5.0084,-5.0067,-4.934,-4.9001,-4.9001,-4.9001,-4.9001,-4.9001,-4.9001,-4.9001,-4.9001,-4.9001,-4.9001,-4.9001,-4.9001,-4.9001,-4.9001,-4.9001,-4.9001,-4.9001,-4.9001,-4.9001,-4.9001,-4.9001,-4.9001,-4.9154,-4.9881,-5.0524,-5.1285,-5.2486,-5.2553,-5.2384,-5.2723,-5.2232,-5.1877,-5.2638,-5.2807,-5.257,-5.1809,-5.1674,-5.1572,-5.1236,-5.1471,-5.1674,-5.1674,-5.142,-5.1319,-5.164,-5.1775,-5.1961,-5.2266,-5.2723,-5.2638,-5.1742,-5.1775,-5.1792,-5.1674,-5.2063,-5.2452,-5.279,-5.2486,-5.2266,-5.2164,-5.2249,-5.2469,-5.2807,-5.2807,-5.3044,-5.3501,-5.3501,-5.3501,-5.0721,-5.0712,-5.1058,-5.2549,-5.2337,0.0,-5.5583,-5.5748,-5.5703,-5.727,-5.7681,-5.7751,-5.7798,-5.8474,-5.9223,-5.9887,-6.075,-6.1429,-6.1686,-6.1722,-6.1429,-6.0639,-5.9231,-5.8018,-5.7127,-5.5643,-5.411,-5.2536,-5.1674,-5.0608,-4.9204,-4.9729,-4.9763,-4.9018,-4.9644,-4.9965,-4.9965,-4.9965,-5.0304,-5.0963,-5.0287,-4.9965,-4.9949,-4.9306,-4.9001,-4.9001,-4.9001,-4.9001,-4.9001,-4.9001,-4.9001,-4.9001,-4.9001,-4.9001,-4.9001,-4.9001,-4.9001,-4.9001,-4.9001,-4.9001,-4.9001,-4.9001,-4.9001,-4.9001,-4.9001,-4.9001,-4.9171,-4.9982,-5.1234,-5.2486,-5.3298,-5.2976,-5.2604,-5.3331,-5.2959,-5.2638,-5.3348,-5.3501,-5.3298,-5.257,-5.2435,-5.2232,-5.1589,-5.1944,-5.23,-5.23,-5.1674,-5.1454,-5.2097,-5.1691,-5.1555,-5.2131,-5.2249,-5.2232,-5.2063,-5.1454,-5.1403,-5.2131,-5.2181,-5.2587,-5.3467,-5.2807,-5.2773,-5.3501,-5.2807,-5.279,-5.3501,-5.3501,-5.3501,-5.3501,-5.3501,-5.3501,-5.0796,-5.0712,-5.0789,-5.1116,-5.1048,0.0,-5.2171,-5.2808,-5.3542,-5.4835,-5.5669,-5.6237,-5.6509,-5.7208,-5.7693,-5.7532,-5.8707,-6.0364,-6.2291,-6.2585,-6.2273,-6.1465,-6.058,-5.9458,-5.7995,-5.6456,-5.4941,-5.3399,-5.1995,-5.0828,-4.9915,-5.0016,-4.9763,-4.9018,-4.9137,-4.9221,-4.9221,-4.9221,-4.9289,-4.9441,-4.9289,-4.9221,-4.9204,-4.9069,-4.9001,-4.9001,-4.9001,-4.9001,-4.9001,-4.9001,-4.9001,-4.9001,-4.9001,-4.9001,-4.9001,-4.9001,-4.9001,-4.9001,-4.9001,-4.9001,-4.9001,-4.9001,-4.9001,-4.9001,-4.9001,-4.9001,-4.9289,-5.0625,-5.1623,-5.2486,-5.3298,-5.3382,-5.3315,-5.3467,-5.3382,-5.3315,-5.3467,-5.3501,-5.345,-5.3298,-5.3264,-5.323,-5.3078,-5.2638,-5.23,-5.23,-5.1674,-5.1236,-5.142,-5.1809,-5.1911,-5.1471,-5.1961,-5.1826,-5.0625,-5.0388,-5.0625,-5.1386,-5.1388,-5.2046,-5.345,-5.3348,-5.3348,-5.3501,-5.3348,-5.3348,-5.3501,-5.3501,-5.3501,-5.3501,-5.3501,-5.3501,-5.0566,-5.0544,-5.0712,-5.0712,-5.0712,0.0,0.0,-5.2234,-5.2889,-5.4107,-5.4686,-5.5034,-5.5206,-5.5938,-5.65,-5.6504,-5.7842,-5.9249,-6.026,-6.1098,-6.1612,-6.1594,-6.0921,-5.9993,-5.8816,-5.7258,-5.5378,-5.3077,-5.2198,-5.1268,-5.0152,-5.0084,-4.9763,-4.9018,-4.9001,-4.9001,-4.9001,-4.9001,-4.9001,-4.9001,-4.9001,-4.9001,-4.9001,-4.9001,-4.9001,-4.9001,-4.9001,-4.9001,-4.9001,-4.9001,-4.9001,-4.9001,-4.9001,-4.9001,-4.9001,-4.9001,-4.9001,-4.9001,-4.9001,-4.9001,-4.9001,-4.9001,-4.9001,-4.9001,-4.9001,-4.9001,-4.9323,-5.0794,-5.12,-5.1555,-5.3112,-5.3213,-5.301,-5.3399,-5.3501,-5.3399,-5.2993,-5.2909,-5.279,-5.2435,-5.2367,-5.2604,-5.3382,-5.2841,-5.23,-5.23,-5.1369,-5.0794,-5.1134,-5.12,-5.12,-5.1185,-5.12,-5.0896,-5.0152,-4.9763,-5.0016,-5.1117,-5.1185,-5.1911,-5.345,-5.3501,-5.3501,-5.3501,-5.3501,-5.3501,-5.3501,-5.3501,-5.3501,-5.3501,-5.3501,-5.3501,-5.0748,-5.0635,-5.0713,-5.0795,-5.0649,-5.0744,0.0,0.0,0.0,-5.361,-5.3963,-5.4046,-5.3987,-5.4554,-5.5107,-5.5435,-5.6716,-5.7594,-5.7353,-5.8565,-5.9887,-6.1006,-6.069,-6.0114,-5.9342,-5.7561,-5.5361,-5.2721,-5.2384,-5.1775,-5.0574,-5.0388,-4.9965,-4.9238,-4.9069,-4.9001,-4.9001,-4.9001,-4.9001,-4.9001,-4.9001,-4.9001,-4.9001,-4.9001,-4.9001,-4.9001,-4.9001,-4.9001,-4.9001,-4.9001,-4.9001,-4.9001,-4.9001,-4.9001,-4.9001,-4.9001,-4.9001,-4.9001,-4.9001,-4.9001,-4.9001,-4.9001,-4.9001,-4.9001,-4.9001,-4.9103,-4.9492,-5.0813,-5.0879,-5.098,-5.2993,-5.3027,-5.2689,-5.3348,-5.3501,-5.3281,-5.2469,-5.23,-5.208,-5.132,-5.1185,-5.1606,-5.2858,-5.2401,-5.1877,-5.1877,-5.0727,-5.0101,-5.071,-5.0388,-5.027,-5.0744,-5.0507,-5.0253,-5.0101,-4.9678,-4.9999,-5.1352,-5.1388,-5.2046,-5.345,-5.3501,-5.3501,-5.3501,-5.3501,-5.3501,-5.3501,-5.3501,-5.3501,-5.3501,-5.3501,-5.3501,-5.2322,-5.153,-5.0799,-5.1129,-5.0424,-4.9776,-5.0259,0.0,-5.1577,-5.2064,0.0,-5.3219,-5.2857,0.0,0.0,-5.2917,-5.3721,-5.4459,-5.4758,-5.5574,-5.6969,-5.9203,-6.0017,-6.0081,-5.9286,-5.6564,-5.4434,-5.3432,-5.2706,-5.2232,-5.2063,-5.1437,-5.0744,-4.9999,-4.934,-4.9001,-4.9001,-4.9001,-4.9001,-4.9001,-4.9001,-4.9001,-4.9001,-4.9001,-4.9001,-4.9001,-4.9001,-4.9001,-4.9001,-4.9001,-4.9001,-4.9001,-4.9001,-4.9001,-4.9001,-4.9001,-4.9001,-4.9001,-4.9001,-4.9001,-4.9001,-4.9001,-4.9001,-4.9001,-4.9001,-4.9458,-5.0152,-5.098,-5.1623,-5.2266,-5.3247,-5.3433,-5.3399,-5.3484,-5.3501,-5.3281,-5.2469,-5.23,-5.208,-5.132,-5.1185,-5.1268,-5.1454,-5.0845,-5.0338,-5.0338,-4.9644,-4.9171,-4.9238,-4.9746,-4.9864,-4.9323,-5.0355,-5.0811,-5.0152,-5.0625,-5.1319,-5.2131,-5.2181,-5.257,-5.3467,-5.3501,-5.3501,-5.3501,-5.3501,-5.3501,-5.3501,-5.3501,-5.3501,-5.3501,-5.3501,-5.3501,-5.1966,-5.1619,-5.1315,-5.1031,-5.0568,-5.0118,-4.9814,-5.0184,-5.0656,-5.0822,0.0,0.0,0.0,0.0,0.0,0.0,-5.3701,-5.4633,-5.3829,-5.4803,-5.6143,-5.7648,-5.8125,-5.8014,-5.7252,-5.5618,-5.4296,-5.3568,-5.2756,-5.2114,-5.1691,-5.1386,-5.0676,-4.9492,-4.9171,-4.9001,-4.9001,-4.9001,-4.9001,-4.9001,-4.9001,-4.9001,-4.9001,-4.9001,-4.9001,-4.9001,-4.9001,-4.9001,-4.9001,-4.9001,-4.9001,-4.9001,-4.9001,-4.9001,-4.9001,-4.9001,-4.9001,-4.9001,-4.9001,-4.9001,-4.9001,-4.9001,-4.9001,-4.9001,-4.9001,-4.9509,-5.0253,-5.0997,-5.1437,-5.1961,-5.3179,-5.3162,-5.2926,-5.3399,-5.3145,-5.2706,-5.2367,-5.1623,-5.093,-5.0625,-5.0557,-5.0557,-5.0557,-5.0287,-5.0084,-5.0084,-4.9475,-4.9154,-4.9576,-4.9898,-4.9965,-4.9661,-5.0591,-5.0913,-5.0152,-5.0777,-5.1522,-5.2249,-5.2739,-5.3145,-5.3501,-5.3501,-5.3501,-5.3501,-5.3501,-5.3501,-5.3501,-5.3501,-5.3501,-5.3501,-5.3501,-5.3501,-5.2103,-5.1963,-5.1759,-5.108,-5.0641,-5.0218,-4.9498,-4.9731,-5.0128,-5.0234,-5.0765,0.0,0.0,0.0,-5.2989,-5.2367,0.0,-5.4584,-5.3371,-5.4014,-5.4987,-5.6014,-5.6345,-5.6181,-5.5437,-5.4695,-5.4039,-5.3491,-5.2728,-5.2155,-5.186,-5.1454,-5.0727,-4.9644,-4.9221,-4.9001,-4.9001,-4.9001,-4.9001,-4.9001,-4.9001,-4.9001,-4.9001,-4.9001,-4.9001,-4.9001,-4.9001,-4.9001,-4.9001,-4.9001,-4.9001,-4.9001,-4.9001,-4.9001,-4.9001,-4.9001,-4.9001,-4.9001,-4.9001,-4.9001,-4.9001,-4.9001,-4.9001,-4.9035,-4.9238,-4.9813,-5.0557,-5.1302,-5.1674,-5.2097,-5.3213,-5.3078,-5.279,-5.3365,-5.3061,-5.252,-5.2097,-5.1319,-5.0574,-5.0168,-5.0253,-5.0388,-5.0388,-5.0388,-5.0388,-5.0388,-4.9949,-4.9796,-5.0321,-5.0388,-5.0388,-5.0388,-5.1065,-5.1285,-5.0744,-5.1403,-5.2063,-5.2604,-5.3179,-5.3501,-5.3501,-5.3501,-5.3501,-5.3501,-5.3501,-5.3501,-5.3501,-5.3501,-5.3501,-5.3501,-5.3501,-5.3501,-5.3608,-5.2878,-5.1902,-5.1489,-5.0491,-4.9508,-4.9033,-4.9528,-5.0206,-5.0602,-5.1673,-5.2539,-5.2539,-5.2901,-5.3188,-5.3161,-5.3227,0.0,0.0,-5.2564,-5.2692,-5.4289,-5.5152,-5.5345,-5.4621,-5.3814,-5.3359,-5.3394,-5.2715,-5.2619,-5.3382,-5.2029,-5.1168,-5.1117,-4.9746,-4.9001,-4.9001,-4.9001,-4.9001,-4.9001,-4.9001,-4.9001,-4.9001,-4.9001,-4.9001,-4.9001,-4.9001,-4.9001,-4.9001,-4.9001,-4.9001,-4.9001,-4.9001,-4.9001,-4.9001,-4.9001,-4.9001,-4.9001,-4.9001,-4.9001,-4.9001,-4.9001,-4.9001,-4.9137,-4.9847,-5.0591,-5.1336,-5.2063,-5.2841,-5.345,-5.3501,-5.3484,-5.3467,-5.3501,-5.3484,-5.3061,-5.1572,-5.1775,-5.1809,-5.0371,-5.0676,-5.1151,-5.1151,-5.1151,-5.1151,-5.1151,-5.1134,-5.115,-5.1151,-5.1151,-5.1151,-5.1151,-5.1826,-5.2266,-5.2232,-5.2959,-5.345,-5.3467,-5.3501,-5.3501,-5.3501,-5.3501,-5.3501,-5.3501,-5.3501,-5.3501,-5.3501,-5.3501,-5.3501,-5.3501,-5.3501,-5.3501,-5.3359,-5.3113,-5.2624,-5.1962,-5.1089,-5.0219,-4.9528,-4.9748,-5.0143,-5.0277,-5.1284,-5.2138,-5.2138,-5.2951,-5.3421,-5.2821,-5.3482,-5.3853,0.0,-5.2509,-5.2399,-5.3482,-5.4326,-5.4505,-5.3725,-5.3035,-5.2837,-5.3359,-5.2255,-5.1896,-5.2655,-5.1758,-5.0997,-5.049,-4.9509,-4.9001,-4.9001,-4.9001,-4.9001,-4.9001,-4.9001,-4.9001,-4.9001,-4.9001,-4.9001,-4.9001,-4.9001,-4.9001,-4.9001,-4.9001,-4.9001,-4.9001,-4.9001,-4.9001,-4.9001,-4.9001,-4.9001,-4.9001,-4.9001,-4.9001,-4.9001,-4.9001,-4.9323,-4.9678,-4.9441,-5.0574,-5.1894,-5.1657,-5.2503,-5.3501,-5.3501,-5.3112,-5.2706,-5.2706,-5.1961,-5.1234,-5.1217,-5.1014,-5.0828,-5.0828,-5.1437,-5.1944,-5.1944,-5.2384,-5.2384,-5.1337,-5.1185,-5.1403,-5.1877,-5.1944,-5.1944,-5.1944,-5.2638,-5.2892,-5.235,-5.3044,-5.3501,-5.3501,-5.3501,-5.3501,-5.3501,-5.3501,-5.3501,-5.3501,-5.3501,-5.3501,-5.3501,-5.3501,-5.3501,-5.3501,-5.3501,-5.3501,-5.3112,-5.3185,-5.3023,-5.2197,-5.161,-5.1022,-5.0196,-5.0413,-5.0769,-5.0769,-5.1741,-5.2571,-5.2571,-5.3369,-5.3808,-5.3084,-5.3693,-5.3809,0.0,-5.2399,-5.2417,-5.2362,-5.3059,-5.3569,-5.3616,-5.275,-5.264,-5.3707,-5.239,-5.1873,-5.2688,-5.2012,-5.1251,-5.0507,-4.9779,-4.9272,-4.9001,-4.9001,-4.9001,-4.9001,-4.9001,-4.9001,-4.9001,-4.9001,-4.9001,-4.9001,-4.9001,-4.9001,-4.9001,-4.9001,-4.9001,-4.9001,-4.9001,-4.9001,-4.9001,-4.9001,-4.9001,-4.9001,-4.9001,-4.9001,-4.9001,-4.9001,-4.9323,-4.9661,-4.9458,-5.0574,-5.186,-5.1657,-5.252,-5.3501,-5.3501,-5.3129,-5.2739,-5.2739,-5.1995,-5.1352,-5.1555,-5.1437,-5.1369,-5.1555,-5.2215,-5.2739,-5.2739,-5.3162,-5.3162,-5.2181,-5.2029,-5.2198,-5.2672,-5.2739,-5.2739,-5.2739,-5.3196,-5.3298,-5.2773,-5.3213,-5.3501,-5.3501,-5.3501,-5.3501,-5.3501,-5.3501,-5.3501,-5.3501,-5.3501,-5.3501,-5.3501,-5.3501,-5.3501,-5.3501,-5.3501,-5.3501]},{"header":{"parameterUnit":"m.s-1","parameterCategory":1,"la1":30.6,"la2":29.2853,"lo1":-89.7004,"lo2":-87.6739,"dy":0.0162,"dx":0.0183,"nx":112,"ny":82,"refTime":"2026-05-19T12:00:00:Z","depth":0,"parameterNumber":3,"parameterNumberName":"V-component_of_WINDS"},"data":[0.0,0.0,0.0,0.0,0.0,0.0,0.0,0.0,0.0,0.0,0.0,0.0,0.0,0.0,0.0,0.0,0.0,0.0,0.0,0.0,0.0,0.0,0.0,0.0,0.0,0.0,0.0,0.0,0.0,0.0,0.0,0.0,0.0,0.0,0.0,0.0,0.0,0.0,0.0,0.0,0.0,0.0,0.0,0.0,0.0,0.0,0.0,0.0,0.0,0.0,0.0,0.0,0.0,0.0,0.0,0.0,0.0,0.0,0.0,0.0,0.0,0.0,0.0,0.0,0.0,0.0,0.0,0.0,0.0,0.0,0.0,0.0,0.0,0.0,0.0,0.0,0.0,0.0,0.0,0.0,0.0,0.0,0.0,0.0,0.0,0.0,0.0,0.0,0.0,0.0,1.0066,1.029,1.0558,1.0721,1.0721,1.07,0.9916,0.8066,0.0,0.0,0.0,0.0,0.0,0.0,0.0,0.0,0.0,0.0,0.0,0.0,0.0,0.0,0.0,0.0,0.0,0.0,0.0,0.0,0.0,0.0,0.0,0.0,0.0,0.0,0.0,0.0,0.0,0.0,0.0,0.0,0.0,0.0,0.0,0.0,0.0,0.0,0.0,0.0,0.0,0.0,0.0,0.0,0.0,0.0,0.0,0.0,0.0,0.0,0.0,0.0,0.0,0.0,0.0,0.0,0.0,0.0,0.0,0.0,0.0,0.0,0.0,0.0,0.0,0.0,0.0,0.0,0.0,0.0,0.0,0.0,0.0,0.0,0.0,0.0,0.0,0.0,0.0,0.0,0.0,0.0,0.0,0.0,0.0,0.0,0.0,0.0,0.0,0.0,0.0,0.0,0.0,0.0,0.0,0.0,0.0,0.0,0.0,0.0,0.0,0.0,0.0,0.0,0.9876,1.0402,1.0616,1.0721,1.0721,1.0602,1.026,0.948,0.0,0.0,0.0,0.0,0.0,0.0,0.0,0.0,0.0,0.0,0.0,0.0,0.0,0.0,0.0,0.0,0.0,0.0,0.0,0.0,0.0,0.0,0.0,0.0,0.0,0.0,0.0,0.0,0.0,0.0,0.0,0.0,0.0,0.0,0.0,0.0,0.0,0.0,0.0,0.0,0.0,0.0,0.0,0.0,0.0,0.0,0.0,0.0,0.0,0.0,0.0,0.0,0.0,0.0,0.0,0.0,0.0,0.0,0.0,0.0,0.0,0.0,0.0,0.0,0.0,0.0,0.0,0.0,0.0,0.0,0.0,0.0,0.0,0.0,0.0,0.0,0.0,0.0,0.0,0.0,0.0,0.0,0.0,0.0,0.0,0.0,0.0,0.0,0.0,0.0,0.0,0.0,0.0,0.0,0.0,0.0,0.0,0.0,0.0,0.0,0.0,0.0,0.0,0.99,1.0046,1.0561,1.0677,1.0721,1.0721,1.0656,1.0388,0.9856,0.9143,0.0,0.0,0.0,0.0,0.0,0.0,0.0,0.0,0.0,0.0,0.0,0.0,0.0,0.0,0.0,0.0,0.0,0.0,0.0,0.0,0.0,0.0,0.0,0.0,0.0,0.0,0.0,0.0,0.0,0.0,0.0,0.0,0.0,0.0,0.0,0.0,0.0,0.0,0.0,0.0,0.0,0.0,0.0,0.0,0.0,0.0,0.0,0.0,0.0,0.0,0.0,0.0,0.0,0.0,0.0,0.0,0.0,0.0,0.0,0.0,0.0,0.0,0.0,0.0,0.0,0.0,0.0,0.0,0.0,0.0,0.0,0.0,0.0,0.0,0.0,0.0,0.0,0.0,0.0,0.0,0.0,0.0,0.0,0.0,0.0,0.0,0.0,0.0,0.0,0.0,0.0,0.0,0.0,0.0,0.0,0.0,0.0,0.0,0.0,0.0,0.0,0.0,1.0503,1.0778,1.0683,1.0721,1.0721,1.0721,1.0656,1.0388,0.9856,0.9754,0.0,0.0,0.0,0.0,0.0,0.0,0.0,0.0,0.0,0.0,0.0,0.0,0.0,0.0,0.0,0.0,0.0,0.0,0.0,0.0,0.0,0.0,0.0,0.0,0.0,0.0,0.0,0.0,0.0,0.0,0.0,0.0,0.0,0.0,0.0,0.0,0.0,0.0,0.0,0.0,0.0,0.0,0.0,0.0,0.0,0.0,0.0,0.0,0.0,0.0,0.0,0.0,0.0,0.0,0.0,0.0,0.0,0.0,0.0,0.0,0.0,0.0,0.0,0.0,0.0,0.0,0.0,0.0,0.0,0.0,0.0,0.0,0.0,0.0,0.0,0.0,0.0,0.0,0.0,0.0,0.0,0.0,0.0,0.0,0.0,0.0,0.0,0.0,0.0,0.0,0.0,0.0,0.0,0.0,0.0,0.0,0.0,0.0,0.0,0.0,0.0,0.0,1.1714,1.2439,1.0846,1.0721,1.0721,1.0721,1.047,1.0171,0.9842,0.9564,0.0,0.0,0.0,0.0,0.0,0.0,0.0,0.0,0.0,0.0,0.0,0.0,0.0,0.0,0.0,0.0,0.0,0.0,0.0,0.0,0.0,0.0,0.0,0.0,0.0,0.0,0.0,0.0,0.0,0.0,0.0,0.0,0.0,0.0,0.0,0.0,0.0,0.0,0.0,0.0,0.0,0.0,0.0,0.0,0.0,0.0,0.0,0.0,0.0,0.0,0.0,0.0,0.0,0.0,0.0,0.0,0.0,0.0,0.0,0.0,0.0,0.0,0.0,0.0,0.0,0.0,0.0,0.0,0.0,0.0,0.0,0.0,0.0,0.0,0.0,0.0,0.0,0.0,0.0,0.0,0.0,0.0,0.0,0.0,0.0,0.0,0.0,0.0,0.0,0.0,0.0,0.0,0.0,0.0,0.0,0.0,0.0,0.0,0.0,0.0,0.0,0.0,1.3341,1.4468,1.4009,1.2997,1.2347,1.2347,1.1174,1.0243,0.9846,0.0,0.0,0.0,0.0,0.0,0.0,0.0,0.0,0.0,0.0,0.0,0.0,0.0,0.0,0.0,0.0,0.0,0.0,0.0,0.0,0.0,0.0,0.0,0.0,0.0,0.0,0.0,0.0,0.0,0.0,0.0,0.0,0.0,0.0,0.0,0.0,0.0,0.0,0.0,0.0,0.0,0.0,0.0,0.0,0.0,0.0,0.0,0.0,0.0,0.0,0.0,0.0,0.0,0.0,0.0,0.0,0.0,0.0,0.0,0.0,0.0,0.0,0.0,0.0,0.0,0.0,0.0,0.0,0.0,0.0,0.0,0.0,0.0,0.0,0.0,0.0,0.0,0.0,0.0,0.0,0.0,0.0,0.0,0.0,0.0,0.0,0.0,0.0,0.0,0.0,0.0,0.0,0.0,0.0,0.0,0.0,0.0,0.0,0.0,0.0,0.0,0.0,1.3237,1.4983,1.6202,1.5937,1.4814,1.4101,1.4101,1.2789,1.1545,1.0612,0.0,0.0,0.0,0.0,0.0,0.0,0.0,0.0,0.0,0.0,0.0,0.0,0.0,0.0,0.0,0.0,0.0,0.0,0.0,0.0,0.0,0.0,0.0,0.0,0.0,0.0,0.0,0.0,0.0,0.0,0.0,0.0,0.0,0.0,0.0,0.0,0.0,0.0,0.0,0.0,0.0,0.0,0.0,0.0,0.0,0.0,0.0,0.0,0.0,0.0,0.0,0.0,0.0,0.0,0.0,0.0,0.0,0.0,0.0,0.0,0.0,0.0,0.0,0.0,0.0,0.0,0.0,0.0,0.0,0.0,0.0,0.0,0.0,0.0,0.0,0.0,0.0,0.0,0.0,0.0,0.0,0.0,0.0,0.0,0.0,0.0,0.0,0.0,0.0,0.0,0.0,0.0,0.0,0.0,0.0,0.0,0.0,0.0,0.0,0.0,0.0,0.0,1.4811,1.6664,1.7587,1.6087,1.5913,1.5913,1.5913,1.5374,1.42,0.0,0.0,0.0,0.0,0.0,0.0,0.0,0.0,0.0,0.0,0.0,0.0,0.0,0.0,0.0,0.0,0.0,0.0,0.0,0.0,0.0,0.0,0.0,0.0,0.0,0.0,0.0,0.0,0.0,0.0,0.0,0.0,0.0,0.0,0.0,0.0,0.0,0.0,0.0,0.0,0.0,0.0,0.0,0.0,0.0,0.0,0.0,0.0,0.0,0.0,0.0,0.0,0.0,0.0,0.0,0.0,0.0,0.0,0.0,0.0,0.0,0.0,0.0,0.0,0.0,0.0,0.0,0.0,0.0,0.0,0.0,0.0,0.0,0.0,0.0,0.0,0.0,0.0,0.0,0.0,0.0,0.0,0.0,0.0,0.0,0.0,0.0,0.0,0.0,0.0,0.0,0.0,0.0,0.0,0.0,0.0,0.0,0.0,0.0,0.0,0.0,0.0,0.0,1.6569,1.8459,1.9826,1.9579,1.8442,1.7731,1.7731,1.6202,1.4776,1.3654,0.0,0.0,0.0,0.0,0.0,0.0,0.0,0.0,0.0,0.0,0.0,0.0,0.0,0.0,0.0,0.0,0.0,0.0,0.0,0.0,0.0,0.0,0.0,0.0,0.0,0.0,0.0,0.0,0.0,0.0,0.0,0.0,0.0,0.0,0.0,0.0,0.0,0.0,0.0,0.0,0.0,0.0,0.0,0.0,0.0,0.0,0.0,0.0,0.0,0.0,0.0,0.0,0.0,0.0,0.0,0.0,0.0,0.0,0.0,0.0,0.0,0.0,0.0,0.0,0.0,0.0,0.0,0.0,0.0,0.0,0.0,0.0,0.0,0.0,0.0,0.0,0.0,0.0,0.0,0.0,0.0,0.0,0.0,0.0,0.0,0.0,0.0,0.0,0.0,0.0,0.0,0.0,0.0,0.0,0.0,0.0,0.0,0.0,0.0,0.0,0.0,0.0,1.8087,1.9473,2.0655,2.1069,2.0132,1.9546,1.9546,1.8161,1.6673,1.5404,0.0,0.0,0.0,0.0,0.0,0.0,0.0,0.0,0.0,0.0,0.0,0.0,0.0,0.0,0.0,0.0,0.0,0.0,0.0,0.0,0.0,0.0,0.0,0.0,0.0,0.0,0.0,0.0,0.0,0.0,0.0,0.0,0.0,0.0,0.0,0.0,0.0,0.0,0.0,0.0,0.0,0.0,0.0,0.0,0.0,0.0,0.0,0.0,0.0,0.0,0.0,0.0,0.0,0.0,0.0,0.0,0.0,0.0,0.0,0.0,0.0,0.0,0.0,0.0,0.0,0.0,0.0,0.0,0.0,0.0,0.0,0.0,0.0,0.0,0.0,0.0,0.0,0.0,0.0,0.0,0.0,0.0,0.0,0.0,0.0,0.0,0.0,0.0,0.0,0.0,0.0,0.0,0.0,0.0,0.0,0.0,0.0,0.0,0.0,0.0,0.0,0.0,1.9252,1.9873,2.0461,2.1049,2.1109,2.1109,2.1109,2.0575,1.9304,1.7283,0.0,0.0,0.0,0.0,0.0,0.0,0.0,0.0,0.0,0.0,0.0,0.0,0.0,0.0,0.0,0.0,0.0,0.0,0.0,0.0,0.0,0.0,0.0,0.0,0.0,0.0,0.0,0.0,0.0,0.0,0.0,0.0,0.0,0.0,0.0,0.0,0.0,0.0,0.0,0.0,0.0,0.0,0.0,0.0,0.0,0.0,0.0,0.0,0.0,0.0,0.0,0.0,0.0,0.0,0.0,0.0,0.0,0.0,0.0,0.0,1.8116,1.7022,0.0,0.0,0.0,0.0,0.0,0.0,0.0,0.0,0.0,0.0,0.0,0.0,0.0,0.0,0.0,0.0,0.0,0.0,0.0,0.0,0.0,0.0,0.0,0.0,0.0,0.0,0.0,0.0,0.0,0.0,0.0,0.0,0.0,0.0,0.0,0.0,0.0,0.0,0.0,0.0,1.9252,1.9873,2.0461,2.1049,2.1109,2.1109,2.1109,2.0575,1.9734,1.8566,1.6691,0.0,0.0,0.0,0.0,0.0,0.0,0.0,0.0,0.0,0.0,0.0,0.0,0.0,0.0,0.0,0.0,0.0,0.0,0.0,0.0,0.0,0.0,0.0,0.0,0.0,0.0,0.0,0.0,0.0,0.0,0.0,0.0,0.0,0.0,0.0,0.0,0.0,0.0,0.0,0.0,0.0,0.0,0.0,0.0,0.0,0.0,0.0,0.0,0.0,0.0,0.0,0.0,0.0,0.0,0.0,0.0,0.0,0.0,0.0,1.9873,1.8979,0.0,0.0,0.0,0.0,0.0,0.0,0.0,0.0,0.0,0.0,0.0,0.0,0.0,0.0,0.0,0.0,0.0,0.0,0.0,0.0,0.0,0.0,0.0,0.0,0.0,0.0,0.0,0.0,0.0,0.0,0.0,0.0,0.0,0.0,0.0,0.0,0.0,0.0,0.0,0.0,1.9038,1.9666,2.0194,2.0641,2.0688,2.0688,2.0688,2.0281,1.9766,1.9172,1.7618,0.0,0.0,0.0,0.0,0.0,0.0,0.0,0.0,0.0,0.0,0.0,0.0,0.0,0.0,0.0,0.0,0.0,0.0,0.0,0.0,0.0,0.0,0.0,0.0,0.0,0.0,0.0,0.0,0.0,0.0,0.0,0.0,0.0,0.0,0.0,0.0,0.0,0.0,0.0,0.0,0.0,0.0,0.0,0.0,0.0,0.0,0.0,0.0,0.0,0.0,0.0,0.0,0.0,2.1122,2.1263,2.1263,2.1263,2.1263,2.1236,2.0802,2.0528,2.0239,1.8824,0.0,0.0,0.0,0.0,0.0,0.0,0.0,0.0,0.0,0.0,0.0,0.0,0.0,0.0,0.0,0.0,0.0,0.0,0.0,0.0,0.0,0.0,1.8938,1.8704,1.8644,1.8151,1.6386,0.0,0.0,0.0,0.0,0.0,0.0,0.0,0.0,0.0,0.0,0.0,1.8824,1.9432,1.9913,2.0201,2.0173,2.0173,2.0173,1.9967,1.9679,1.9444,1.8564,1.7943,0.0,0.0,0.0,0.0,0.0,0.0,0.0,0.0,0.0,0.0,0.0,0.0,0.0,0.0,0.0,0.0,0.0,0.0,0.0,0.0,0.0,0.0,0.0,0.0,0.0,0.0,0.0,0.0,0.0,0.0,0.0,0.0,1.9599,1.9673,0.0,0.0,0.0,0.0,0.0,0.0,0.0,0.0,0.0,0.0,0.0,0.0,0.0,2.0702,2.0995,2.1289,2.1501,2.1501,2.173,2.1871,2.1871,2.1871,2.1871,2.1877,2.2058,0.0,2.0989,2.076,0.0,0.0,0.0,0.0,0.0,0.0,0.0,0.0,0.0,0.0,0.0,0.0,0.0,0.0,0.0,0.0,0.0,0.0,0.0,0.0,0.0,0.0,1.9299,1.9259,1.931,1.9101,1.8585,1.8,1.7609,1.7488,1.738,1.7233,0.0,0.0,0.0,0.0,0.0,0.0,1.8878,1.9432,1.9913,2.0201,2.0173,2.0173,2.0173,1.9967,1.9679,1.9444,1.8778,1.8176,1.7602,1.728,0.0,0.0,0.0,0.0,0.0,0.0,0.0,0.0,0.0,0.0,0.0,0.0,0.0,0.0,0.0,0.0,0.0,0.0,0.0,0.0,0.0,0.0,0.0,0.0,0.0,0.0,0.0,0.0,0.0,1.9372,1.98,1.98,2.0054,2.0054,0.0,0.0,0.0,0.0,0.0,0.0,0.0,0.0,0.0,2.0702,2.1015,2.1309,2.1597,2.2058,2.2351,2.2358,2.2418,2.2572,2.2732,2.2559,2.2478,2.2485,2.2612,2.2445,2.2071,2.1737,2.1356,2.0942,0.0,0.0,0.0,0.0,2.0347,2.0228,2.0628,2.0621,2.0368,2.0167,0.0,0.0,0.0,0.0,0.0,0.0,0.0,1.8925,1.8925,1.9145,1.9424,1.9424,1.9424,1.939,1.9199,1.8865,1.849,1.8156,1.7989,1.7849,1.7682,1.7427,0.0,0.0,0.0,1.8404,1.8865,1.9292,1.9945,2.0861,2.0993,2.1336,2.2135,2.2123,2.1979,2.1885,2.1486,2.1146,2.0895,2.02,1.974,0.0,0.0,0.0,0.0,0.0,0.0,0.0,0.0,0.0,0.0,0.0,0.0,0.0,0.0,0.0,0.0,0.0,0.0,0.0,0.0,0.0,0.0,0.0,0.0,0.0,0.0,0.0,0.0,1.9853,2.0107,2.0034,2.0414,2.0394,0.0,0.0,0.0,0.0,0.0,0.0,2.0661,2.0474,2.0762,2.165,2.1891,2.2144,2.2438,2.2879,2.306,2.2979,2.2979,2.306,2.32,2.2966,2.2928,2.2928,2.2928,2.2928,2.2887,2.2311,2.1924,2.1702,2.1336,2.1042,2.0822,2.1116,2.1089,2.0969,2.1547,2.1681,2.1547,2.1105,2.1052,2.1051,2.0154,0.0,0.0,0.0,0.0,1.9145,1.9145,1.9259,1.9424,1.9424,1.9424,1.9424,1.9424,1.9424,1.9212,1.8704,1.8604,1.8504,1.8155,1.8095,0.0,1.8144,1.8856,1.9386,1.9464,2.0067,2.0931,2.2032,2.2145,2.2589,2.371,2.3822,2.3822,2.3822,2.3629,2.3494,2.3402,2.2675,2.217,2.1895,0.0,0.0,0.0,0.0,0.0,0.0,0.0,0.0,0.0,0.0,0.0,0.0,0.0,0.0,0.0,0.0,0.0,0.0,0.0,0.0,0.0,0.0,0.0,0.0,0.0,0.0,0.0,0.0,0.0,2.0668,2.1383,0.0,0.0,0.0,0.0,2.0655,2.0889,2.1289,2.1864,2.1884,2.2285,2.3187,2.3227,2.338,2.3681,2.3708,2.3581,2.33,2.33,2.3153,2.2954,2.2941,2.2928,2.2928,2.2928,2.2928,2.2839,2.2525,2.2225,2.1937,2.1708,2.1349,2.1122,2.1423,2.1588,2.1614,2.1857,2.1784,2.1614,2.1581,2.2039,2.261,2.2542,2.2273,0.0,0.0,1.9746,1.9753,1.9753,1.9559,1.9424,1.9424,1.9424,1.9424,1.9424,1.9424,1.9279,1.8958,1.8905,1.8804,1.8517,0.0,2.0073,1.8678,2.1135,2.2589,2.1196,2.2489,2.3599,2.3654,2.371,2.371,2.3766,2.3822,2.3822,2.3822,2.3805,2.3648,2.3411,2.3353,2.2892,2.1903,2.1828,0.0,0.0,0.0,0.0,0.0,0.0,0.0,0.0,0.0,0.0,0.0,0.0,0.0,0.0,0.0,0.0,0.0,0.0,0.0,0.0,0.0,0.0,0.0,0.0,0.0,0.0,0.0,0.0,2.151,2.1797,0.0,2.1142,2.1276,2.143,2.151,2.179,2.2218,2.2812,2.2846,2.308,2.3601,2.3794,2.3848,2.3774,2.3955,2.3901,2.3614,2.342,2.3267,2.3153,2.2953,2.2928,2.2928,2.2928,2.2928,2.2921,2.2746,2.2645,2.2539,2.2506,2.2218,2.1984,2.2285,2.2271,2.2151,2.2452,2.2552,2.2532,2.3168,2.3208,2.3142,2.419,2.429,2.3951,2.3376,2.3208,2.3154,2.2887,2.1997,2.1112,2.0859,2.009,1.9649,2.0587,2.0809,2.1058,2.1887,2.1137,2.0298,2.0183,2.1232,2.2019,2.1713,2.2667,2.3258,2.2879,2.3406,2.4156,2.5151,2.5261,2.5654,2.6617,2.6726,2.6726,2.6726,2.6726,2.6661,2.6576,2.6317,2.5863,2.521,2.4631,2.3484,0.0,0.0,0.0,0.0,0.0,0.0,0.0,0.0,0.0,0.0,0.0,0.0,0.0,0.0,0.0,0.0,0.0,0.0,0.0,0.0,0.0,0.0,0.0,0.0,0.0,2.1699,2.177,2.1964,2.2345,2.2392,2.1891,2.2191,2.2338,2.2432,2.2706,2.3093,2.3601,2.3621,2.3761,2.4055,2.4249,2.4255,2.4062,2.4155,2.4062,2.3768,2.3467,2.3273,2.316,2.2953,2.2928,2.2928,2.2928,2.2928,2.2928,2.2928,2.2928,2.2928,2.2928,2.2739,2.2592,2.2786,2.2739,2.2599,2.2792,2.28,2.2828,2.4043,2.3892,2.3482,2.4553,2.5098,2.5266,2.4741,2.4881,2.5194,2.4903,2.3907,2.2928,2.2653,2.1732,2.1152,2.2145,2.2363,2.2645,2.3599,2.2847,2.203,2.203,2.3097,2.3889,2.3598,2.4405,2.4935,2.462,2.4994,2.5717,2.6717,2.6825,2.7222,2.8237,2.8164,2.8086,2.8086,2.7949,2.7861,2.7861,2.7598,2.7246,2.6816,2.5957,2.4833,2.3438,0.0,0.0,0.0,0.0,0.0,0.0,0.0,0.0,0.0,0.0,0.0,0.0,0.0,0.0,0.0,0.0,0.0,0.0,0.0,0.0,0.0,0.0,0.0,2.3969,2.2772,2.2143,2.2097,2.3122,2.342,2.2559,2.326,2.3654,2.3374,2.3621,2.3915,2.4202,2.4215,2.4342,2.4556,2.4636,2.4636,2.4636,2.4356,2.4068,2.3781,2.3494,2.3187,2.2879,2.2879,2.2941,2.2928,2.2928,2.2928,2.2928,2.2928,2.2928,2.2928,2.2928,2.2928,2.2928,2.2928,2.2928,2.2928,2.2928,2.2485,2.2254,2.397,2.4105,2.3705,2.376,2.484,2.5741,2.4178,2.4656,2.5618,2.5669,2.5153,2.4628,2.4603,2.4215,2.3838,2.3886,2.3877,2.3877,2.3933,2.3933,2.3933,2.3877,2.516,2.5654,2.4156,2.6445,0.0,2.6327,2.7447,2.8291,2.8291,2.8291,2.8291,2.8291,2.791,2.7718,2.7718,2.7256,2.7012,2.7012,2.7012,2.6816,2.6396,2.5518,2.5116,2.5116,0.0,0.0,0.0,0.0,0.0,0.0,0.0,0.0,0.0,0.0,0.0,0.0,0.0,0.0,0.0,0.0,0.0,0.0,0.0,0.0,0.0,2.6644,2.6542,2.6313,2.5081,2.4509,2.5132,2.4115,2.3521,2.3694,2.3748,2.3821,2.3948,2.4042,2.4209,2.4502,2.4516,2.4556,2.4636,2.4636,2.4636,2.4636,2.4556,2.4376,2.4082,2.4001,2.3694,2.32,2.32,2.3073,2.2928,2.2928,2.2928,2.2928,2.2928,2.2928,2.2928,2.2928,2.2928,2.2928,2.2928,2.2928,2.2928,2.2928,2.2612,2.2717,2.5388,2.5952,2.5829,2.6805,2.7391,2.7632,2.7202,2.7305,2.7819,2.8661,2.7958,2.6902,2.6222,2.5206,2.4538,2.5322,2.5489,2.5772,2.6834,2.706,2.6717,2.5654,2.6717,2.7555,2.7114,2.7789,2.8121,2.7726,2.8067,2.8291,2.8291,2.8291,2.8291,2.8291,2.791,2.7718,2.7718,2.7256,2.7012,2.7012,2.7012,2.6816,2.6396,2.5518,2.5116,0.0,0.0,0.0,0.0,0.0,0.0,0.0,0.0,0.0,0.0,0.0,0.0,0.0,0.0,0.0,0.0,0.0,0.0,0.0,0.0,0.0,0.0,2.9211,2.9529,3.0085,2.8004,2.6679,2.7484,2.59,2.4974,2.5543,2.4729,2.4202,2.4376,2.4382,2.4462,2.4556,2.4636,2.4636,2.4636,2.4636,2.4636,2.4636,2.4516,2.4369,2.4202,2.4082,2.3841,2.3514,2.3514,2.3347,2.3053,2.3053,2.2986,2.2928,2.3659,2.3992,2.3924,0.0,0.0,0.0,0.0,2.446,2.5121,2.5121,2.4907,2.4906,2.644,2.6772,2.6579,2.7194,2.7871,2.8417,2.8417,2.8417,2.8728,3.0132,2.9218,2.7955,2.8125,2.7231,2.6522,2.7131,2.7118,2.7276,2.8121,2.8291,0.0,2.7168,2.7726,2.8291,2.8291,2.8291,2.8291,2.8291,2.8291,2.8291,2.8291,2.8291,2.8291,2.8291,2.791,0.0,0.0,0.0,2.667,2.6434,2.6484,0.0,0.0,0.0,0.0,0.0,2.5625,0.0,0.0,2.5439,2.541,0.0,0.0,0.0,0.0,0.0,0.0,0.0,0.0,0.0,0.0,0.0,0.0,0.0,0.0,0.0,0.0,3.2022,3.3203,3.3965,3.1123,2.8993,2.9154,2.771,2.6858,2.7178,2.5639,2.4636,2.4636,2.4636,2.4636,2.4636,2.4636,0.0,0.0,0.0,2.4636,2.4636,2.4382,2.4255,2.4249,2.3988,2.3848,2.3821,2.3821,2.3661,2.3374,2.334,2.3166,2.3043,2.4798,2.5644,2.5644,2.3856,2.3065,2.3126,2.4851,2.6514,2.79,2.8106,0.0,0.0,2.746,2.7156,2.6789,2.6396,2.7263,2.8417,2.8417,2.8417,2.8792,3.046,2.9512,2.8477,2.9794,2.9551,2.8965,2.8867,2.8555,2.8291,2.8291,2.8291,2.8291,2.8291,2.8291,2.8291,2.8291,2.8291,2.8291,2.8291,2.8291,2.8291,2.8291,2.8291,0.0,2.8291,2.791,2.75,2.7119,2.665,2.6211,2.5781,2.5713,2.5947,2.6387,2.6387,2.6592,2.7012,2.7012,2.7041,2.706,2.585,2.5713,0.0,0.0,0.0,0.0,0.0,0.0,0.0,0.0,0.0,0.0,0.0,0.0,0.0,0.0,0.0,3.2156,3.317,3.3887,3.4053,3.3748,3.234,2.9417,2.7509,2.6132,2.5224,2.4851,2.4636,2.4636,2.4636,2.4636,2.4636,2.4636,2.4636,2.4636,2.4636,2.4636,2.4636,2.4583,2.4556,2.4556,2.4496,0.0,2.4122,2.4122,2.3961,2.3674,2.3434,2.3293,2.3352,2.49,2.638,2.7503,2.5719,2.4128,2.3126,2.4851,2.5711,2.6247,2.771,2.7932,2.769,2.8715,2.8774,2.8384,2.8055,2.817,0.0,2.8417,2.8417,2.8792,3.046,3.0587,3.0219,2.9807,2.956,2.9258,2.8564,2.835,2.8291,2.8291,2.8291,2.8291,2.8291,2.8291,2.8291,2.8291,2.8291,2.8291,2.8291,2.8291,2.8291,2.8291,2.8291,2.8291,2.8291,2.791,2.7679,2.7549,2.6816,2.6357,2.6269,2.5879,2.5947,2.6387,2.6387,2.6592,2.7012,2.7012,2.7197,2.7529,2.6914,2.6728,0.0,0.0,0.0,0.0,0.0,0.0,0.0,0.0,0.0,0.0,0.0,2.958,3.0674,0.0,3.25,3.3574,3.4111,3.4463,3.4697,3.4717,3.4011,3.2095,3.0421,2.9306,2.8924,2.7135,2.6071,2.6071,2.5139,2.4636,2.4636,2.4636,2.4636,2.4636,2.4636,2.4636,2.4636,2.4636,2.4636,2.4636,2.4636,2.4563,2.4422,2.4422,2.4262,2.3975,2.3674,2.3467,2.3503,2.5862,2.79,2.9409,2.8541,2.7097,2.5517,2.5517,2.6632,2.8279,2.9205,2.9813,3.0203,3.0692,3.0536,3.0133,2.9771,2.9648,2.9648,2.9648,2.9039,2.8737,3.018,2.9949,2.9371,2.9548,2.9404,2.9131,2.8701,2.8437,2.8291,2.8291,2.8291,2.8291,2.8291,2.8291,2.8291,2.8291,2.8291,2.8291,2.8291,2.8291,2.8213,2.7998,2.8164,2.8115,2.7685,2.7461,2.7432,2.7708,2.706,2.6699,2.6699,2.6494,2.6582,2.7021,2.7031,2.7236,2.7656,2.7656,2.7764,2.7969,2.7754,2.7656,0.0,0.0,0.0,0.0,0.0,0.0,0.0,2.7266,2.7881,2.916,2.9775,3.0547,3.2129,3.2685,3.334,3.4629,3.4834,3.4961,3.5342,3.5146,3.4922,3.4844,3.3476,3.2376,3.2141,2.9345,2.736,2.6932,2.5499,2.4636,2.4636,2.4636,2.4636,2.4636,2.4636,2.4636,2.4636,2.4636,2.4636,2.4636,2.4636,2.4636,2.4636,2.4636,2.4509,2.4269,2.4266,2.4245,2.4502,2.7491,2.9735,3.1295,3.0909,2.993,2.8492,2.6706,2.7817,3.0319,3.0707,3.1645,3.2617,3.2336,3.1816,3.1338,3.0996,3.0889,3.0889,3.0889,2.9837,2.8954,2.993,2.9193,2.8383,2.9252,2.918,2.8896,2.8818,2.8535,2.8291,2.8291,2.8291,2.8291,2.8291,2.8291,2.8291,2.8291,2.8291,2.8262,2.8174,2.8174,2.8008,2.7588,2.7842,2.7764,2.707,2.7012,2.7197,2.7689,2.7256,2.7051,2.7139,2.706,2.7217,2.7708,2.7718,2.7924,2.8291,2.8291,2.8291,2.8291,2.8291,2.8291,2.5703,2.5723,2.5937,2.6699,2.6631,2.6885,0.0,2.9303,2.9648,3.0957,3.1572,3.2168,3.3105,3.332,3.3779,3.5098,3.5322,3.5332,3.5391,3.5674,3.5732,3.5361,3.3662,3.1332,2.839,2.7715,2.6787,2.5065,2.4703,2.4636,2.4636,2.4636,2.4636,2.4636,2.4636,2.4636,2.4636,2.4636,2.4636,2.4636,2.4636,2.4636,2.4636,2.4636,2.4542,2.463,2.5662,2.6695,2.7833,2.9752,3.157,3.2965,3.1433,3.0707,3.0319,2.8558,2.8172,2.8689,3.0254,3.1467,3.2226,3.2187,3.1621,3.0957,3.0908,3.0889,3.0889,3.0889,3.047,3.0025,3.0148,2.9799,2.9354,2.9037,2.8955,2.8818,2.8437,2.833,2.8291,2.8291,2.8291,2.8291,2.8291,2.8291,2.8291,2.8291,2.8291,2.8154,2.7783,2.7787,2.7568,2.7139,2.7129,2.7119,2.7021,2.7012,2.7197,2.7689,2.7256,2.7187,2.7578,2.7217,2.7217,2.7708,2.7718,2.7924,2.8291,2.8291,2.8291,2.8291,2.8291,2.8291,2.6113,2.6289,2.6514,2.6621,2.708,2.7725,2.8623,2.9264,2.9941,3.125,3.1865,3.25,3.3603,3.4004,3.4434,3.5264,3.5596,3.5762,3.5762,3.5908,3.5957,3.5781,3.5046,3.3981,3.2595,3.1474,3.0042,2.8046,2.6917,2.5779,2.4636,2.4636,2.4636,2.4636,2.4636,2.4636,2.4636,2.4636,2.4636,2.4636,2.4636,2.4549,2.4382,2.4382,2.4195,2.3861,2.4363,2.5958,2.8238,2.9017,3.0918,3.3355,3.2629,3.1698,3.0439,2.7693,2.7957,2.9635,2.9086,3.0338,3.2129,3.1875,3.1377,3.0889,3.0889,3.0889,3.0889,3.0889,3.0557,3.0137,2.9893,2.9512,2.9082,2.8662,2.8555,2.8506,2.833,2.8291,2.8291,2.8291,2.8291,2.8291,2.8291,2.8291,2.8291,2.8291,2.8086,2.7861,2.7738,2.7441,2.7217,2.7031,2.6572,2.6475,2.6973,2.6797,2.6826,2.7256,2.7119,2.71,2.7275,2.7363,2.748,2.7718,2.791,2.8115,2.8291,2.8291,2.8291,2.8291,2.8291,2.8291,2.6357,2.6611,2.6826,2.6758,2.7432,2.8213,2.8564,2.9209,3.0117,3.1426,3.2041,3.2734,3.4014,3.4492,3.4892,3.5469,3.582,3.6016,3.6016,3.6016,3.6016,3.6016,3.6016,3.6016,3.6016,3.4305,3.243,3.0663,2.8611,2.6896,2.5617,2.4965,2.4636,2.4636,2.4636,2.4636,2.4636,2.4636,2.4804,2.5215,2.4723,2.4574,2.4774,2.4291,2.3808,2.3327,2.3795,2.5634,2.8238,2.8689,3.066,3.3418,3.3418,3.2629,3.1166,2.8081,2.8599,3.0597,2.8961,3.0041,3.2119,3.1797,3.1328,3.0889,3.0889,3.0889,3.0889,3.0889,3.0469,2.9951,2.9704,2.916,2.8672,2.8369,2.8291,2.8291,2.8291,2.8291,2.8291,2.8291,2.8291,2.8291,2.8291,2.8291,2.8291,2.8291,2.7832,2.749,2.749,2.7002,2.666,2.666,2.6064,2.5937,2.6611,2.6377,2.6387,2.6816,2.6846,2.6894,2.7012,2.7314,2.749,2.749,2.7783,2.7939,2.7939,2.8066,2.8125,2.8125,2.8242,2.8291,2.6279,2.6396,2.6602,2.7474,2.7708,2.8061,2.9303,2.9863,3.0547,3.1875,3.248,3.3164,3.4443,3.4687,3.499,3.5859,3.6016,3.6016,3.6016,3.6016,3.6016,3.6016,3.6016,3.6016,3.6016,3.4305,3.2605,3.1101,2.8816,2.764,2.7954,2.5873,2.4636,2.4636,2.4636,2.4636,2.4636,2.4636,2.5333,2.6712,2.5049,2.4962,2.6302,2.4607,2.3614,2.339,2.5139,2.6765,2.8303,2.9995,3.1762,3.3418,3.3418,3.3355,3.3092,3.1304,3.0707,3.0771,3.0689,3.1358,3.2229,3.2148,3.1572,3.0889,3.0889,3.0889,3.0889,3.0889,3.0264,2.9646,2.957,2.8945,2.831,2.8301,2.8291,2.8291,2.8291,2.8291,2.8291,2.8291,2.8291,2.8291,2.8291,2.8291,2.8291,2.8291,2.7568,2.7031,2.7031,2.6249,2.5732,2.5732,2.5703,2.5703,2.5723,2.5713,2.5947,2.6387,2.6406,2.6592,2.6992,2.7021,2.7031,2.7031,2.7051,2.7051,2.7051,2.748,2.7738,2.7748,2.8105,2.8291,2.6348,2.6797,2.7305,2.765,2.8086,2.8682,2.9404,2.9893,3.0488,3.1523,3.1846,3.2344,3.3613,3.4092,3.457,3.5459,3.584,3.6016,3.6016,3.6016,3.6016,3.6016,3.6016,3.6016,3.6016,3.5451,3.4361,3.2562,3.0534,2.8883,2.7728,2.5695,2.4636,2.4636,2.4636,2.4636,2.4636,2.4636,2.5333,2.6825,2.703,2.6763,2.6167,2.6564,2.5997,2.489,2.6685,2.8403,2.9986,3.0578,3.1835,3.3418,3.3418,3.3418,3.3355,3.2756,3.2556,3.2317,3.0874,3.1392,3.249,3.1924,3.1543,3.126,3.0976,3.0889,3.083,3.0518,3.0019,2.9502,2.9219,2.8721,2.8291,2.8291,2.8291,2.8291,2.8291,2.8291,2.8291,2.8291,2.8291,2.8291,2.8291,2.8291,2.8193,2.792,2.7383,2.6914,2.6631,2.6094,2.5801,2.6143,2.5908,2.5693,2.5693,2.5693,2.5752,2.5947,2.5957,2.6016,2.6113,2.6445,2.6602,2.6602,2.6875,2.7012,2.7012,2.7168,2.7383,2.7718,2.7865,2.8027,2.6758,2.7246,2.7748,2.7851,2.8301,2.8848,2.9434,2.9785,3.0264,3.1309,3.1514,3.1865,3.2988,3.3555,3.4131,3.5,3.5508,3.585,3.5996,3.6016,3.6016,3.6016,3.6016,3.6016,3.6016,3.6016,3.5586,3.4519,3.2526,3.0589,2.8808,2.6772,2.5352,2.4636,2.4636,2.4636,2.4636,2.5279,2.6344,2.7694,2.884,2.8502,2.6832,2.7749,2.7569,2.6506,2.7701,2.9213,3.0771,3.0771,3.1835,3.3418,3.3418,3.3418,3.3418,3.3418,3.3418,3.3189,3.18,3.1912,3.248,3.1924,3.1543,3.124,3.0976,3.0889,3.0791,3.0332,2.9893,2.9473,2.9033,2.8603,2.8291,2.8291,2.8291,2.8291,2.8291,2.8291,2.8291,2.8291,2.8174,2.8115,2.8262,2.8164,2.793,2.75,2.707,2.6748,2.6631,2.6103,2.5908,2.6338,2.5996,2.5693,2.5693,2.5693,2.5693,2.5693,2.5693,2.5693,2.5693,2.6006,2.6162,2.6162,2.6416,2.6562,2.6562,2.6719,2.7012,2.7432,2.7598,2.7891,2.7503,2.7738,2.7845,2.8193,2.831,2.8545,2.943,2.9646,2.9951,3.1191,3.1475,3.1728,3.2549,3.3096,3.3691,3.4531,3.5098,3.5566,3.5967,3.6016,3.6016,3.6016,3.6016,3.6016,3.6016,3.6016,3.6191,3.6601,3.4529,3.2614,3.1173,2.8808,2.6641,2.4777,2.4636,2.4636,2.4636,2.6612,2.8184,2.9357,3.0421,2.9995,2.8369,2.8435,2.8435,2.8369,2.8435,2.9409,3.0909,3.0909,3.1899,3.3418,3.3418,3.3418,3.3418,3.3418,3.3418,3.3418,3.3398,3.2871,3.2187,3.2148,3.1582,3.0918,3.0898,3.0889,3.0791,3.0332,2.9893,2.9473,2.9033,2.8603,2.8291,2.8291,2.8291,2.8291,2.8291,2.8291,2.8291,2.8291,2.8002,2.7783,2.8164,2.79,2.749,2.708,2.666,2.6533,2.6934,2.621,2.5908,2.6338,2.5996,2.5693,2.5693,2.5693,2.5693,2.5693,2.5693,2.5693,2.5693,2.5693,2.5693,2.5693,2.5693,2.5693,2.5693,2.6172,2.6602,2.7021,2.7461,2.7891,2.766,2.7891,2.8154,2.8262,2.8525,2.8906,2.9443,2.9814,3.0127,3.0469,3.081,3.1123,3.1338,3.25,3.3603,3.4141,3.5146,3.5898,3.6006,3.6016,3.6016,3.6016,3.6016,3.6016,3.6016,3.6016,3.6064,3.6182,3.4361,3.3067,3.2667,2.9393,2.7288,2.6787,2.5352,2.4636,2.4636,2.7274,2.9495,3.1223,3.2236,3.1835,3.0189,3.1506,3.1378,3.0189,3.1515,3.2301,3.2756,3.2756,3.3029,3.3418,3.3418,3.3418,3.3418,3.3418,3.3418,3.3379,3.3066,3.2812,3.2529,3.1894,3.1533,3.1299,3.0986,3.0889,3.0791,3.0332,2.9893,2.9473,2.9033,2.8603,2.8291,2.8291,2.8291,2.8291,2.8291,2.8291,2.8291,2.8291,2.8002,2.7598,2.7373,2.7246,2.7148,2.7031,2.666,2.6426,2.6533,2.6074,2.5908,2.6338,2.5996,2.5693,2.5693,2.5693,2.5693,2.5693,2.5693,2.5693,2.5693,2.5693,2.5693,2.5693,2.5693,2.5693,2.5693,2.6172,2.6602,2.7021,2.7461,2.7891,2.5963,2.6163,2.6336,2.6336,2.7141,2.802,2.8256,2.9151,2.9742,2.9089,2.9651,3.0131,2.9411,3.1279,3.3018,3.3437,3.4766,3.581,3.5996,3.6016,3.6016,3.6016,3.6016,3.6016,3.6016,3.6016,3.6016,3.6016,3.5021,3.4098,3.324,3.1183,2.9202,2.757,2.643,2.6212,2.6849,2.8277,3.0317,3.287,3.3219,3.2892,3.1963,3.2956,3.2892,3.2027,3.2965,3.3418,3.3418,3.3418,3.3418,3.3418,3.3418,3.3418,3.3418,3.3418,3.3418,3.3359,3.2939,3.2676,3.2412,3.1738,3.1396,3.1201,3.0967,3.0889,3.0791,3.0332,2.9893,2.9473,2.9033,2.8603,2.8291,2.8291,2.8291,2.8291,2.8291,2.8291,2.8184,2.7803,2.7539,2.7246,2.6816,2.6738,2.6738,2.6738,2.6377,2.6103,2.6103,2.584,2.5908,2.6338,2.5996,2.5693,2.5693,2.5693,2.5693,2.5693,2.5693,2.5693,2.5693,2.5693,2.5693,2.5693,2.5693,2.5781,2.6025,2.6269,2.6709,2.7305,2.7559,2.7891,2.3766,2.3896,2.3896,2.3896,2.5156,2.6444,2.6441,2.7763,2.8549,2.7221,2.8032,2.8624,2.7521,2.9783,3.2063,3.2793,3.4248,3.5488,3.6025,3.6055,3.6045,3.6103,3.6055,3.6016,3.6016,3.6016,3.6016,3.6016,3.6016,3.5304,3.3665,3.3309,3.1518,2.7935,2.762,2.833,3.006,2.9349,3.0769,3.415,3.3652,3.3418,3.3418,3.3418,3.3418,3.3418,3.3418,3.3418,3.3418,3.3418,3.3418,3.3418,3.3418,3.3418,3.3418,3.3418,3.3418,3.3359,3.2939,3.2519,3.21,3.166,3.123,3.0889,3.0889,3.0889,3.081,3.04,2.9941,2.9482,2.9101,2.8652,2.8291,2.8291,2.8291,2.8291,2.8291,2.8252,2.7959,2.71,2.6934,2.6797,2.6377,2.6299,2.6299,2.6299,2.5977,2.5693,2.5693,2.5693,2.584,2.626,2.5967,2.5693,2.5693,2.5693,2.5693,2.5693,2.5693,2.5693,2.5693,2.5693,2.5693,2.5693,2.5693,2.5918,2.6299,2.6357,2.6797,2.764,2.7689,2.7891,2.4228,2.4219,2.4219,2.4219,2.4553,2.4963,2.5151,2.5377,0.0,2.5036,2.5264,2.5935,2.7068,2.8696,3.0597,3.2927,3.416,3.5225,3.6396,3.624,3.6152,0.0,3.624,3.6016,3.6016,3.6016,3.6016,3.6016,3.6016,3.5879,3.5519,3.402,3.2027,2.9398,2.8131,2.8964,3.195,3.0036,3.0909,3.458,3.3789,3.3418,3.3418,3.3418,3.3418,3.3418,3.3418,3.3418,3.3418,3.3418,3.3418,3.3418,3.3418,3.3418,3.3418,3.3418,3.3418,3.3359,3.2939,3.2519,3.21,3.166,3.123,3.0889,3.0889,3.0889,3.0869,3.0791,3.0185,2.9551,2.9473,2.8877,2.8291,2.8291,2.8291,2.8291,2.8291,2.8018,2.7571,2.666,2.6494,2.6357,2.5879,2.5801,2.5801,2.5801,2.5732,2.5693,2.5693,2.5693,2.5713,2.5791,2.5732,2.5693,2.5693,2.5693,2.5693,2.5693,2.5693,2.5693,2.5693,2.5693,2.5693,2.5693,2.5693,2.5723,2.5801,2.6211,2.6641,2.7139,2.75,2.7891,2.2208,2.2045,2.2015,2.2127,2.2724,2.3318,2.3367,0.0,0.0,2.322,2.3626,2.4248,2.4309,2.6865,2.9388,3.0719,3.2844,3.4668,3.5527,3.5674,3.585,3.6279,3.6152,3.6016,3.6016,3.6016,3.6016,3.6016,3.6016,3.6016,3.6016,3.3963,3.2352,3.1176,2.9285,2.9453,3.1828,3.0676,3.1423,3.4033,3.3623,3.3418,3.3418,3.3418,3.3418,3.3418,3.3418,3.3418,3.3418,3.3418,3.3418,3.3418,3.3418,3.3418,3.3418,3.3418,3.3418,3.3389,3.3193,3.2705,3.2129,3.1924,3.1416,3.0889,3.0889,3.0889,3.084,3.0596,3.0068,2.9512,2.9287,2.8769,2.8291,2.8291,2.8291,2.8291,2.8291,2.7959,2.748,2.6836,2.6533,2.625,2.5762,2.5693,2.5693,2.5693,2.5693,2.5693,2.5693,2.5693,2.5693,2.5693,2.5693,2.5693,2.5693,2.5693,2.5693,2.5693,2.5693,2.5693,2.5693,2.5693,2.5693,2.5693,2.5967,2.6182,2.6356,2.6846,2.7266,2.7685,2.79,2.8096,2.0341,2.016,2.004,2.0267,2.0984,2.1686,2.1642,2.2475,2.2896,2.1402,2.1979,2.2534,2.1831,2.4745,2.7419,2.8122,3.1012,3.3466,3.4181,3.4947,3.5586,3.6103,3.6074,0.0,3.6016,3.6016,3.6016,3.6016,3.6016,3.6016,3.6016,3.428,3.3221,3.3138,3.0951,3.0478,3.1924,3.1439,3.1967,3.3555,3.3467,3.3418,3.3418,3.3418,3.3418,3.3418,3.3418,3.3418,3.3418,3.3418,3.3418,3.3418,3.3418,3.3418,3.3418,3.3418,3.3418,3.3408,3.332,3.2793,3.2148,3.206,3.1514,3.0889,3.0889,3.0889,3.081,3.0449,2.9971,2.9492,2.915,2.8682,2.8291,2.8291,2.8291,2.8271,2.8174,2.79,2.7562,2.6982,2.6621,2.625,2.5762,2.5693,2.5693,2.5693,2.5693,2.5693,2.5693,2.5693,2.5693,2.5693,2.5693,2.5693,2.5693,2.5693,2.5693,2.5693,2.5693,2.5693,2.5693,2.5781,2.583,2.583,2.6299,2.668,2.7012,2.7363,2.7744,2.8154,2.8154,2.8203,2.0708,2.0621,2.0601,2.0628,2.0328,2.0098,2.0301,0.0,1.9457,1.9594,1.9482,1.9897,2.1799,2.2516,2.3705,2.6519,2.8844,3.0919,3.2799,3.4374,3.5693,3.6514,0.0,0.0,3.6016,3.6016,3.6016,3.6016,3.6016,3.6016,3.6016,3.5772,3.5501,3.5123,3.3237,3.2872,3.4367,3.2243,3.2171,3.4004,3.3613,3.3418,3.3418,3.3418,3.3418,3.3418,3.3418,3.3418,3.3418,3.3418,3.3418,3.3418,3.3418,3.3418,3.3418,3.3418,3.3418,3.3369,3.2978,3.2549,3.21,3.1709,3.1269,3.0889,3.0889,3.0889,3.0879,3.084,3.0215,2.9616,2.9521,2.8906,2.8291,2.8291,2.8291,2.8193,2.7803,2.7748,2.7474,2.6602,2.6416,2.625,2.5762,2.5693,2.5693,2.5693,2.5693,2.5693,2.5693,2.5693,2.5693,2.5693,2.5693,2.5693,2.5693,2.5693,2.5693,2.5693,2.5693,2.5693,2.5693,2.6113,2.6328,2.6328,2.6738,2.6973,2.7012,2.7051,2.7295,2.7777,2.7777,2.793,2.0922,2.0808,2.0722,2.0895,2.0368,1.9826,1.9947,1.9566,1.9172,1.9112,1.9152,1.9483,2.0331,2.1431,2.2655,2.4123,2.7013,2.9205,2.9505,3.2209,3.4185,3.4066,3.5018,3.5742,3.5996,3.6016,3.6016,3.6016,3.6016,3.6016,3.6016,3.5781,3.5439,3.499,3.3964,3.3744,3.4316,3.3161,3.2886,3.3682,3.3506,3.3418,3.3418,3.3418,3.3418,3.3418,3.3418,3.3418,3.3418,3.3418,3.3418,3.3418,3.3418,3.3418,3.3418,3.3418,3.3418,3.3359,3.2939,3.2519,3.21,3.166,3.123,3.0889,3.0889,3.0889,3.083,3.0547,3.0039,2.9512,2.9248,2.874,2.8291,2.8291,2.8291,2.8252,2.8086,2.8047,2.7793,2.6934,2.6768,2.6553,2.5801,2.5693,2.5693,2.5693,2.5693,2.5693,2.5693,2.5693,2.5693,2.5693,2.5693,2.5791,2.6103,2.584,2.5801,2.6113,2.584,2.581,2.6113,2.6299,2.6504,2.6758,2.7187,2.7402,2.7402,2.7656,2.7871,2.8047,2.8047,2.8135,2.0922,2.0895,2.0855,2.1056,2.0514,1.9927,1.9927,1.9639,1.9305,1.9098,1.9225,1.9424,1.9424,2.0489,2.1474,2.1809,2.5179,2.7462,2.6651,3.0483,3.3082,3.2299,3.3965,3.5361,3.5791,3.5947,3.6016,3.6016,3.6016,3.5967,3.584,3.5557,3.5244,3.4912,3.4365,3.4072,3.4072,3.3643,3.3418,3.3418,3.3418,3.3418,3.3418,3.3418,3.3418,3.3418,3.3418,3.3418,3.3418,3.3418,3.3418,3.3418,3.3418,3.3418,3.3418,3.3418,3.334,3.3174,3.2754,3.2334,3.1904,3.1475,3.1133,3.0889,3.0889,3.0889,3.082,3.0488,3.0,2.9443,2.8877,2.8516,2.8291,2.8291,2.8291,2.8291,2.8291,2.8291,2.8037,2.7187,2.7012,2.6738,2.583,2.5693,2.5693,2.5693,2.5693,2.5693,2.5693,2.5693,2.5693,2.5693,2.5801,2.6055,2.6367,2.6103,2.6113,2.6543,2.6045,2.5937,2.6553,2.6572,2.6777,2.7197,2.7637,2.7851,2.7851,2.8144,2.8291,2.8291,2.8291,2.8291,2.0681,2.0889,2.1109,2.1109,2.0661,2.0227,2.0227,1.978,1.9424,1.9424,1.9424,1.9424,1.9424,1.943,1.9524,1.9819,2.3227,2.5586,2.4901,2.9758,3.3082,3.2232,3.3624,3.4892,3.5351,3.5771,3.6016,3.6016,3.6016,3.584,3.542,3.5391,3.5391,3.5391,3.4531,3.4072,3.4072,3.3643,3.3418,3.3418,3.3418,3.3418,3.3418,3.3418,3.3418,3.3418,3.3418,3.3418,3.3418,3.3418,3.3418,3.3418,3.3418,3.3418,3.3418,3.3418,3.3164,3.2744,3.2324,3.1894,3.1455,3.1035,3.0898,3.0889,3.0889,3.0889,3.0889,3.0889,3.0244,2.9375,2.8516,2.8301,2.8291,2.8291,2.8291,2.8291,2.8291,2.8291,2.8037,2.7187,2.7012,2.6738,2.583,2.5693,2.5693,2.5693,2.5693,2.5693,2.5693,2.5693,2.5693,2.5693,2.6123,2.6387,2.6387,2.6387,2.6562,2.6982,2.6161,2.6074,2.6973,2.7012,2.7217,2.7699,2.8066,2.8281,2.8281,2.8291,2.8291,2.8291,2.8291,2.8291,2.0321,2.0441,2.0508,2.0508,2.0221,1.9887,1.9686,1.9499,1.9305,1.9105,1.9225,1.9424,1.9424,1.9424,1.9526,2.0013,2.2073,2.3861,2.4313,2.8412,3.1468,3.1756,3.4032,3.5664,3.581,3.5937,3.6016,3.6016,3.6016,3.584,3.542,3.5098,3.4922,3.4922,3.4375,3.4072,3.4072,3.3643,3.3418,3.3418,3.3418,3.3418,3.3418,3.3418,3.3418,3.3418,3.3418,3.3418,3.3418,3.3418,3.3418,3.3389,3.3105,3.3174,3.3389,3.3096,3.291,3.2734,3.2314,3.1885,3.1445,3.1025,3.0889,3.083,3.0518,3.0635,3.0762,3.0156,2.957,2.8994,2.8437,2.8291,2.8291,2.8291,2.8291,2.8291,2.8291,2.8291,2.8037,2.7187,2.7012,2.6738,2.583,2.5693,2.5693,2.5693,2.5693,2.5693,2.5693,2.5693,2.5693,2.5693,2.6387,2.6816,2.6816,2.6816,2.6875,2.7012,2.6494,2.6435,2.6992,2.7012,2.7353,2.8086,2.8223,2.8291,2.8291,2.8291,2.8291,2.8291,2.8291,2.8291,1.9807,2.0147,2.0173,2.0173,2.0013,1.9753,1.9573,1.9446,1.9319,1.9132,1.9239,1.9424,1.9424,1.9424,1.9486,1.9846,2.1496,2.3014,2.3933,2.7579,3.071,3.2348,3.4307,3.5586,3.5771,3.5928,3.5957,3.5801,3.5781,3.5596,3.5156,3.4707,3.4463,3.4463,3.4053,3.3828,3.3828,3.3555,3.3418,3.3418,3.3418,3.3418,3.3418,3.3418,3.3418,3.3418,3.3418,3.3418,0.0,3.3418,3.3418,3.3379,3.2959,3.2949,3.3135,3.2715,3.2451,3.2275,3.2012,3.1641,3.124,3.0976,3.0771,3.0576,3.0283,3.0293,3.0244,2.9521,2.9131,2.8818,2.8398,2.8291,2.8291,2.8291,2.8291,2.8252,2.8096,2.8057,2.7803,2.6943,2.6777,2.6553,2.581,2.5693,2.5693,2.5693,2.5693,2.5693,2.5693,2.5693,2.5693,2.5693,2.6504,2.7012,2.7012,2.7168,2.7266,2.7266,2.6855,2.6816,2.7246,2.7266,2.7588,2.8281,2.8291,2.8291,2.8291,2.8291,2.8291,2.8291,2.8291,2.8291,0.0,1.9827,2.0113,2.0113,1.9967,1.9766,1.9766,1.9559,0.0,1.9424,1.9424,1.9424,1.9424,1.9424,1.943,1.9457,2.1142,2.2819,2.3662,2.7283,3.0823,3.3634,3.4427,3.4922,3.5351,3.5771,3.584,3.543,3.5391,3.5176,3.4678,3.4287,3.4062,3.4023,3.3633,3.3418,3.3418,3.3418,3.3418,3.3418,3.3418,3.3418,3.3418,3.3418,3.3418,3.3418,3.3418,3.3418,3.3418,3.3418,3.3408,3.334,3.291,3.2754,3.2695,3.2275,3.1865,3.1514,3.1514,3.124,3.0889,3.0889,3.0557,3.0156,3.0156,2.9863,2.9443,2.9033,2.8896,2.8779,2.8398,2.8291,2.8291,2.8291,2.8291,2.8174,2.7806,2.7718,2.7464,2.6553,2.6387,2.625,2.5762,2.5713,2.5732,2.5732,2.5762,2.5771,2.5742,2.5732,2.5732,2.5732,2.6523,2.7021,2.706,2.7461,2.7748,2.7718,2.7285,2.7246,2.7699,2.7718,2.7861,2.8281,2.8291,2.8291,2.8291,2.8291,2.8291,2.8291,2.8291,2.8291,1.7101,0.0,1.9573,1.9573,1.9519,1.9466,0.0,1.9477,1.9424,1.9424,1.9424,1.9424,1.9424,1.9424,1.9497,1.9659,2.0293,2.1512,2.3538,2.7802,3.1184,3.2418,3.4137,3.5273,3.5381,3.5771,3.584,3.543,3.5391,3.5049,3.4258,3.4121,3.3916,3.3584,3.3476,3.3418,3.3418,3.3418,3.3418,3.3418,3.3418,3.3418,3.3418,3.3418,3.3418,3.3418,3.3418,3.3418,3.3418,3.3418,3.3232,3.29,3.248,3.2314,3.2266,3.1826,3.1601,3.1514,3.1514,3.124,3.0889,3.0889,3.0351,2.9717,2.9717,2.9414,2.9053,2.8945,2.8682,2.8418,2.831,2.8291,2.8291,2.8291,2.8291,2.8174,2.7806,2.7718,2.7464,2.6553,2.6387,2.625,2.5762,2.6016,2.624,2.624,2.6514,2.6602,2.6279,2.624,2.624,2.624,2.6699,2.7148,2.748,2.79,2.8008,2.7738,2.762,2.7559,2.7718,2.7718,2.7861,2.8281,2.8291,2.8291,2.8291,2.8291,2.8291,2.8291,2.8291,2.8291,1.5278,1.7183,1.9165,1.9165,1.9265,1.9424,1.9424,1.9259,1.9165,1.9165,0.0,1.9005,1.9138,1.9165,1.9259,1.9553,1.9953,2.1427,2.4937,2.9107,3.2147,3.2899,3.4094,3.4863,3.5059,3.5283,3.5244,3.4814,3.4785,3.4492,3.3809,3.3779,3.3662,3.3428,3.3418,3.3418,3.3418,3.3418,3.3418,3.3418,3.3418,3.3418,3.3418,3.3418,3.3418,3.3418,3.3418,3.3418,3.3418,3.3418,3.3174,3.2754,3.2334,3.2041,3.1816,3.1387,3.123,3.123,3.123,3.1074,3.0889,3.0889,3.0293,2.9626,2.9626,2.9131,2.8633,2.8633,2.8467,2.8291,2.8291,2.8291,2.8291,2.8291,2.8291,2.8174,2.7806,2.7718,2.7464,2.6553,2.6387,2.6309,2.6074,2.623,2.6455,2.665,2.6865,2.6934,2.6709,2.668,2.668,2.668,2.706,2.7412,2.7699,2.8057,2.8115,2.7748,2.7851,2.7861,2.7728,2.7904,2.8057,2.8291,2.8291,2.8291,2.8291,2.8291,2.8291,2.8291,2.8291,2.8291,1.3798,1.6159,1.8628,1.8861,1.9145,1.9424,1.9424,0.0,0.0,0.0,0.0,1.8577,1.8871,1.8958,1.9092,1.9386,1.996,2.189,2.627,2.9834,3.243,3.3482,3.3895,3.4209,3.457,3.4658,3.4521,3.4101,3.4072,3.3887,3.3447,3.3418,3.3418,3.3418,3.3418,3.3418,3.3418,3.3418,3.3418,3.3418,3.3418,3.3418,3.3418,3.3418,3.3418,3.3418,3.3418,3.3418,3.3418,3.3418,3.3135,3.2666,3.2305,3.1865,3.1377,3.1025,3.0889,3.0889,3.0889,3.0889,3.0879,3.081,3.0234,2.9616,2.9492,2.8916,2.8291,2.8291,2.8291,2.8291,2.8291,2.8291,2.8291,2.8291,2.8291,2.8174,2.7806,2.7718,2.7483,2.6641,2.6484,2.6484,2.6484,2.6543,2.6709,2.706,2.7168,2.7187,2.7119,2.7119,2.7119,2.7119,2.7441,2.7748,2.7806,2.8086,2.8135,2.7783,2.8096,2.8135,2.7826,2.8105,2.8291,2.8291,2.8291,2.8291,2.8291,2.8291,2.8291,2.8291,2.8291,2.8291,1.3492,1.5465,1.733,1.8571,1.9145,1.9424,1.9424,1.9138,0.0,0.0,0.0,0.0,0.0,1.9132,1.9392,1.9686,2.0434,2.1893,2.4619,2.7003,2.9214,3.1111,3.2984,3.4092,3.416,3.4492,3.4521,3.4101,3.4072,3.3887,3.3447,3.3418,3.3418,3.3418,3.3418,3.3418,3.3418,3.3418,3.3418,3.3418,3.3418,3.3418,3.3418,3.3418,3.3418,3.3418,3.3418,3.3418,3.3418,3.3418,3.2969,3.2256,3.2187,3.1689,3.0976,3.0918,3.0889,3.0889,3.0889,3.0889,3.083,3.043,2.9971,2.9558,2.9131,2.8682,2.8291,2.8291,2.8291,2.8291,2.8291,2.8291,2.8291,2.8291,2.8291,2.8174,2.7806,2.7718,2.7519,2.7021,2.6914,2.6914,2.6914,2.7226,2.7542,2.7559,2.7871,2.7969,2.7669,2.7568,2.7568,2.7568,2.7679,2.7865,2.8164,2.8252,2.8262,2.8203,2.8262,2.8262,2.8203,2.8262,2.8291,2.8291,2.8291,2.8291,2.8291,2.8291,2.8291,2.8291,2.8291,2.8291,1.3325,1.5092,1.6893,1.8722,1.9499,1.9833,1.9833,1.9486,0.0,0.0,0.0,0.0,0.0,1.9279,1.9619,2.0381,2.1576,2.3362,2.5902,2.7897,2.9829,3.1935,3.3075,3.3721,3.3721,3.3896,3.3926,3.374,3.3721,3.3633,3.3428,3.3418,3.3418,3.3418,3.3418,3.3418,3.3418,3.3418,3.3418,3.3418,3.3418,3.3418,3.3418,3.3418,3.3418,3.3418,3.3418,3.3418,3.3408,3.3174,3.2725,3.2148,3.1904,3.1435,3.0889,3.0889,3.0889,3.0889,3.0889,3.0889,3.081,3.0342,2.9912,2.9482,2.9053,2.8623,2.8291,2.8291,2.8291,2.8291,2.8291,2.8291,2.8291,2.8291,2.8291,2.8242,2.8047,2.7998,2.7881,2.7451,2.7363,2.7363,2.7363,2.7539,2.7744,2.7969,2.8164,2.8223,2.8027,2.7998,2.7998,2.7998,2.7998,2.8086,2.8271,2.8291,2.8291,2.8291,2.8291,2.8291,2.8291,2.8291,2.8291,2.8291,2.8291,2.8291,2.8291,2.8291,2.8291,2.8291,2.8291,2.8291,1.3151,1.4798,1.6431,1.873,1.9653,2.0067,2.0201,1.9786,1.9424,1.9424,0.0,0.0,1.9178,1.9486,1.9987,2.0955,2.2335,2.4363,2.731,2.8854,3.0647,3.3117,3.3418,3.3418,3.3418,3.3418,3.3418,3.3418,3.3418,3.3418,3.3418,3.3418,3.3418,3.3418,3.3418,3.3418,3.3418,3.3418,3.3418,3.3418,3.3418,3.3418,3.3418,3.332,3.3271,3.3271,3.3271,3.3271,3.3252,3.293,3.2549,3.2129,3.1689,3.126,3.0889,3.0889,3.0889,3.0889,3.0889,3.0889,3.0801,3.0234,2.9834,2.9473,2.8935,2.8545,2.8291,2.8291,2.8291,2.8291,2.8291,2.8291,2.8291,2.8291,2.8291,2.8291,2.8291,2.8291,2.8193,2.7881,2.7812,2.7812,2.7812,2.7812,2.792,2.8242,2.8291,2.8291,2.8291,2.8291,2.8291,2.8291,2.8291,2.8291,2.8291,2.8291,2.8291,2.8291,2.8291,2.8291,2.8291,2.8291,2.8291,2.8291,2.8291,2.8291,2.8291,2.8291,2.8291,2.8291,2.8291,2.8291,1.287,1.4189,1.5396,1.8236,1.9192,1.9573,2.0107,1.9786,1.9424,1.9424,1.9112,1.8905,1.8951,1.9846,2.0695,2.1049,2.1856,2.371,2.7222,2.8046,2.9579,3.3029,3.3418,3.3418,3.3418,3.3418,3.3418,3.3418,3.3418,3.3418,3.3418,3.3418,3.3418,3.3418,3.3418,3.3418,3.3418,3.3418,3.3418,3.3418,3.3418,3.3418,3.3408,3.3018,3.2842,3.2842,3.2842,3.2842,3.2842,3.2803,3.2549,3.2129,3.1689,3.126,3.0889,3.0889,3.0889,3.0889,3.0889,3.0889,3.0752,2.9893,2.959,2.9414,2.8584,2.831,2.8291,2.8291,2.8291,2.8291,2.8291,2.8291,2.8291,2.8291,2.8291,2.8291,2.8291,2.8291,2.8281,2.8252,2.8252,2.8252,2.8252,2.8252,2.8262,2.8291,2.8291,2.8291,2.8291,2.8291,2.8291,2.8291,2.8291,2.8291,2.8291,2.8291,2.8291,2.8291,2.8291,2.8291,2.8291,2.8291,2.8291,2.8291,2.8291,2.8291,2.8291,2.8291,2.8291,2.8291,2.8291,2.8291,1.282,1.4143,1.5335,1.8442,1.9419,1.974,2.014,2.006,1.996,2.0147,1.9947,1.974,1.974,2.0254,2.0768,2.1062,2.2577,2.4662,2.7335,2.8909,3.0716,3.3092,3.3418,3.3418,3.3418,3.3418,3.3418,3.3418,3.3418,3.331,3.3047,3.3281,3.3184,3.2656,3.29,3.291,3.2646,3.2637,3.2637,3.2646,3.3174,3.3281,3.3027,3.2871,3.2656,3.2412,3.2412,3.2412,3.2383,3.2109,3.1904,3.1719,3.1289,3.1035,3.0889,3.0889,3.0889,3.0889,3.0889,3.0889,3.0752,2.9853,2.9626,2.946,2.8555,2.8291,2.8291,2.8291,2.8291,2.8291,2.8291,2.8291,2.8291,2.8291,2.8291,2.8291,2.8291,2.8291,2.8291,2.8291,2.8291,2.8291,2.8291,2.8291,2.8291,2.8291,2.8291,2.8291,2.8291,2.8291,2.8291,2.8291,2.8291,2.8291,2.8291,2.8291,2.8291,2.8291,2.8291,2.8291,2.8291,2.8291,2.8291,2.8291,2.8291,2.8291,2.8291,2.8291,2.8291,2.8291,2.8291,2.8291,1.3,1.4482,1.5918,1.8583,1.9519,1.9873,2.0167,2.0173,2.0321,2.0615,2.0368,2.0127,2.0153,2.0474,2.0768,2.1062,2.2685,2.4732,2.718,2.8794,3.0555,3.2777,3.3027,3.3027,3.3027,3.3027,3.3027,3.3027,3.3027,3.29,3.2617,3.2871,3.2764,3.2248,3.2451,3.2461,3.2229,3.2229,3.2229,3.2238,3.2754,3.2871,3.2588,3.2451,3.2236,3.1963,3.1963,3.1963,3.1934,3.1641,3.1435,3.1289,3.1006,3.0889,3.0889,3.0889,3.0889,3.0889,3.0889,3.0889,3.0752,2.9853,2.9626,2.946,2.8555,2.8291,2.8291,2.8291,2.8291,2.8291,2.8291,2.8291,2.8291,2.8291,2.8291,2.8291,2.8291,2.8291,2.8291,2.8291,2.8291,2.8291,2.8291,2.8291,2.8291,2.8291,2.8291,2.8291,2.8291,2.8291,2.8291,2.8291,2.8291,2.8291,2.8291,2.8291,2.8291,2.8291,2.8291,2.8291,2.8291,2.8291,2.8291,2.8291,2.8291,2.8359,2.8496,2.8359,2.8359,2.8486,2.8359,2.8291,1.3311,1.5159,1.7032,1.8507,1.9372,1.988,2.0113,2.0173,2.0321,2.0621,2.0214,1.99,2.018,2.0474,2.0768,2.1056,2.1837,2.3475,2.6631,2.7332,2.8711,3.1841,3.2229,3.2229,3.2229,3.2229,3.2229,3.2229,3.2229,3.2229,3.2158,3.2229,3.2229,3.2219,3.2158,3.2158,3.2219,3.2219,3.2219,3.2219,3.2219,3.2219,3.2209,3.1709,3.1514,3.1514,3.1514,3.1514,3.1514,3.1514,3.1269,3.0889,3.0889,3.0889,3.0889,3.0889,3.0889,3.0889,3.0889,3.0889,3.0742,2.9853,2.9626,2.9404,2.8555,2.8291,2.8291,2.8291,2.8291,2.8291,2.8291,2.8291,2.8291,2.8291,2.8291,2.8291,2.8291,2.8291,2.8291,2.8291,2.8291,2.8291,2.8291,2.8291,2.8291,2.8291,2.8291,2.8291,2.8291,2.8291,2.8291,2.8291,2.8291,2.8291,2.8291,2.8291,2.8291,2.8291,2.8291,2.8291,2.8291,2.8291,2.8291,2.8291,2.8291,2.8496,2.8916,2.8496,2.8506,2.8896,2.8486,2.8291,1.275,1.4305,1.5816,1.8274,1.9519,2.018,2.0474,2.0541,0.0,2.0922,2.0681,2.0441,2.0528,2.0615,2.0708,2.0795,2.2426,2.437,2.6469,2.8086,2.9805,3.1924,3.2229,3.2229,3.2229,3.2229,3.2229,3.2229,3.2229,3.2031,3.1728,3.2002,3.1894,3.1289,3.1562,3.1572,3.1279,3.1269,3.1269,3.1269,3.1269,3.1426,3.1709,3.1572,3.1357,3.1074,3.1074,3.1074,3.1074,3.1074,3.1006,3.0889,3.0889,3.0889,3.0889,3.0889,3.0889,3.0889,3.0889,3.0674,3.0312,2.9756,2.9365,2.9014,2.8457,2.8291,2.8291,2.8291,2.8291,2.8291,2.8291,2.8291,2.8291,2.8291,2.8291,2.8291,2.8291,2.8291,2.8291,2.8291,2.8291,2.8291,2.8291,2.8291,2.8291,2.8291,2.8291,2.8291,2.8291,2.8291,2.8291,2.8291,2.8291,2.8291,2.8291,2.8291,2.8291,2.8291,2.8291,2.8291,2.8291,2.8291,2.8291,2.8291,2.8291,2.8359,2.8476,2.8359,2.8359,2.8476,2.835,2.8291,1.3336,1.5189,1.709,1.8933,1.9927,2.0488,2.0782,2.0848,2.0895,2.1076,2.0882,2.0715,2.0828,2.0755,2.0755,2.1052,2.2355,2.4067,2.6243,2.7719,2.9376,3.145,3.166,3.166,3.166,3.166,3.166,3.166,3.166,3.1543,3.1289,3.1514,3.1426,3.0908,3.1133,3.1152,3.0889,3.0889,3.0889,3.0889,3.0889,3.1025,3.1269,3.1269,3.1133,3.0889,3.0889,3.0889,3.0889,3.0889,3.0889,3.0889,3.0889,3.0889,3.0889,3.0889,3.0771,3.0615,3.0615,3.0322,2.9873,2.9453,2.9131,2.8838,2.8418,2.8291,2.8291,2.8291,2.8291,2.8291,2.8291,2.8291,2.8291,2.8291,2.8291,2.8291,2.8291,2.8291,2.8291,2.8291,2.8291,2.8291,2.8291,2.8291,2.8291,2.8291,2.8291,2.8291,2.8291,2.8291,2.8291,2.8291,2.8291,2.8291,2.8291,2.8447,2.8467,2.8301,2.8447,2.8467,2.8301,2.8291,2.8291,2.8291,2.8291,2.8369,2.8545,2.8369,2.8379,2.8535,2.8369,2.8291,1.4394,1.6889,1.9476,2.0066,2.0514,2.0815,2.1056,2.1109,2.1109,2.1109,2.0902,2.0795,2.1062,2.0895,2.0902,2.1527,2.175,2.2897,2.5806,2.6542,2.7749,3.037,3.083,3.0889,3.0889,3.0889,3.0889,3.0889,3.0889,3.0889,3.0889,3.0889,3.0889,3.0889,3.0889,3.0889,3.0889,3.0889,3.0889,3.0889,3.0889,3.0889,3.0889,3.0889,3.0889,3.0889,3.0889,3.0889,3.0889,3.0889,3.0889,3.0889,3.0889,3.0869,3.083,3.083,3.0537,3.0137,3.0137,2.9863,2.9443,2.9053,2.8896,2.8789,2.8408,2.8291,2.8291,2.8291,2.8291,2.8291,2.8291,2.8291,2.8291,2.8291,2.8291,2.8291,2.8291,2.8291,2.8291,2.8291,2.8291,2.8291,2.8291,2.8291,2.8291,2.8291,2.8291,2.8291,2.8291,2.8291,2.831,2.834,2.835,2.835,2.835,2.874,2.8799,2.8379,2.8711,2.875,2.8369,2.831,2.8291,2.8291,2.833,2.8535,2.8916,2.8535,2.8545,2.8906,2.8486,2.831,1.3684,1.5146,1.6606,1.9824,2.0975,2.1316,2.1149,2.1109,2.1109,2.1109,2.1056,2.1036,2.1096,2.1056,2.1136,2.1561,2.141,2.2038,2.4212,2.549,2.6898,2.8751,3.0089,3.0889,3.0889,3.0889,3.0889,3.0889,3.0889,3.0889,3.0889,3.0889,3.0889,3.0889,3.0889,3.0889,3.0889,3.0889,3.0889,3.0889,3.0889,3.0889,3.0889,3.0889,3.0889,3.0889,3.0889,3.0889,3.0889,3.0889,3.0889,3.0889,3.0889,3.0664,3.0342,3.0342,3.0078,2.9707,2.9707,2.9424,2.9043,2.8945,2.8701,2.8408,2.832,2.8291,2.8291,2.8291,2.8291,2.8291,2.8291,2.8291,2.8291,2.8291,2.8291,2.8291,2.8291,2.8291,2.8291,2.8291,2.8291,2.8291,2.8291,2.8291,2.8291,2.8291,2.8291,2.8291,2.8291,2.8291,2.8418,2.875,2.8779,2.8779,2.8779,2.918,2.9248,2.8809,2.8867,2.8877,2.8789,2.8467,2.8291,2.8291,2.8613,2.8828,2.8916,2.8828,2.8828,2.8906,2.8486,2.8467,1.3937,1.5459,1.7089,2.0292,2.1223,2.1336,2.1323,2.1216,2.1109,2.1109,2.1109,2.1109,2.1109,2.1109,2.1203,2.1568,2.1423,2.2243,2.4764,2.5738,2.7037,2.9313,3.0392,3.0889,3.0889,3.0889,3.0801,3.0576,3.0762,3.0791,3.0576,3.0771,3.0889,3.0889,3.0889,3.0889,3.0889,3.0889,3.0889,3.0889,3.0889,3.0889,3.0889,3.0889,3.0889,3.0889,3.0889,3.0889,3.0889,3.0889,3.0889,3.0869,3.0644,3.041,3.0176,2.9971,2.9629,2.9258,2.9258,2.8975,2.8613,2.8613,2.8467,2.8291,2.8291,2.8291,2.8291,2.8291,2.8291,2.8291,2.8291,2.8291,2.8291,2.8291,2.8291,2.8291,2.8291,2.8291,2.8291,2.8291,2.8291,2.8291,2.8291,2.8291,2.8291,2.8291,2.8291,2.8291,2.8291,2.8291,2.8447,2.8877,2.8916,2.8916,2.8916,2.9502,2.96,2.8955,2.9111,2.9238,2.9238,2.8623,2.8291,2.8291,2.8701,2.8818,2.8613,2.8818,2.8818,2.8613,2.8398,2.8525,1.3981,1.628,1.8597,2.1023,2.137,2.1249,2.1561,2.1323,2.1109,2.1109,2.1109,2.1109,2.1109,2.1109,2.1203,2.1568,2.1574,2.2489,2.5203,2.6029,2.7234,2.9754,3.0577,3.0889,3.0889,3.082,3.0615,3.0225,3.0557,3.0605,3.0215,3.0635,3.0889,3.0889,3.0889,3.0889,3.0889,3.0889,3.0889,3.0889,3.0889,3.0889,3.0889,3.0889,3.0889,3.0889,3.0889,3.0889,3.0889,3.0889,3.084,3.0732,3.0342,3.0107,2.9941,2.959,2.918,2.8809,2.8809,2.8584,2.8291,2.8291,2.8291,2.8291,2.8291,2.8291,2.8291,2.8291,2.8291,2.8291,2.8291,2.8291,2.8291,2.8291,2.8291,2.8291,2.8291,2.8291,2.8291,2.8291,2.8291,2.8291,2.8291,2.8291,2.8291,2.8291,2.8291,2.8291,2.8291,2.8291,2.8447,2.8877,2.8916,2.8945,2.9023,2.9678,2.9814,2.918,2.9336,2.9521,2.9678,2.8857,2.8398,2.8398,2.8818,2.8828,2.8398,2.8828,2.8818,2.8398,2.833,2.8555,1.2196,0.0,1.9057,0.0,2.1588,2.1568,2.1608,2.1323,2.1109,2.1109,2.1109,2.1109,2.1109,2.1109,2.1203,2.1568,2.1336,2.144,2.2139,2.447,2.6216,2.6599,2.9166,3.0889,3.0889,3.0527,3.0264,3.0205,3.0254,3.0264,3.0205,3.0635,3.0889,3.0889,3.0889,3.0889,3.0889,3.0889,3.0889,3.0889,3.0889,3.0889,3.0889,3.0889,3.0889,3.0889,3.0889,3.0889,3.0889,3.0889,3.0654,3.0283,3.0215,2.9746,2.9082,2.9023,2.874,2.8379,2.8379,2.834,2.8291,2.8291,2.8291,2.8291,2.8291,2.8291,2.8291,2.8291,2.8291,2.8291,2.8291,2.8291,2.8291,2.8291,2.8291,2.8291,2.8291,2.8291,2.8291,2.8291,2.8291,2.8291,2.8291,2.8291,2.8291,2.8291,2.8291,2.8291,2.8291,2.8291,2.8447,2.8877,2.8916,2.9072,2.9453,2.959,2.9766,3.001,2.9385,2.9336,3.0078,2.9287,2.8838,2.8838,2.9258,2.9268,2.8838,2.9268,2.9258,2.8828,2.8467,2.8721,1.3099,1.6164,1.8997,0.0,2.1543,2.139,2.1724,2.1436,2.1109,2.1109,2.1109,2.1109,2.1109,2.1109,2.1156,2.1283,2.1196,2.1466,2.2595,2.4618,2.634,2.7254,2.9471,3.0791,3.0527,3.0322,3.0,2.9521,2.9707,2.9736,2.9492,3.0127,3.0508,3.0508,3.0752,3.0889,3.0889,3.0889,3.0889,3.0889,3.0889,3.0889,3.0889,3.0889,3.0889,3.0889,3.0889,3.0742,3.0508,3.0508,3.0244,2.9824,2.958,2.9248,2.8887,2.8662,2.8447,2.8291,2.8291,2.8291,2.8291,2.8291,2.8291,2.8291,2.8291,2.8291,2.8291,2.8291,2.8291,2.8291,2.8291,2.8291,2.8291,2.8291,2.8291,2.8291,2.8291,2.8291,2.8291,2.8291,2.8291,2.8291,2.8291,2.8291,2.8291,2.8291,2.8291,2.8291,2.8291,2.8496,2.8809,2.9238,2.9287,2.9365,2.9551,2.9626,2.9541,2.9482,2.9355,2.956,3.0176,2.9375,2.9033,2.9277,2.9473,2.9238,2.8574,2.8994,2.8984,2.8564,2.8379,2.875,1.3536,1.5626,1.7519,2.0456,2.0779,2.0628,2.1672,2.1476,2.1109,2.1109,2.1109,2.1109,2.1109,2.1109,2.1136,2.1209,2.1156,2.1572,2.288,2.4409,2.5984,2.7623,2.9226,3.0257,3.0343,3.0166,2.9775,2.9131,2.9287,2.9258,2.8935,2.9629,3.0088,3.0195,3.0537,3.0771,3.0889,3.0889,3.0889,3.0889,3.0889,3.083,3.0713,3.0713,3.0654,3.0566,3.0664,3.0518,3.0185,3.0078,2.9785,2.9375,2.9043,2.8857,2.8721,2.8408,2.8291,2.8291,2.8291,2.8291,2.8291,2.8291,2.8291,2.8291,2.8291,2.8291,2.8291,2.8291,2.8291,2.8291,2.8291,2.8291,2.8291,2.8291,2.8291,2.8291,2.8291,2.8291,2.8291,2.8291,2.8291,2.8291,2.8291,2.8291,2.8291,2.8291,2.8291,2.8291,2.8291,2.8662,2.9043,2.9365,2.9404,2.9453,2.9616,2.9473,2.9365,2.9248,2.9453,2.9814,3.0351,2.9541,2.9238,2.956,2.9626,2.9199,2.8447,2.8877,2.8867,2.8447,2.834,2.875,1.195,1.259,1.3695,1.7834,1.8653,1.8978,2.1173,2.1336,2.1109,2.1109,2.1109,2.1109,2.1109,2.1109,2.1203,2.1547,2.1296,2.1266,2.1683,2.284,2.4294,2.5924,2.7563,2.9148,3.0733,3.0098,2.959,2.9597,2.917,2.8945,2.8916,2.9355,2.9785,3.0185,3.0215,3.0449,3.0889,3.0889,3.0889,3.0889,3.0889,3.0664,3.0234,3.0234,3.0019,2.9658,3.0059,3.0215,3.0166,2.9766,2.9346,2.8945,2.8926,2.8672,2.832,2.8301,2.8291,2.8291,2.8291,2.8291,2.8291,2.8291,2.8291,2.8291,2.8291,2.8291,2.8291,2.8291,2.8291,2.8291,2.8291,2.8291,2.8291,2.8291,2.8291,2.8291,2.8291,2.8291,2.8291,2.8291,2.8291,2.8291,2.8291,2.8291,2.8291,2.8291,2.8291,2.8291,2.8291,2.8662,2.8926,2.8945,2.8955,2.9121,2.9531,2.9189,2.9287,3.0078,2.9785,2.9951,3.082,3.001,2.9607,2.9626,2.9626,2.9346,2.8887,2.9326,2.9307,2.8877,2.8476,2.875,1.1595,1.2259,1.3105,1.6023,1.7554,1.8527,1.9532,2.0457,2.1109,2.1109,2.1109,2.1109,2.1109,2.1109,2.1203,2.1568,2.1527,2.143,2.1601,2.29,2.4416,2.5826,2.7443,2.8928,3.0296,2.9912,2.9453,2.917,2.876,2.8516,2.8516,2.8916,2.9346,2.9785,2.9795,3.0,3.0439,3.0742,3.0889,3.0889,3.0586,3.0361,3.0185,2.9912,2.9717,2.956,2.9434,2.9375,2.9365,2.9209,2.8906,2.8516,2.8516,2.8428,2.8291,2.8291,2.8291,2.8291,2.8291,2.8291,2.8291,2.8291,2.8291,2.8291,2.8291,2.8291,2.8291,2.8291,2.8291,2.8359,2.8623,2.8701,2.8701,2.8701,2.8486,2.8369,2.8633,2.8476,2.8291,2.8291,2.8291,2.8291,2.8291,2.8291,2.8291,2.8291,2.8291,2.8291,2.8291,2.8906,2.9336,2.9336,2.958,2.9697,2.9636,2.9434,2.9346,2.9375,2.9756,2.999,3.0039,2.9792,2.9443,2.916,2.9434,2.9355,2.8916,2.9082,2.9219,2.9326,2.8896,2.915,1.0729,1.1169,0.0,0.0,1.5499,1.6734,1.825,1.9409,2.0339,2.0956,2.1109,2.1109,2.1109,2.1189,2.1356,2.165,2.1762,2.1762,2.1762,2.2558,2.368,2.5056,2.6591,2.8131,2.9486,2.9735,2.96,2.917,2.874,2.8437,2.8301,2.8555,2.8906,2.9336,2.9629,2.9912,3.0195,3.0508,3.0732,3.0889,3.042,3.0127,2.9971,2.9551,2.9277,2.9121,2.8828,2.8789,2.8906,2.876,2.8545,2.8291,2.8291,2.8291,2.8291,2.8291,2.8291,2.8291,2.8291,2.8291,2.8291,2.8291,2.8291,2.8291,2.8291,2.8291,2.832,2.8467,2.8506,2.8603,2.9023,2.9033,2.8955,2.9101,2.8818,2.8623,2.9043,2.8799,2.8506,2.8506,2.8506,2.8457,2.831,2.8408,2.8506,2.8506,2.8506,2.8506,2.8506,2.9131,2.9626,2.9626,2.9941,3.0078,2.9805,2.9785,2.9658,2.9365,3.0029,3.0303,3.0029,2.9792,2.9502,2.9346,2.9492,2.9492,2.9346,2.9346,2.9502,2.9766,2.9336,2.9521,0.0,0.0,0.0,1.1974,1.2444,1.3476,1.7461,1.8335,1.8805,2.0707,2.1096,2.1096,2.1109,2.1363,2.1722,2.1937,2.1991,2.1997,2.1997,2.1822,2.2091,2.3439,2.5032,2.666,2.823,2.9496,3.0019,2.96,2.917,2.874,2.831,2.8301,2.8496,2.8887,2.9736,3.0176,3.0156,3.0176,3.04,3.085,3.0381,2.9941,2.9531,2.9101,2.8682,2.8291,2.8291,2.8525,2.8867,2.8467,2.8291,2.8291,2.8291,2.8291,2.8291,2.8291,2.8291,2.8291,2.8291,2.8291,2.8291,2.8291,2.8291,2.8291,2.8291,2.8291,2.8379,2.8799,2.8916,2.9023,2.9473,2.9277,2.9062,2.9482,2.9258,2.9053,2.9492,2.9258,2.8955,2.8945,2.8935,2.8809,2.8398,2.8672,2.8935,2.8935,2.8935,2.8935,2.8935,2.9316,2.9646,2.9646,2.9961,3.0205,3.0176,3.0185,3.0185,3.0176,3.0615,3.0869,3.0869,3.0049,2.9775,3.0166,2.9795,2.9785,3.0195,3.0195,3.0205,3.0205,2.9795,2.9824,0.8988,0.0,0.0,0.0,0.0,0.0,1.529,1.6873,1.838,2.0371,2.0795,2.0862,2.1069,2.1523,2.1891,2.1971,2.2164,2.2298,2.2298,2.2231,2.2569,2.3739,2.5327,2.6878,2.8265,2.9496,3.0019,2.96,2.917,2.874,2.831,2.8584,2.8662,2.8467,2.9297,2.959,2.9277,2.959,2.9814,2.9932,2.9482,2.9209,2.9082,2.8662,2.8398,2.8291,2.8291,2.8359,2.8457,2.834,2.8291,2.8291,2.8291,2.8291,2.8291,2.8291,2.8291,2.8291,2.8291,2.8291,2.8291,2.8291,2.8291,2.8291,2.8291,2.8291,2.8379,2.8799,2.8916,2.9092,2.9834,2.9932,2.9873,2.999,2.9697,2.9512,2.9932,2.9932,2.9746,2.9453,2.9394,2.9355,2.9238,2.9316,2.9394,2.9394,2.9394,2.9394,2.9394,2.9756,3.0019,3.0019,3.043,3.0439,2.9795,3.0019,3.0068,2.9766,3.0146,3.0391,3.0391,3.0156,2.9932,2.9746,2.9932,3.0078,3.0195,3.0195,3.0371,3.0693,3.0576,3.0586,0.8885,0.8998,0.9093,0.9275,0.0,0.0,1.4435,1.5871,1.741,2.0267,2.0855,2.0909,2.1076,2.149,2.1844,2.1964,2.2231,2.2418,2.2418,2.2418,2.2571,2.3113,2.5257,2.6923,2.7531,2.9481,3.0488,2.9883,2.9434,2.8926,2.833,2.8691,2.873,2.8301,2.8945,2.918,2.8916,2.917,2.9394,2.956,2.9121,2.8916,2.8906,2.8486,2.8291,2.8291,2.8291,2.8291,2.8291,2.8291,2.8291,2.8291,2.8291,2.8291,2.8291,2.8291,2.8291,2.8291,2.8291,2.8291,2.8291,2.8291,2.8291,2.8291,2.8291,2.8291,2.8379,2.8799,2.917,2.9609,3.0303,3.0342,3.0244,3.0439,3.0156,2.9951,3.0391,3.0488,3.0351,2.9912,2.9834,2.9775,2.9655,2.9717,2.9834,2.9834,2.9687,2.9629,2.9814,2.9893,3.0,3.0176,3.0439,3.0391,2.9873,2.9893,2.9902,2.9834,3.0059,3.0283,3.0478,3.0303,3.0176,3.0117,3.0166,3.0293,3.0488,3.0488,3.0625,3.0889,3.0889,3.0889,0.8944,0.8885,0.8946,0.9266,0.9228,0.0,1.4181,1.4938,1.5907,1.965,2.0426,2.0522,2.0681,2.0994,2.1336,2.1797,2.2111,2.2358,2.2452,2.2465,2.2358,2.2071,2.4914,2.6747,2.6487,2.9353,3.0926,3.0332,2.9834,2.9219,2.8408,2.8711,2.873,2.8301,2.8662,2.8848,2.8848,2.8848,2.9043,2.9424,2.9033,2.8848,2.8838,2.8467,2.8291,2.8291,2.8291,2.8291,2.8291,2.8291,2.8291,2.8291,2.8291,2.8291,2.8291,2.8291,2.8291,2.8291,2.8291,2.8291,2.8291,2.8291,2.8291,2.8291,2.8291,2.8291,2.8389,2.8857,2.958,3.0303,3.0771,3.0586,3.0371,3.0791,3.0576,3.0391,3.0801,3.0889,3.0771,3.0351,3.0273,3.0156,2.9785,2.999,3.0195,3.0195,2.9834,2.9707,3.0078,2.9844,2.9766,3.0098,3.0166,3.0156,3.0059,2.9707,2.9678,3.0098,3.0127,3.0361,3.0869,3.0488,3.0469,3.0889,3.0488,3.0478,3.0889,3.0889,3.0889,3.0889,3.0889,3.0889,0.93,0.8885,0.8898,0.8956,0.9001,0.0,1.1745,1.2374,1.3164,1.553,1.6094,1.6658,1.8225,1.8726,1.9374,2.0727,2.144,2.1971,2.2672,2.2779,2.2665,2.2372,2.4092,2.5776,2.689,2.8456,2.9753,3.0675,3.0019,2.9346,2.8818,2.8877,2.873,2.8301,2.8369,2.8418,2.8418,2.8418,2.8457,2.8545,2.8457,2.8418,2.8408,2.833,2.8291,2.8291,2.8291,2.8291,2.8291,2.8291,2.8291,2.8291,2.8291,2.8291,2.8291,2.8291,2.8291,2.8291,2.8291,2.8291,2.8291,2.8291,2.8291,2.8291,2.8291,2.8291,2.8457,2.9228,2.9805,3.0303,3.0771,3.082,3.0781,3.0869,3.082,3.0781,3.0869,3.0889,3.0859,3.0771,3.0752,3.0732,3.0644,3.0391,3.0195,3.0195,2.9834,2.9655,2.9687,2.9912,2.9971,2.9717,3.0,2.9922,2.9228,2.9092,2.9228,2.9668,2.9744,3.0049,3.0859,3.0801,3.0801,3.0889,3.0801,3.0801,3.0889,3.0889,3.0889,3.0889,3.0889,3.0889,1.0288,0.9482,0.8885,0.8885,0.8885,0.0,0.0,1.1819,1.2454,1.4498,1.4973,1.5327,1.6287,1.6636,1.7341,1.9112,1.9846,2.0618,2.1858,2.2238,2.2425,2.2418,2.3921,2.562,2.7115,2.847,2.96,3.049,3.0137,2.96,2.8955,2.8916,2.873,2.8301,2.8291,2.8291,2.8291,2.8291,2.8291,2.8291,2.8291,2.8291,2.8291,2.8291,2.8291,2.8291,2.8291,2.8291,2.8291,2.8291,2.8291,2.8291,2.8291,2.8291,2.8291,2.8291,2.8291,2.8291,2.8291,2.8291,2.8291,2.8291,2.8291,2.8291,2.8291,2.8291,2.8476,2.9326,2.956,2.9766,3.0664,3.0723,3.0605,3.083,3.0889,3.083,3.0596,3.0547,3.0478,3.0273,3.0234,3.0371,3.082,3.0508,3.0195,3.0195,2.9658,2.9326,2.9597,2.956,2.956,2.9626,2.956,2.9385,2.8955,2.873,2.8877,2.9587,2.9626,2.9971,3.0859,3.0889,3.0889,3.0889,3.0889,3.0889,3.0889,3.0889,3.0889,3.0889,3.0889,3.0889,1.1483,1.0532,0.9743,0.9414,0.9559,1.0094,0.0,0.0,0.0,1.3615,1.3893,1.404,1.434,1.449,1.5283,1.7478,1.8155,1.8992,2.0592,2.1316,2.1797,2.2205,2.3601,2.5131,2.681,2.8386,2.9591,3.0285,3.0244,2.9893,2.9199,2.9092,2.8848,2.8428,2.833,2.8291,2.8291,2.8291,2.8291,2.8291,2.8291,2.8291,2.8291,2.8291,2.8291,2.8291,2.8291,2.8291,2.8291,2.8291,2.8291,2.8291,2.8291,2.8291,2.8291,2.8291,2.8291,2.8291,2.8291,2.8291,2.8291,2.8291,2.8291,2.8291,2.8291,2.835,2.8574,2.9411,2.9375,2.9434,3.0596,3.0615,3.042,3.0801,3.0889,3.0762,3.0293,3.0195,3.0068,2.9704,2.9626,2.9795,3.0518,3.0254,2.9951,2.9951,2.9287,2.8926,2.9277,2.9092,2.9023,2.9297,2.916,2.9014,2.8926,2.8682,2.8867,2.9648,2.9744,3.0049,3.0859,3.0889,3.0889,3.0889,3.0889,3.0889,3.0889,3.0889,3.0889,3.0889,3.0889,3.0889,1.2561,1.2431,1.2783,1.1393,1.1931,1.2526,1.143,0.0,1.1081,1.0061,0.0,1.0465,1.19,0.0,0.0,1.6368,1.7132,1.7958,1.9728,2.0227,2.0735,2.1621,2.2067,2.3063,2.4784,2.7131,2.9172,3.0694,3.043,3.0156,3.0059,2.9697,2.9297,2.8867,2.8486,2.8291,2.8291,2.8291,2.8291,2.8291,2.8291,2.8291,2.8291,2.8291,2.8291,2.8291,2.8291,2.8291,2.8291,2.8291,2.8291,2.8291,2.8291,2.8291,2.8291,2.8291,2.8291,2.8291,2.8291,2.8291,2.8291,2.8291,2.8291,2.8291,2.8291,2.8555,2.8955,2.9434,2.9805,3.0176,3.0742,3.085,3.083,3.0879,3.0889,3.0762,3.0293,3.0195,3.0068,2.9704,2.9626,2.96,2.9707,2.9355,2.9062,2.9062,2.8662,2.8389,2.8428,2.8721,2.8789,2.8476,2.9072,2.9336,2.8955,2.9228,2.9629,3.0098,3.0127,3.0351,3.0869,3.0889,3.0889,3.0889,3.0889,3.0889,3.0889,3.0889,3.0889,3.0889,3.0889,3.0889,1.484,1.4194,1.375,1.2901,1.3137,1.3312,1.2536,1.1759,1.0998,1.0398,0.0,0.0,0.0,0.0,0.0,0.0,1.5589,1.6768,1.9194,1.9947,2.0434,2.0982,2.1156,2.2342,2.5117,2.7202,2.9098,3.0772,3.0459,3.0088,2.9844,2.9668,2.9258,2.8574,2.8389,2.8291,2.8291,2.8291,2.8291,2.8291,2.8291,2.8291,2.8291,2.8291,2.8291,2.8291,2.8291,2.8291,2.8291,2.8291,2.8291,2.8291,2.8291,2.8291,2.8291,2.8291,2.8291,2.8291,2.8291,2.8291,2.8291,2.8291,2.8291,2.8291,2.8291,2.8584,2.9014,2.9443,2.9697,3.0,3.0703,3.0693,3.0557,3.083,3.0684,3.043,3.0234,2.9805,2.9404,2.9228,2.9189,2.9189,2.9189,2.9033,2.8916,2.8916,2.8564,2.8379,2.8623,2.8809,2.8848,2.8672,2.9209,2.9394,2.8955,2.9316,2.9746,3.0166,3.0449,3.0684,3.0889,3.0889,3.0889,3.0889,3.0889,3.0889,3.0889,3.0889,3.0889,3.0889,3.0889,3.0889,1.6678,1.5949,1.527,1.4526,1.4641,1.4697,1.4018,1.3093,1.2324,1.1886,1.0675,0.0,0.0,0.0,1.042,1.3665,0.0,1.591,1.8965,1.9659,2.0013,2.0388,2.0508,2.1777,2.4827,2.6015,2.7609,2.9957,2.968,2.9583,2.9941,2.9707,2.9287,2.8662,2.8418,2.8291,2.8291,2.8291,2.8291,2.8291,2.8291,2.8291,2.8291,2.8291,2.8291,2.8291,2.8291,2.8291,2.8291,2.8291,2.8291,2.8291,2.8291,2.8291,2.8291,2.8291,2.8291,2.8291,2.8291,2.8291,2.8291,2.8291,2.8291,2.831,2.8428,2.876,2.9189,2.9619,2.9834,3.0078,3.0723,3.0644,3.0478,3.081,3.0635,3.0322,3.0078,2.9629,2.9199,2.8965,2.9014,2.9092,2.9092,2.9092,2.9092,2.9092,2.8838,2.875,2.9053,2.9092,2.9092,2.9092,2.9482,2.9609,2.9297,2.9678,3.0059,3.0371,3.0703,3.0889,3.0889,3.0889,3.0889,3.0889,3.0889,3.0889,3.0889,3.0889,3.0889,3.0889,3.0889,3.0889,1.7418,1.7821,1.8316,1.6482,1.6955,1.741,1.5696,1.5557,1.5349,1.3914,1.2585,1.1708,1.1708,1.0463,1.052,1.3872,1.4387,0.0,0.0,1.9132,1.9178,1.976,2.0074,2.09,2.2625,2.2428,2.3827,2.7795,2.7661,2.8422,3.0742,3.0039,2.9616,2.9587,2.8721,2.8291,2.8291,2.8291,2.8291,2.8291,2.8291,2.8291,2.8291,2.8291,2.8291,2.8291,2.8291,2.8291,2.8291,2.8291,2.8291,2.8291,2.8291,2.8291,2.8291,2.8291,2.8291,2.8291,2.8291,2.8291,2.8291,2.8291,2.8291,2.8369,2.8779,2.9209,2.9639,3.0059,3.0508,3.0859,3.0889,3.0879,3.0869,3.0889,3.0879,3.0635,2.9775,2.9893,2.9912,2.9082,2.9258,2.9607,2.9607,2.9607,2.9607,2.9607,2.9597,2.9531,2.9607,2.9607,2.9607,2.9607,2.9922,3.0176,3.0156,3.0576,3.0859,3.0869,3.0889,3.0889,3.0889,3.0889,3.0889,3.0889,3.0889,3.0889,3.0889,3.0889,3.0889,3.0889,3.0889,3.0889,1.8765,1.8874,1.9024,1.8146,1.8154,1.8092,1.7296,1.6465,1.575,1.5251,1.4162,1.3302,1.3302,1.2103,1.2149,1.5396,1.5147,1.5697,0.0,1.9112,1.9072,1.9466,1.9773,2.0582,2.2185,2.306,2.4779,2.7777,2.852,2.9287,3.04,2.9883,2.9443,2.915,2.8584,2.8291,2.8291,2.8291,2.8291,2.8291,2.8291,2.8291,2.8291,2.8291,2.8291,2.8291,2.8291,2.8291,2.8291,2.8291,2.8291,2.8291,2.8291,2.8291,2.8291,2.8291,2.8291,2.8291,2.8291,2.8291,2.8291,2.8291,2.8476,2.8682,2.8545,2.9199,2.9961,2.9824,3.0312,3.0889,3.0889,3.0664,3.043,3.043,3.0,2.958,2.957,2.9453,2.9346,2.9346,2.9697,2.999,2.999,3.0244,3.0244,2.9714,2.9626,2.9678,2.9951,2.999,2.999,2.999,3.0391,3.0537,3.0225,3.0625,3.0889,3.0889,3.0889,3.0889,3.0889,3.0889,3.0889,3.0889,3.0889,3.0889,3.0889,3.0889,3.0889,3.0889,3.0889,3.0889,1.9397,1.9424,1.9299,1.8998,1.8784,1.8571,1.827,1.7544,1.6987,1.6987,1.6004,1.5137,1.5137,1.3926,1.379,1.6356,1.6032,1.6323,0.0,1.9072,1.9078,1.9058,1.9312,1.9962,2.1255,2.1985,2.3713,2.6924,2.7564,2.8606,3.0343,3.0029,2.959,2.916,2.874,2.8447,2.8291,2.8291,2.8291,2.8291,2.8291,2.8291,2.8291,2.8291,2.8291,2.8291,2.8291,2.8291,2.8291,2.8291,2.8291,2.8291,2.8291,2.8291,2.8291,2.8291,2.8291,2.8291,2.8291,2.8291,2.8291,2.8291,2.8476,2.8672,2.8555,2.9199,2.9941,2.9824,3.0322,3.0889,3.0889,3.0674,3.0449,3.0449,3.0019,2.9648,2.9766,2.9697,2.9658,2.9766,3.0146,3.0449,3.0449,3.0693,3.0693,3.0127,3.0039,3.0137,3.041,3.0449,3.0449,3.0449,3.0713,3.0771,3.0469,3.0723,3.0889,3.0889,3.0889,3.0889,3.0889,3.0889,3.0889,3.0889,3.0889,3.0889,3.0889,3.0889,3.0889,3.0889,3.0889,3.0889]}]]